<?xml version="1.0" encoding="UTF-8" ?>
<gpx version="1.1" xmlns:xsi="http://www.w3.org/2001/XMLSchema-instance" 
    xmlns="http://www.topografix.com/GPX/1/1" 
    xsi:schemaLocation="http://www.topografix.com/GPX/1/1 http://www.topografix.com/GPX/1/1/gpx.xsd" 
    creator="Openrunner - https://www.openrunner.com" >	<trk>
						<name>N° 2 rapido route 60km  2024-19085496</name>
						<trkseg>
					<trkpt lat="45.866770" lon="4.598160">
						<ele>356</ele>
						<time>2024-10-10T18:34:12Z</time>
					</trkpt>
					<trkpt lat="45.866730" lon="4.597730">
						<ele>355</ele>
						<time>2024-10-10T18:34:17Z</time>
					</trkpt>
					<trkpt lat="45.866750" lon="4.598020">
						<ele>356</ele>
						<time>2024-10-10T18:34:21Z</time>
					</trkpt>
					<trkpt lat="45.867100" lon="4.600320">
						<ele>369</ele>
						<time>2024-10-10T18:34:50Z</time>
					</trkpt>
					<trkpt lat="45.867430" lon="4.601350">
						<ele>370</ele>
						<time>2024-10-10T18:35:04Z</time>
					</trkpt>
					<trkpt lat="45.867560" lon="4.602100">
						<ele>368</ele>
						<time>2024-10-10T18:35:14Z</time>
					</trkpt>
					<trkpt lat="45.867680" lon="4.602600">
						<ele>366</ele>
						<time>2024-10-10T18:35:20Z</time>
					</trkpt>
					<trkpt lat="45.867760" lon="4.603040">
						<ele>367</ele>
						<time>2024-10-10T18:35:26Z</time>
					</trkpt>
					<trkpt lat="45.867770" lon="4.603250">
						<ele>367</ele>
						<time>2024-10-10T18:35:29Z</time>
					</trkpt>
					<trkpt lat="45.867750" lon="4.603670">
						<ele>367</ele>
						<time>2024-10-10T18:35:34Z</time>
					</trkpt>
					<trkpt lat="45.867630" lon="4.604370">
						<ele>368</ele>
						<time>2024-10-10T18:35:43Z</time>
					</trkpt>
					<trkpt lat="45.867540" lon="4.605200">
						<ele>366</ele>
						<time>2024-10-10T18:35:53Z</time>
					</trkpt>
					<trkpt lat="45.867430" lon="4.607270">
						<ele>361</ele>
						<time>2024-10-10T18:36:19Z</time>
					</trkpt>
					<trkpt lat="45.867340" lon="4.608020">
						<ele>360</ele>
						<time>2024-10-10T18:36:28Z</time>
					</trkpt>
					<trkpt lat="45.867190" lon="4.609640">
						<ele>360</ele>
						<time>2024-10-10T18:36:49Z</time>
					</trkpt>
					<trkpt lat="45.867040" lon="4.610570">
						<ele>358</ele>
						<time>2024-10-10T18:37:00Z</time>
					</trkpt>
					<trkpt lat="45.867020" lon="4.611300">
						<ele>353</ele>
						<time>2024-10-10T18:37:09Z</time>
					</trkpt>
					<trkpt lat="45.866830" lon="4.611970">
						<ele>348</ele>
						<time>2024-10-10T18:37:18Z</time>
					</trkpt>
					<trkpt lat="45.866610" lon="4.614220">
						<ele>338</ele>
						<time>2024-10-10T18:37:47Z</time>
					</trkpt>
					<trkpt lat="45.866590" lon="4.614880">
						<ele>333</ele>
						<time>2024-10-10T18:37:55Z</time>
					</trkpt>
					<trkpt lat="45.866460" lon="4.616060">
						<ele>328</ele>
						<time>2024-10-10T18:38:10Z</time>
					</trkpt>
					<trkpt lat="45.866460" lon="4.616320">
						<ele>327</ele>
						<time>2024-10-10T18:38:13Z</time>
					</trkpt>
					<trkpt lat="45.866540" lon="4.616880">
						<ele>324</ele>
						<time>2024-10-10T18:38:20Z</time>
					</trkpt>
					<trkpt lat="45.866610" lon="4.617750">
						<ele>318</ele>
						<time>2024-10-10T18:38:31Z</time>
					</trkpt>
					<trkpt lat="45.866920" lon="4.619020">
						<ele>316</ele>
						<time>2024-10-10T18:38:47Z</time>
					</trkpt>
					<trkpt lat="45.866950" lon="4.619300">
						<ele>316</ele>
						<time>2024-10-10T18:38:51Z</time>
					</trkpt>
					<trkpt lat="45.866920" lon="4.619830">
						<ele>316</ele>
						<time>2024-10-10T18:38:57Z</time>
					</trkpt>
					<trkpt lat="45.866980" lon="4.620640">
						<ele>317</ele>
						<time>2024-10-10T18:39:08Z</time>
					</trkpt>
					<trkpt lat="45.867110" lon="4.621400">
						<ele>316</ele>
						<time>2024-10-10T18:39:17Z</time>
					</trkpt>
					<trkpt lat="45.867220" lon="4.622370">
						<ele>312</ele>
						<time>2024-10-10T18:39:29Z</time>
					</trkpt>
					<trkpt lat="45.867250" lon="4.623060">
						<ele>311</ele>
						<time>2024-10-10T18:39:38Z</time>
					</trkpt>
					<trkpt lat="45.867270" lon="4.624410">
						<ele>308</ele>
						<time>2024-10-10T18:39:55Z</time>
					</trkpt>
					<trkpt lat="45.867340" lon="4.625500">
						<ele>308</ele>
						<time>2024-10-10T18:40:08Z</time>
					</trkpt>
					<trkpt lat="45.867240" lon="4.627400">
						<ele>306</ele>
						<time>2024-10-10T18:40:32Z</time>
					</trkpt>
					<trkpt lat="45.867150" lon="4.628660">
						<ele>302</ele>
						<time>2024-10-10T18:40:48Z</time>
					</trkpt>
					<trkpt lat="45.866960" lon="4.630210">
						<ele>295</ele>
						<time>2024-10-10T18:41:07Z</time>
					</trkpt>
					<trkpt lat="45.866880" lon="4.630760">
						<ele>293</ele>
						<time>2024-10-10T18:41:14Z</time>
					</trkpt>
					<trkpt lat="45.866700" lon="4.631420">
						<ele>291</ele>
						<time>2024-10-10T18:41:23Z</time>
					</trkpt>
					<trkpt lat="45.866550" lon="4.632160">
						<ele>290</ele>
						<time>2024-10-10T18:41:32Z</time>
					</trkpt>
					<trkpt lat="45.866400" lon="4.633090">
						<ele>288</ele>
						<time>2024-10-10T18:41:44Z</time>
					</trkpt>
					<trkpt lat="45.866110" lon="4.634310">
						<ele>287</ele>
						<time>2024-10-10T18:42:00Z</time>
					</trkpt>
					<trkpt lat="45.865940" lon="4.634830">
						<ele>286</ele>
						<time>2024-10-10T18:42:07Z</time>
					</trkpt>
					<trkpt lat="45.866140" lon="4.635100">
						<ele>285</ele>
						<time>2024-10-10T18:42:12Z</time>
					</trkpt>
					<trkpt lat="45.867230" lon="4.637010">
						<ele>272</ele>
						<time>2024-10-10T18:42:43Z</time>
					</trkpt>
					<trkpt lat="45.867290" lon="4.637250">
						<ele>270</ele>
						<time>2024-10-10T18:42:46Z</time>
					</trkpt>
					<trkpt lat="45.867330" lon="4.637740">
						<ele>268</ele>
						<time>2024-10-10T18:42:52Z</time>
					</trkpt>
					<trkpt lat="45.867430" lon="4.638230">
						<ele>267</ele>
						<time>2024-10-10T18:42:58Z</time>
					</trkpt>
					<trkpt lat="45.867580" lon="4.638740">
						<ele>267</ele>
						<time>2024-10-10T18:43:05Z</time>
					</trkpt>
					<trkpt lat="45.867830" lon="4.639300">
						<ele>265</ele>
						<time>2024-10-10T18:43:13Z</time>
					</trkpt>
					<trkpt lat="45.868090" lon="4.639750">
						<ele>263</ele>
						<time>2024-10-10T18:43:21Z</time>
					</trkpt>
					<trkpt lat="45.868340" lon="4.640130">
						<ele>262</ele>
						<time>2024-10-10T18:43:27Z</time>
					</trkpt>
					<trkpt lat="45.869230" lon="4.640740">
						<ele>253</ele>
						<time>2024-10-10T18:43:45Z</time>
					</trkpt>
					<trkpt lat="45.869630" lon="4.641630">
						<ele>244</ele>
						<time>2024-10-10T18:43:58Z</time>
					</trkpt>
					<trkpt lat="45.869860" lon="4.642320">
						<ele>237</ele>
						<time>2024-10-10T18:44:07Z</time>
					</trkpt>
					<trkpt lat="45.870580" lon="4.642430">
						<ele>228</ele>
						<time>2024-10-10T18:44:20Z</time>
					</trkpt>
					<trkpt lat="45.871480" lon="4.642950">
						<ele>218</ele>
						<time>2024-10-10T18:44:37Z</time>
					</trkpt>
					<trkpt lat="45.871760" lon="4.643090">
						<ele>215</ele>
						<time>2024-10-10T18:44:43Z</time>
					</trkpt>
					<trkpt lat="45.872140" lon="4.643070">
						<ele>212</ele>
						<time>2024-10-10T18:44:49Z</time>
					</trkpt>
					<trkpt lat="45.873500" lon="4.643400">
						<ele>211</ele>
						<time>2024-10-10T18:45:14Z</time>
					</trkpt>
					<trkpt lat="45.873720" lon="4.643420">
						<ele>211</ele>
						<time>2024-10-10T18:45:18Z</time>
					</trkpt>
					<trkpt lat="45.874210" lon="4.643390">
						<ele>212</ele>
						<time>2024-10-10T18:45:27Z</time>
					</trkpt>
					<trkpt lat="45.874450" lon="4.643400">
						<ele>212</ele>
						<time>2024-10-10T18:45:31Z</time>
					</trkpt>
					<trkpt lat="45.874900" lon="4.643510">
						<ele>212</ele>
						<time>2024-10-10T18:45:39Z</time>
					</trkpt>
					<trkpt lat="45.875480" lon="4.643740">
						<ele>212</ele>
						<time>2024-10-10T18:45:50Z</time>
					</trkpt>
					<trkpt lat="45.875740" lon="4.643870">
						<ele>212</ele>
						<time>2024-10-10T18:45:55Z</time>
					</trkpt>
					<trkpt lat="45.875800" lon="4.643930">
						<ele>212</ele>
						<time>2024-10-10T18:45:56Z</time>
					</trkpt>
					<trkpt lat="45.875900" lon="4.644090">
						<ele>213</ele>
						<time>2024-10-10T18:45:59Z</time>
					</trkpt>
					<trkpt lat="45.875980" lon="4.644170">
						<ele>213</ele>
						<time>2024-10-10T18:46:00Z</time>
					</trkpt>
					<trkpt lat="45.876060" lon="4.644180">
						<ele>213</ele>
						<time>2024-10-10T18:46:02Z</time>
					</trkpt>
					<trkpt lat="45.876570" lon="4.643230">
						<ele>209</ele>
						<time>2024-10-10T18:46:17Z</time>
					</trkpt>
					<trkpt lat="45.876270" lon="4.643670">
						<ele>211</ele>
						<time>2024-10-10T18:46:24Z</time>
					</trkpt>
					<trkpt lat="45.875980" lon="4.644170">
						<ele>213</ele>
						<time>2024-10-10T18:46:32Z</time>
					</trkpt>
					<trkpt lat="45.876060" lon="4.644180">
						<ele>213</ele>
						<time>2024-10-10T18:46:34Z</time>
					</trkpt>
					<trkpt lat="45.876630" lon="4.644140">
						<ele>213</ele>
						<time>2024-10-10T18:46:44Z</time>
					</trkpt>
					<trkpt lat="45.877250" lon="4.644350">
						<ele>215</ele>
						<time>2024-10-10T18:46:55Z</time>
					</trkpt>
					<trkpt lat="45.876830" lon="4.644920">
						<ele>214</ele>
						<time>2024-10-10T18:47:06Z</time>
					</trkpt>
					<trkpt lat="45.877190" lon="4.645470">
						<ele>216</ele>
						<time>2024-10-10T18:47:15Z</time>
					</trkpt>
					<trkpt lat="45.877220" lon="4.646090">
						<ele>217</ele>
						<time>2024-10-10T18:47:23Z</time>
					</trkpt>
					<trkpt lat="45.877310" lon="4.646420">
						<ele>218</ele>
						<time>2024-10-10T18:47:27Z</time>
					</trkpt>
					<trkpt lat="45.877260" lon="4.646730">
						<ele>217</ele>
						<time>2024-10-10T18:47:31Z</time>
					</trkpt>
					<trkpt lat="45.877240" lon="4.647140">
						<ele>215</ele>
						<time>2024-10-10T18:47:36Z</time>
					</trkpt>
					<trkpt lat="45.877390" lon="4.647810">
						<ele>213</ele>
						<time>2024-10-10T18:47:45Z</time>
					</trkpt>
					<trkpt lat="45.877520" lon="4.648110">
						<ele>214</ele>
						<time>2024-10-10T18:47:49Z</time>
					</trkpt>
					<trkpt lat="45.878080" lon="4.649100">
						<ele>221</ele>
						<time>2024-10-10T18:48:05Z</time>
					</trkpt>
					<trkpt lat="45.878270" lon="4.649470">
						<ele>225</ele>
						<time>2024-10-10T18:48:11Z</time>
					</trkpt>
					<trkpt lat="45.878610" lon="4.649750">
						<ele>230</ele>
						<time>2024-10-10T18:48:18Z</time>
					</trkpt>
					<trkpt lat="45.878920" lon="4.649850">
						<ele>233</ele>
						<time>2024-10-10T18:48:23Z</time>
					</trkpt>
					<trkpt lat="45.879230" lon="4.649840">
						<ele>236</ele>
						<time>2024-10-10T18:48:29Z</time>
					</trkpt>
					<trkpt lat="45.879490" lon="4.649700">
						<ele>237</ele>
						<time>2024-10-10T18:48:34Z</time>
					</trkpt>
					<trkpt lat="45.879920" lon="4.649360">
						<ele>237</ele>
						<time>2024-10-10T18:48:42Z</time>
					</trkpt>
					<trkpt lat="45.880620" lon="4.648750">
						<ele>241</ele>
						<time>2024-10-10T18:48:57Z</time>
					</trkpt>
					<trkpt lat="45.880830" lon="4.648650">
						<ele>243</ele>
						<time>2024-10-10T18:49:01Z</time>
					</trkpt>
					<trkpt lat="45.882160" lon="4.648290">
						<ele>251</ele>
						<time>2024-10-10T18:49:25Z</time>
					</trkpt>
					<trkpt lat="45.882760" lon="4.648060">
						<ele>257</ele>
						<time>2024-10-10T18:49:36Z</time>
					</trkpt>
					<trkpt lat="45.884960" lon="4.647680">
						<ele>270</ele>
						<time>2024-10-10T18:50:16Z</time>
					</trkpt>
					<trkpt lat="45.885240" lon="4.647700">
						<ele>270</ele>
						<time>2024-10-10T18:50:20Z</time>
					</trkpt>
					<trkpt lat="45.885360" lon="4.647800">
						<ele>271</ele>
						<time>2024-10-10T18:50:23Z</time>
					</trkpt>
					<trkpt lat="45.885450" lon="4.647940">
						<ele>272</ele>
						<time>2024-10-10T18:50:25Z</time>
					</trkpt>
					<trkpt lat="45.885480" lon="4.648060">
						<ele>273</ele>
						<time>2024-10-10T18:50:27Z</time>
					</trkpt>
					<trkpt lat="45.885510" lon="4.648300">
						<ele>275</ele>
						<time>2024-10-10T18:50:30Z</time>
					</trkpt>
					<trkpt lat="45.885480" lon="4.648600">
						<ele>276</ele>
						<time>2024-10-10T18:50:34Z</time>
					</trkpt>
					<trkpt lat="45.885220" lon="4.650130">
						<ele>286</ele>
						<time>2024-10-10T18:50:53Z</time>
					</trkpt>
					<trkpt lat="45.885160" lon="4.650410">
						<ele>287</ele>
						<time>2024-10-10T18:50:57Z</time>
					</trkpt>
					<trkpt lat="45.885010" lon="4.650790">
						<ele>290</ele>
						<time>2024-10-10T18:51:02Z</time>
					</trkpt>
					<trkpt lat="45.884890" lon="4.651030">
						<ele>291</ele>
						<time>2024-10-10T18:51:06Z</time>
					</trkpt>
					<trkpt lat="45.884750" lon="4.651230">
						<ele>293</ele>
						<time>2024-10-10T18:51:09Z</time>
					</trkpt>
					<trkpt lat="45.883330" lon="4.652770">
						<ele>302</ele>
						<time>2024-10-10T18:51:41Z</time>
					</trkpt>
					<trkpt lat="45.883100" lon="4.653080">
						<ele>305</ele>
						<time>2024-10-10T18:51:47Z</time>
					</trkpt>
					<trkpt lat="45.882940" lon="4.653450">
						<ele>307</ele>
						<time>2024-10-10T18:51:52Z</time>
					</trkpt>
					<trkpt lat="45.881930" lon="4.656480">
						<ele>322</ele>
						<time>2024-10-10T18:52:34Z</time>
					</trkpt>
					<trkpt lat="45.881760" lon="4.656830">
						<ele>324</ele>
						<time>2024-10-10T18:52:39Z</time>
					</trkpt>
					<trkpt lat="45.881530" lon="4.657230">
						<ele>328</ele>
						<time>2024-10-10T18:52:45Z</time>
					</trkpt>
					<trkpt lat="45.881330" lon="4.657510">
						<ele>333</ele>
						<time>2024-10-10T18:52:50Z</time>
					</trkpt>
					<trkpt lat="45.881090" lon="4.657790">
						<ele>336</ele>
						<time>2024-10-10T18:52:56Z</time>
					</trkpt>
					<trkpt lat="45.880870" lon="4.657990">
						<ele>338</ele>
						<time>2024-10-10T18:53:00Z</time>
					</trkpt>
					<trkpt lat="45.880560" lon="4.658220">
						<ele>339</ele>
						<time>2024-10-10T18:53:07Z</time>
					</trkpt>
					<trkpt lat="45.880190" lon="4.658460">
						<ele>341</ele>
						<time>2024-10-10T18:53:14Z</time>
					</trkpt>
					<trkpt lat="45.879960" lon="4.658640">
						<ele>342</ele>
						<time>2024-10-10T18:53:19Z</time>
					</trkpt>
					<trkpt lat="45.879550" lon="4.659110">
						<ele>341</ele>
						<time>2024-10-10T18:53:28Z</time>
					</trkpt>
					<trkpt lat="45.879390" lon="4.659370">
						<ele>342</ele>
						<time>2024-10-10T18:53:32Z</time>
					</trkpt>
					<trkpt lat="45.879310" lon="4.659560">
						<ele>343</ele>
						<time>2024-10-10T18:53:35Z</time>
					</trkpt>
					<trkpt lat="45.879240" lon="4.660110">
						<ele>343</ele>
						<time>2024-10-10T18:53:42Z</time>
					</trkpt>
					<trkpt lat="45.879230" lon="4.661340">
						<ele>349</ele>
						<time>2024-10-10T18:53:57Z</time>
					</trkpt>
					<trkpt lat="45.879790" lon="4.661380">
						<ele>348</ele>
						<time>2024-10-10T18:54:07Z</time>
					</trkpt>
					<trkpt lat="45.880330" lon="4.661370">
						<ele>348</ele>
						<time>2024-10-10T18:54:17Z</time>
					</trkpt>
					<trkpt lat="45.881780" lon="4.661240">
						<ele>349</ele>
						<time>2024-10-10T18:54:43Z</time>
					</trkpt>
					<trkpt lat="45.882700" lon="4.661330">
						<ele>351</ele>
						<time>2024-10-10T18:54:59Z</time>
					</trkpt>
					<trkpt lat="45.884730" lon="4.661480">
						<ele>364</ele>
						<time>2024-10-10T18:55:35Z</time>
					</trkpt>
					<trkpt lat="45.884850" lon="4.661550">
						<ele>365</ele>
						<time>2024-10-10T18:55:37Z</time>
					</trkpt>
					<trkpt lat="45.885400" lon="4.662000">
						<ele>369</ele>
						<time>2024-10-10T18:55:49Z</time>
					</trkpt>
					<trkpt lat="45.885650" lon="4.662270">
						<ele>370</ele>
						<time>2024-10-10T18:55:54Z</time>
					</trkpt>
					<trkpt lat="45.885830" lon="4.662490">
						<ele>371</ele>
						<time>2024-10-10T18:55:58Z</time>
					</trkpt>
					<trkpt lat="45.886490" lon="4.663630">
						<ele>378</ele>
						<time>2024-10-10T18:56:17Z</time>
					</trkpt>
					<trkpt lat="45.886730" lon="4.663920">
						<ele>379</ele>
						<time>2024-10-10T18:56:22Z</time>
					</trkpt>
					<trkpt lat="45.887230" lon="4.664390">
						<ele>382</ele>
						<time>2024-10-10T18:56:33Z</time>
					</trkpt>
					<trkpt lat="45.887900" lon="4.665250">
						<ele>389</ele>
						<time>2024-10-10T18:56:49Z</time>
					</trkpt>
					<trkpt lat="45.887970" lon="4.665310">
						<ele>390</ele>
						<time>2024-10-10T18:56:50Z</time>
					</trkpt>
					<trkpt lat="45.888480" lon="4.665630">
						<ele>393</ele>
						<time>2024-10-10T18:57:00Z</time>
					</trkpt>
					<trkpt lat="45.888740" lon="4.665890">
						<ele>397</ele>
						<time>2024-10-10T18:57:06Z</time>
					</trkpt>
					<trkpt lat="45.888900" lon="4.666190">
						<ele>400</ele>
						<time>2024-10-10T18:57:11Z</time>
					</trkpt>
					<trkpt lat="45.889180" lon="4.666570">
						<ele>405</ele>
						<time>2024-10-10T18:57:18Z</time>
					</trkpt>
					<trkpt lat="45.889390" lon="4.666750">
						<ele>406</ele>
						<time>2024-10-10T18:57:22Z</time>
					</trkpt>
					<trkpt lat="45.889750" lon="4.666990">
						<ele>408</ele>
						<time>2024-10-10T18:57:29Z</time>
					</trkpt>
					<trkpt lat="45.890240" lon="4.667190">
						<ele>408</ele>
						<time>2024-10-10T18:57:38Z</time>
					</trkpt>
					<trkpt lat="45.890510" lon="4.667370">
						<ele>409</ele>
						<time>2024-10-10T18:57:43Z</time>
					</trkpt>
					<trkpt lat="45.890660" lon="4.667580">
						<ele>411</ele>
						<time>2024-10-10T18:57:47Z</time>
					</trkpt>
					<trkpt lat="45.890770" lon="4.667690">
						<ele>411</ele>
						<time>2024-10-10T18:57:49Z</time>
					</trkpt>
					<trkpt lat="45.891110" lon="4.667950">
						<ele>411</ele>
						<time>2024-10-10T18:57:56Z</time>
					</trkpt>
					<trkpt lat="45.891470" lon="4.668120">
						<ele>411</ele>
						<time>2024-10-10T18:58:03Z</time>
					</trkpt>
					<trkpt lat="45.891530" lon="4.668190">
						<ele>412</ele>
						<time>2024-10-10T18:58:04Z</time>
					</trkpt>
					<trkpt lat="45.891530" lon="4.668830">
						<ele>414</ele>
						<time>2024-10-10T18:58:12Z</time>
					</trkpt>
					<trkpt lat="45.891980" lon="4.670480">
						<ele>412</ele>
						<time>2024-10-10T18:58:34Z</time>
					</trkpt>
					<trkpt lat="45.892140" lon="4.670910">
						<ele>411</ele>
						<time>2024-10-10T18:58:40Z</time>
					</trkpt>
					<trkpt lat="45.892280" lon="4.671210">
						<ele>412</ele>
						<time>2024-10-10T18:58:45Z</time>
					</trkpt>
					<trkpt lat="45.892520" lon="4.671610">
						<ele>413</ele>
						<time>2024-10-10T18:58:51Z</time>
					</trkpt>
					<trkpt lat="45.892660" lon="4.671750">
						<ele>413</ele>
						<time>2024-10-10T18:58:54Z</time>
					</trkpt>
					<trkpt lat="45.892900" lon="4.671900">
						<ele>413</ele>
						<time>2024-10-10T18:58:59Z</time>
					</trkpt>
					<trkpt lat="45.893400" lon="4.672150">
						<ele>413</ele>
						<time>2024-10-10T18:59:08Z</time>
					</trkpt>
					<trkpt lat="45.893560" lon="4.672310">
						<ele>413</ele>
						<time>2024-10-10T18:59:12Z</time>
					</trkpt>
					<trkpt lat="45.893660" lon="4.672440">
						<ele>412</ele>
						<time>2024-10-10T18:59:14Z</time>
					</trkpt>
					<trkpt lat="45.893950" lon="4.673000">
						<ele>408</ele>
						<time>2024-10-10T18:59:23Z</time>
					</trkpt>
					<trkpt lat="45.894110" lon="4.673190">
						<ele>408</ele>
						<time>2024-10-10T18:59:27Z</time>
					</trkpt>
					<trkpt lat="45.894500" lon="4.673610">
						<ele>408</ele>
						<time>2024-10-10T18:59:35Z</time>
					</trkpt>
					<trkpt lat="45.894800" lon="4.673870">
						<ele>407</ele>
						<time>2024-10-10T18:59:42Z</time>
					</trkpt>
					<trkpt lat="45.895240" lon="4.674170">
						<ele>405</ele>
						<time>2024-10-10T18:59:50Z</time>
					</trkpt>
					<trkpt lat="45.895530" lon="4.674290">
						<ele>405</ele>
						<time>2024-10-10T18:59:56Z</time>
					</trkpt>
					<trkpt lat="45.897130" lon="4.674880">
						<ele>400</ele>
						<time>2024-10-10T19:00:25Z</time>
					</trkpt>
					<trkpt lat="45.897400" lon="4.674930">
						<ele>400</ele>
						<time>2024-10-10T19:00:30Z</time>
					</trkpt>
					<trkpt lat="45.897750" lon="4.674890">
						<ele>399</ele>
						<time>2024-10-10T19:00:36Z</time>
					</trkpt>
					<trkpt lat="45.897880" lon="4.674850">
						<ele>398</ele>
						<time>2024-10-10T19:00:38Z</time>
					</trkpt>
					<trkpt lat="45.897960" lon="4.674800">
						<ele>398</ele>
						<time>2024-10-10T19:00:40Z</time>
					</trkpt>
					<trkpt lat="45.898080" lon="4.674620">
						<ele>398</ele>
						<time>2024-10-10T19:00:43Z</time>
					</trkpt>
					<trkpt lat="45.898140" lon="4.674410">
						<ele>398</ele>
						<time>2024-10-10T19:00:46Z</time>
					</trkpt>
					<trkpt lat="45.898180" lon="4.674120">
						<ele>399</ele>
						<time>2024-10-10T19:00:50Z</time>
					</trkpt>
					<trkpt lat="45.898300" lon="4.673800">
						<ele>401</ele>
						<time>2024-10-10T19:00:54Z</time>
					</trkpt>
					<trkpt lat="45.898390" lon="4.673670">
						<ele>401</ele>
						<time>2024-10-10T19:00:56Z</time>
					</trkpt>
					<trkpt lat="45.898510" lon="4.673540">
						<ele>402</ele>
						<time>2024-10-10T19:00:59Z</time>
					</trkpt>
					<trkpt lat="45.898660" lon="4.673470">
						<ele>402</ele>
						<time>2024-10-10T19:01:02Z</time>
					</trkpt>
					<trkpt lat="45.898890" lon="4.673450">
						<ele>400</ele>
						<time>2024-10-10T19:01:06Z</time>
					</trkpt>
					<trkpt lat="45.899760" lon="4.673670">
						<ele>396</ele>
						<time>2024-10-10T19:01:22Z</time>
					</trkpt>
					<trkpt lat="45.899960" lon="4.673770">
						<ele>394</ele>
						<time>2024-10-10T19:01:25Z</time>
					</trkpt>
					<trkpt lat="45.900370" lon="4.674100">
						<ele>391</ele>
						<time>2024-10-10T19:01:34Z</time>
					</trkpt>
					<trkpt lat="45.900920" lon="4.674710">
						<ele>384</ele>
						<time>2024-10-10T19:01:46Z</time>
					</trkpt>
					<trkpt lat="45.901120" lon="4.674970">
						<ele>381</ele>
						<time>2024-10-10T19:01:51Z</time>
					</trkpt>
					<trkpt lat="45.901440" lon="4.675600">
						<ele>376</ele>
						<time>2024-10-10T19:02:01Z</time>
					</trkpt>
					<trkpt lat="45.901590" lon="4.675810">
						<ele>375</ele>
						<time>2024-10-10T19:02:04Z</time>
					</trkpt>
					<trkpt lat="45.902180" lon="4.676500">
						<ele>374</ele>
						<time>2024-10-10T19:02:18Z</time>
					</trkpt>
					<trkpt lat="45.902410" lon="4.676680">
						<ele>373</ele>
						<time>2024-10-10T19:02:22Z</time>
					</trkpt>
					<trkpt lat="45.903430" lon="4.677090">
						<ele>373</ele>
						<time>2024-10-10T19:02:41Z</time>
					</trkpt>
					<trkpt lat="45.905540" lon="4.677870">
						<ele>365</ele>
						<time>2024-10-10T19:03:20Z</time>
					</trkpt>
					<trkpt lat="45.905870" lon="4.677920">
						<ele>367</ele>
						<time>2024-10-10T19:03:26Z</time>
					</trkpt>
					<trkpt lat="45.906510" lon="4.677930">
						<ele>368</ele>
						<time>2024-10-10T19:03:37Z</time>
					</trkpt>
					<trkpt lat="45.906950" lon="4.678020">
						<ele>368</ele>
						<time>2024-10-10T19:03:45Z</time>
					</trkpt>
					<trkpt lat="45.909700" lon="4.679070">
						<ele>371</ele>
						<time>2024-10-10T19:04:36Z</time>
					</trkpt>
					<trkpt lat="45.910500" lon="4.679450">
						<ele>374</ele>
						<time>2024-10-10T19:04:51Z</time>
					</trkpt>
					<trkpt lat="45.911200" lon="4.679640">
						<ele>377</ele>
						<time>2024-10-10T19:05:04Z</time>
					</trkpt>
					<trkpt lat="45.911590" lon="4.679810">
						<ele>379</ele>
						<time>2024-10-10T19:05:11Z</time>
					</trkpt>
					<trkpt lat="45.911940" lon="4.680030">
						<ele>382</ele>
						<time>2024-10-10T19:05:18Z</time>
					</trkpt>
					<trkpt lat="45.912540" lon="4.680320">
						<ele>385</ele>
						<time>2024-10-10T19:05:29Z</time>
					</trkpt>
					<trkpt lat="45.913630" lon="4.680810">
						<ele>385</ele>
						<time>2024-10-10T19:05:49Z</time>
					</trkpt>
					<trkpt lat="45.913910" lon="4.680860">
						<ele>386</ele>
						<time>2024-10-10T19:05:54Z</time>
					</trkpt>
					<trkpt lat="45.914260" lon="4.680780">
						<ele>385</ele>
						<time>2024-10-10T19:06:01Z</time>
					</trkpt>
					<trkpt lat="45.914470" lon="4.680850">
						<ele>385</ele>
						<time>2024-10-10T19:06:04Z</time>
					</trkpt>
					<trkpt lat="45.915760" lon="4.681570">
						<ele>378</ele>
						<time>2024-10-10T19:06:29Z</time>
					</trkpt>
					<trkpt lat="45.916210" lon="4.681920">
						<ele>375</ele>
						<time>2024-10-10T19:06:38Z</time>
					</trkpt>
					<trkpt lat="45.917060" lon="4.682480">
						<ele>372</ele>
						<time>2024-10-10T19:06:55Z</time>
					</trkpt>
					<trkpt lat="45.918440" lon="4.682830">
						<ele>373</ele>
						<time>2024-10-10T19:07:20Z</time>
					</trkpt>
					<trkpt lat="45.919020" lon="4.682890">
						<ele>377</ele>
						<time>2024-10-10T19:07:30Z</time>
					</trkpt>
					<trkpt lat="45.920670" lon="4.683230">
						<ele>381</ele>
						<time>2024-10-10T19:08:00Z</time>
					</trkpt>
					<trkpt lat="45.921060" lon="4.683350">
						<ele>382</ele>
						<time>2024-10-10T19:08:07Z</time>
					</trkpt>
					<trkpt lat="45.921320" lon="4.683540">
						<ele>382</ele>
						<time>2024-10-10T19:08:12Z</time>
					</trkpt>
					<trkpt lat="45.921750" lon="4.684000">
						<ele>384</ele>
						<time>2024-10-10T19:08:22Z</time>
					</trkpt>
					<trkpt lat="45.921930" lon="4.684170">
						<ele>385</ele>
						<time>2024-10-10T19:08:25Z</time>
					</trkpt>
					<trkpt lat="45.922200" lon="4.684380">
						<ele>385</ele>
						<time>2024-10-10T19:08:31Z</time>
					</trkpt>
					<trkpt lat="45.923200" lon="4.685410">
						<ele>387</ele>
						<time>2024-10-10T19:08:53Z</time>
					</trkpt>
					<trkpt lat="45.923850" lon="4.685810">
						<ele>385</ele>
						<time>2024-10-10T19:09:05Z</time>
					</trkpt>
					<trkpt lat="45.923920" lon="4.685920">
						<ele>385</ele>
						<time>2024-10-10T19:09:07Z</time>
					</trkpt>
					<trkpt lat="45.924030" lon="4.685920">
						<ele>384</ele>
						<time>2024-10-10T19:09:09Z</time>
					</trkpt>
					<trkpt lat="45.924370" lon="4.686130">
						<ele>381</ele>
						<time>2024-10-10T19:09:16Z</time>
					</trkpt>
					<trkpt lat="45.925040" lon="4.686370">
						<ele>376</ele>
						<time>2024-10-10T19:09:28Z</time>
					</trkpt>
					<trkpt lat="45.925570" lon="4.686490">
						<ele>374</ele>
						<time>2024-10-10T19:09:37Z</time>
					</trkpt>
					<trkpt lat="45.925780" lon="4.686350">
						<ele>373</ele>
						<time>2024-10-10T19:09:42Z</time>
					</trkpt>
					<trkpt lat="45.926060" lon="4.686230">
						<ele>370</ele>
						<time>2024-10-10T19:09:47Z</time>
					</trkpt>
					<trkpt lat="45.926060" lon="4.686230">
						<ele>370</ele>
						<time>2024-10-10T19:09:47Z</time>
					</trkpt>
					<trkpt lat="45.927470" lon="4.685630">
						<ele>367</ele>
						<time>2024-10-10T19:10:13Z</time>
					</trkpt>
					<trkpt lat="45.930630" lon="4.686230">
						<ele>353</ele>
						<time>2024-10-10T19:11:10Z</time>
					</trkpt>
					<trkpt lat="45.931950" lon="4.686540">
						<ele>345</ele>
						<time>2024-10-10T19:11:33Z</time>
					</trkpt>
					<trkpt lat="45.932320" lon="4.686650">
						<ele>344</ele>
						<time>2024-10-10T19:11:40Z</time>
					</trkpt>
					<trkpt lat="45.934880" lon="4.687240">
						<ele>342</ele>
						<time>2024-10-10T19:12:26Z</time>
					</trkpt>
					<trkpt lat="45.935210" lon="4.687310">
						<ele>342</ele>
						<time>2024-10-10T19:12:32Z</time>
					</trkpt>
					<trkpt lat="45.937770" lon="4.688010">
						<ele>342</ele>
						<time>2024-10-10T19:13:19Z</time>
					</trkpt>
					<trkpt lat="45.939030" lon="4.688780">
						<ele>342</ele>
						<time>2024-10-10T19:13:43Z</time>
					</trkpt>
					<trkpt lat="45.939800" lon="4.689040">
						<ele>342</ele>
						<time>2024-10-10T19:13:57Z</time>
					</trkpt>
					<trkpt lat="45.940450" lon="4.689290">
						<ele>341</ele>
						<time>2024-10-10T19:14:09Z</time>
					</trkpt>
					<trkpt lat="45.940710" lon="4.689490">
						<ele>341</ele>
						<time>2024-10-10T19:14:14Z</time>
					</trkpt>
					<trkpt lat="45.940910" lon="4.689470">
						<ele>341</ele>
						<time>2024-10-10T19:14:18Z</time>
					</trkpt>
					<trkpt lat="45.942010" lon="4.689830">
						<ele>339</ele>
						<time>2024-10-10T19:14:38Z</time>
					</trkpt>
					<trkpt lat="45.942640" lon="4.689960">
						<ele>338</ele>
						<time>2024-10-10T19:14:49Z</time>
					</trkpt>
					<trkpt lat="45.943430" lon="4.690070">
						<ele>337</ele>
						<time>2024-10-10T19:15:03Z</time>
					</trkpt>
					<trkpt lat="45.944210" lon="4.690060">
						<ele>339</ele>
						<time>2024-10-10T19:15:17Z</time>
					</trkpt>
					<trkpt lat="45.944800" lon="4.687450">
						<ele>324</ele>
						<time>2024-10-10T19:15:51Z</time>
					</trkpt>
					<trkpt lat="45.944780" lon="4.687310">
						<ele>323</ele>
						<time>2024-10-10T19:15:53Z</time>
					</trkpt>
					<trkpt lat="45.944730" lon="4.687200">
						<ele>322</ele>
						<time>2024-10-10T19:15:55Z</time>
					</trkpt>
					<trkpt lat="45.944440" lon="4.687020">
						<ele>320</ele>
						<time>2024-10-10T19:16:00Z</time>
					</trkpt>
					<trkpt lat="45.944390" lon="4.686920">
						<ele>319</ele>
						<time>2024-10-10T19:16:02Z</time>
					</trkpt>
					<trkpt lat="45.944000" lon="4.685740">
						<ele>309</ele>
						<time>2024-10-10T19:16:18Z</time>
					</trkpt>
					<trkpt lat="45.943760" lon="4.685220">
						<ele>305</ele>
						<time>2024-10-10T19:16:26Z</time>
					</trkpt>
					<trkpt lat="45.943710" lon="4.685020">
						<ele>303</ele>
						<time>2024-10-10T19:16:28Z</time>
					</trkpt>
					<trkpt lat="45.943650" lon="4.684570">
						<ele>301</ele>
						<time>2024-10-10T19:16:34Z</time>
					</trkpt>
					<trkpt lat="45.943480" lon="4.683930">
						<ele>299</ele>
						<time>2024-10-10T19:16:42Z</time>
					</trkpt>
					<trkpt lat="45.943370" lon="4.683340">
						<ele>296</ele>
						<time>2024-10-10T19:16:50Z</time>
					</trkpt>
					<trkpt lat="45.943280" lon="4.682340">
						<ele>291</ele>
						<time>2024-10-10T19:17:02Z</time>
					</trkpt>
					<trkpt lat="45.943230" lon="4.682110">
						<ele>289</ele>
						<time>2024-10-10T19:17:05Z</time>
					</trkpt>
					<trkpt lat="45.943170" lon="4.681260">
						<ele>282</ele>
						<time>2024-10-10T19:17:16Z</time>
					</trkpt>
					<trkpt lat="45.943220" lon="4.681000">
						<ele>279</ele>
						<time>2024-10-10T19:17:19Z</time>
					</trkpt>
					<trkpt lat="45.943310" lon="4.680710">
						<ele>276</ele>
						<time>2024-10-10T19:17:23Z</time>
					</trkpt>
					<trkpt lat="45.943510" lon="4.680230">
						<ele>274</ele>
						<time>2024-10-10T19:17:30Z</time>
					</trkpt>
					<trkpt lat="45.943620" lon="4.679920">
						<ele>271</ele>
						<time>2024-10-10T19:17:35Z</time>
					</trkpt>
					<trkpt lat="45.943720" lon="4.679330">
						<ele>266</ele>
						<time>2024-10-10T19:17:42Z</time>
					</trkpt>
					<trkpt lat="45.943860" lon="4.679050">
						<ele>265</ele>
						<time>2024-10-10T19:17:46Z</time>
					</trkpt>
					<trkpt lat="45.944110" lon="4.678460">
						<ele>265</ele>
						<time>2024-10-10T19:17:55Z</time>
					</trkpt>
					<trkpt lat="45.944170" lon="4.678350">
						<ele>265</ele>
						<time>2024-10-10T19:17:57Z</time>
					</trkpt>
					<trkpt lat="45.944600" lon="4.677920">
						<ele>266</ele>
						<time>2024-10-10T19:18:06Z</time>
					</trkpt>
					<trkpt lat="45.944740" lon="4.677670">
						<ele>267</ele>
						<time>2024-10-10T19:18:10Z</time>
					</trkpt>
					<trkpt lat="45.944820" lon="4.677320">
						<ele>268</ele>
						<time>2024-10-10T19:18:14Z</time>
					</trkpt>
					<trkpt lat="45.944900" lon="4.677180">
						<ele>269</ele>
						<time>2024-10-10T19:18:17Z</time>
					</trkpt>
					<trkpt lat="45.945160" lon="4.677020">
						<ele>270</ele>
						<time>2024-10-10T19:18:22Z</time>
					</trkpt>
					<trkpt lat="45.945470" lon="4.676950">
						<ele>272</ele>
						<time>2024-10-10T19:18:27Z</time>
					</trkpt>
					<trkpt lat="45.945660" lon="4.676800">
						<ele>275</ele>
						<time>2024-10-10T19:18:31Z</time>
					</trkpt>
					<trkpt lat="45.946260" lon="4.675840">
						<ele>278</ele>
						<time>2024-10-10T19:18:47Z</time>
					</trkpt>
					<trkpt lat="45.946700" lon="4.675360">
						<ele>278</ele>
						<time>2024-10-10T19:18:57Z</time>
					</trkpt>
					<trkpt lat="45.946970" lon="4.675140">
						<ele>280</ele>
						<time>2024-10-10T19:19:02Z</time>
					</trkpt>
					<trkpt lat="45.947080" lon="4.674690">
						<ele>282</ele>
						<time>2024-10-10T19:19:08Z</time>
					</trkpt>
					<trkpt lat="45.947320" lon="4.673210">
						<ele>289</ele>
						<time>2024-10-10T19:19:27Z</time>
					</trkpt>
					<trkpt lat="45.947380" lon="4.673070">
						<ele>289</ele>
						<time>2024-10-10T19:19:29Z</time>
					</trkpt>
					<trkpt lat="45.947740" lon="4.672900">
						<ele>289</ele>
						<time>2024-10-10T19:19:36Z</time>
					</trkpt>
					<trkpt lat="45.947830" lon="4.672750">
						<ele>290</ele>
						<time>2024-10-10T19:19:38Z</time>
					</trkpt>
					<trkpt lat="45.948060" lon="4.671920">
						<ele>292</ele>
						<time>2024-10-10T19:19:49Z</time>
					</trkpt>
					<trkpt lat="45.949700" lon="4.672690">
						<ele>287</ele>
						<time>2024-10-10T19:20:20Z</time>
					</trkpt>
					<trkpt lat="45.950350" lon="4.673040">
						<ele>287</ele>
						<time>2024-10-10T19:20:32Z</time>
					</trkpt>
					<trkpt lat="45.950510" lon="4.672060">
						<ele>288</ele>
						<time>2024-10-10T19:20:45Z</time>
					</trkpt>
					<trkpt lat="45.950500" lon="4.671730">
						<ele>289</ele>
						<time>2024-10-10T19:20:49Z</time>
					</trkpt>
					<trkpt lat="45.950560" lon="4.671240">
						<ele>286</ele>
						<time>2024-10-10T19:20:55Z</time>
					</trkpt>
					<trkpt lat="45.950710" lon="4.670840">
						<ele>283</ele>
						<time>2024-10-10T19:21:01Z</time>
					</trkpt>
					<trkpt lat="45.951020" lon="4.670560">
						<ele>281</ele>
						<time>2024-10-10T19:21:07Z</time>
					</trkpt>
					<trkpt lat="45.951260" lon="4.670420">
						<ele>280</ele>
						<time>2024-10-10T19:21:12Z</time>
					</trkpt>
					<trkpt lat="45.951620" lon="4.670120">
						<ele>278</ele>
						<time>2024-10-10T19:21:19Z</time>
					</trkpt>
					<trkpt lat="45.952000" lon="4.669710">
						<ele>275</ele>
						<time>2024-10-10T19:21:28Z</time>
					</trkpt>
					<trkpt lat="45.952460" lon="4.669520">
						<ele>273</ele>
						<time>2024-10-10T19:21:36Z</time>
					</trkpt>
					<trkpt lat="45.952640" lon="4.669410">
						<ele>272</ele>
						<time>2024-10-10T19:21:40Z</time>
					</trkpt>
					<trkpt lat="45.953180" lon="4.668920">
						<ele>266</ele>
						<time>2024-10-10T19:21:51Z</time>
					</trkpt>
					<trkpt lat="45.953560" lon="4.668220">
						<ele>257</ele>
						<time>2024-10-10T19:22:02Z</time>
					</trkpt>
					<trkpt lat="45.953710" lon="4.667980">
						<ele>254</ele>
						<time>2024-10-10T19:22:06Z</time>
					</trkpt>
					<trkpt lat="45.953850" lon="4.667880">
						<ele>253</ele>
						<time>2024-10-10T19:22:09Z</time>
					</trkpt>
					<trkpt lat="45.954330" lon="4.667770">
						<ele>248</ele>
						<time>2024-10-10T19:22:18Z</time>
					</trkpt>
					<trkpt lat="45.954400" lon="4.667700">
						<ele>247</ele>
						<time>2024-10-10T19:22:19Z</time>
					</trkpt>
					<trkpt lat="45.954560" lon="4.667440">
						<ele>243</ele>
						<time>2024-10-10T19:22:23Z</time>
					</trkpt>
					<trkpt lat="45.954560" lon="4.667260">
						<ele>242</ele>
						<time>2024-10-10T19:22:26Z</time>
					</trkpt>
					<trkpt lat="45.954620" lon="4.667090">
						<ele>240</ele>
						<time>2024-10-10T19:22:28Z</time>
					</trkpt>
					<trkpt lat="45.954770" lon="4.666950">
						<ele>238</ele>
						<time>2024-10-10T19:22:31Z</time>
					</trkpt>
					<trkpt lat="45.954890" lon="4.666720">
						<ele>237</ele>
						<time>2024-10-10T19:22:35Z</time>
					</trkpt>
					<trkpt lat="45.954930" lon="4.666310">
						<ele>236</ele>
						<time>2024-10-10T19:22:40Z</time>
					</trkpt>
					<trkpt lat="45.955000" lon="4.665920">
						<ele>236</ele>
						<time>2024-10-10T19:22:45Z</time>
					</trkpt>
					<trkpt lat="45.955060" lon="4.665850">
						<ele>236</ele>
						<time>2024-10-10T19:22:46Z</time>
					</trkpt>
					<trkpt lat="45.955210" lon="4.665800">
						<ele>238</ele>
						<time>2024-10-10T19:22:49Z</time>
					</trkpt>
					<trkpt lat="45.956100" lon="4.665770">
						<ele>244</ele>
						<time>2024-10-10T19:23:05Z</time>
					</trkpt>
					<trkpt lat="45.956640" lon="4.665900">
						<ele>245</ele>
						<time>2024-10-10T19:23:14Z</time>
					</trkpt>
					<trkpt lat="45.956520" lon="4.665770">
						<ele>246</ele>
						<time>2024-10-10T19:23:17Z</time>
					</trkpt>
					<trkpt lat="45.955970" lon="4.665420">
						<ele>248</ele>
						<time>2024-10-10T19:23:28Z</time>
					</trkpt>
					<trkpt lat="45.955940" lon="4.665330">
						<ele>249</ele>
						<time>2024-10-10T19:23:29Z</time>
					</trkpt>
					<trkpt lat="45.955970" lon="4.665310">
						<ele>250</ele>
						<time>2024-10-10T19:23:30Z</time>
					</trkpt>
					<trkpt lat="45.956230" lon="4.665350">
						<ele>251</ele>
						<time>2024-10-10T19:23:34Z</time>
					</trkpt>
					<trkpt lat="45.957550" lon="4.665440">
						<ele>257</ele>
						<time>2024-10-10T19:23:58Z</time>
					</trkpt>
					<trkpt lat="45.957700" lon="4.665430">
						<ele>257</ele>
						<time>2024-10-10T19:24:00Z</time>
					</trkpt>
					<trkpt lat="45.957770" lon="4.665400">
						<ele>258</ele>
						<time>2024-10-10T19:24:02Z</time>
					</trkpt>
					<trkpt lat="45.957810" lon="4.665350">
						<ele>258</ele>
						<time>2024-10-10T19:24:03Z</time>
					</trkpt>
					<trkpt lat="45.957840" lon="4.665260">
						<ele>260</ele>
						<time>2024-10-10T19:24:04Z</time>
					</trkpt>
					<trkpt lat="45.957850" lon="4.665170">
						<ele>261</ele>
						<time>2024-10-10T19:24:05Z</time>
					</trkpt>
					<trkpt lat="45.957820" lon="4.665090">
						<ele>262</ele>
						<time>2024-10-10T19:24:06Z</time>
					</trkpt>
					<trkpt lat="45.957710" lon="4.664910">
						<ele>264</ele>
						<time>2024-10-10T19:24:09Z</time>
					</trkpt>
					<trkpt lat="45.957690" lon="4.664810">
						<ele>264</ele>
						<time>2024-10-10T19:24:10Z</time>
					</trkpt>
					<trkpt lat="45.957690" lon="4.664720">
						<ele>265</ele>
						<time>2024-10-10T19:24:12Z</time>
					</trkpt>
					<trkpt lat="45.957890" lon="4.663360">
						<ele>271</ele>
						<time>2024-10-10T19:24:29Z</time>
					</trkpt>
					<trkpt lat="45.957900" lon="4.662960">
						<ele>272</ele>
						<time>2024-10-10T19:24:34Z</time>
					</trkpt>
					<trkpt lat="45.957840" lon="4.660190">
						<ele>280</ele>
						<time>2024-10-10T19:25:08Z</time>
					</trkpt>
					<trkpt lat="45.958000" lon="4.659650">
						<ele>280</ele>
						<time>2024-10-10T19:25:15Z</time>
					</trkpt>
					<trkpt lat="45.958360" lon="4.658200">
						<ele>279</ele>
						<time>2024-10-10T19:25:34Z</time>
					</trkpt>
					<trkpt lat="45.958270" lon="4.657750">
						<ele>280</ele>
						<time>2024-10-10T19:25:40Z</time>
					</trkpt>
					<trkpt lat="45.958060" lon="4.656350">
						<ele>282</ele>
						<time>2024-10-10T19:25:58Z</time>
					</trkpt>
					<trkpt lat="45.957780" lon="4.654840">
						<ele>285</ele>
						<time>2024-10-10T19:26:17Z</time>
					</trkpt>
					<trkpt lat="45.957350" lon="4.653020">
						<ele>287</ele>
						<time>2024-10-10T19:26:41Z</time>
					</trkpt>
					<trkpt lat="45.957120" lon="4.651700">
						<ele>287</ele>
						<time>2024-10-10T19:26:58Z</time>
					</trkpt>
					<trkpt lat="45.957160" lon="4.651330">
						<ele>287</ele>
						<time>2024-10-10T19:27:02Z</time>
					</trkpt>
					<trkpt lat="45.957360" lon="4.650820">
						<ele>284</ele>
						<time>2024-10-10T19:27:10Z</time>
					</trkpt>
					<trkpt lat="45.957380" lon="4.650710">
						<ele>284</ele>
						<time>2024-10-10T19:27:11Z</time>
					</trkpt>
					<trkpt lat="45.957420" lon="4.649990">
						<ele>283</ele>
						<time>2024-10-10T19:27:20Z</time>
					</trkpt>
					<trkpt lat="45.957350" lon="4.649040">
						<ele>282</ele>
						<time>2024-10-10T19:27:32Z</time>
					</trkpt>
					<trkpt lat="45.957330" lon="4.648300">
						<ele>280</ele>
						<time>2024-10-10T19:27:41Z</time>
					</trkpt>
					<trkpt lat="45.957360" lon="4.648080">
						<ele>279</ele>
						<time>2024-10-10T19:27:44Z</time>
					</trkpt>
					<trkpt lat="45.957430" lon="4.647970">
						<ele>279</ele>
						<time>2024-10-10T19:27:46Z</time>
					</trkpt>
					<trkpt lat="45.957560" lon="4.647910">
						<ele>277</ele>
						<time>2024-10-10T19:27:48Z</time>
					</trkpt>
					<trkpt lat="45.957640" lon="4.647800">
						<ele>276</ele>
						<time>2024-10-10T19:27:50Z</time>
					</trkpt>
					<trkpt lat="45.957650" lon="4.647740">
						<ele>276</ele>
						<time>2024-10-10T19:27:51Z</time>
					</trkpt>
					<trkpt lat="45.957470" lon="4.646960">
						<ele>280</ele>
						<time>2024-10-10T19:28:01Z</time>
					</trkpt>
					<trkpt lat="45.957620" lon="4.646770">
						<ele>278</ele>
						<time>2024-10-10T19:28:04Z</time>
					</trkpt>
					<trkpt lat="45.958060" lon="4.646490">
						<ele>270</ele>
						<time>2024-10-10T19:28:13Z</time>
					</trkpt>
					<trkpt lat="45.958280" lon="4.645880">
						<ele>264</ele>
						<time>2024-10-10T19:28:22Z</time>
					</trkpt>
					<trkpt lat="45.958410" lon="4.645250">
						<ele>262</ele>
						<time>2024-10-10T19:28:30Z</time>
					</trkpt>
					<trkpt lat="45.958640" lon="4.644430">
						<ele>264</ele>
						<time>2024-10-10T19:28:41Z</time>
					</trkpt>
					<trkpt lat="45.958630" lon="4.643670">
						<ele>264</ele>
						<time>2024-10-10T19:28:50Z</time>
					</trkpt>
					<trkpt lat="45.958610" lon="4.643620">
						<ele>264</ele>
						<time>2024-10-10T19:28:51Z</time>
					</trkpt>
					<trkpt lat="45.958630" lon="4.643670">
						<ele>264</ele>
						<time>2024-10-10T19:28:51Z</time>
					</trkpt>
					<trkpt lat="45.959120" lon="4.642970">
						<ele>263</ele>
						<time>2024-10-10T19:29:04Z</time>
					</trkpt>
					<trkpt lat="45.959410" lon="4.642710">
						<ele>263</ele>
						<time>2024-10-10T19:29:10Z</time>
					</trkpt>
					<trkpt lat="45.959560" lon="4.642480">
						<ele>264</ele>
						<time>2024-10-10T19:29:14Z</time>
					</trkpt>
					<trkpt lat="45.959800" lon="4.642240">
						<ele>266</ele>
						<time>2024-10-10T19:29:19Z</time>
					</trkpt>
					<trkpt lat="45.960090" lon="4.641820">
						<ele>268</ele>
						<time>2024-10-10T19:29:26Z</time>
					</trkpt>
					<trkpt lat="45.960470" lon="4.641020">
						<ele>271</ele>
						<time>2024-10-10T19:29:38Z</time>
					</trkpt>
					<trkpt lat="45.960850" lon="4.640620">
						<ele>269</ele>
						<time>2024-10-10T19:29:47Z</time>
					</trkpt>
					<trkpt lat="45.961080" lon="4.640300">
						<ele>270</ele>
						<time>2024-10-10T19:29:52Z</time>
					</trkpt>
					<trkpt lat="45.961140" lon="4.640250">
						<ele>270</ele>
						<time>2024-10-10T19:29:54Z</time>
					</trkpt>
					<trkpt lat="45.961210" lon="4.640240">
						<ele>270</ele>
						<time>2024-10-10T19:29:55Z</time>
					</trkpt>
					<trkpt lat="45.961850" lon="4.638590">
						<ele>271</ele>
						<time>2024-10-10T19:30:18Z</time>
					</trkpt>
					<trkpt lat="45.962160" lon="4.637550">
						<ele>279</ele>
						<time>2024-10-10T19:30:32Z</time>
					</trkpt>
					<trkpt lat="45.962250" lon="4.637100">
						<ele>280</ele>
						<time>2024-10-10T19:30:38Z</time>
					</trkpt>
					<trkpt lat="45.962240" lon="4.636930">
						<ele>281</ele>
						<time>2024-10-10T19:30:40Z</time>
					</trkpt>
					<trkpt lat="45.962070" lon="4.637120">
						<ele>282</ele>
						<time>2024-10-10T19:30:44Z</time>
					</trkpt>
					<trkpt lat="45.962240" lon="4.636930">
						<ele>281</ele>
						<time>2024-10-10T19:30:48Z</time>
					</trkpt>
					<trkpt lat="45.962170" lon="4.635910">
						<ele>285</ele>
						<time>2024-10-10T19:31:00Z</time>
					</trkpt>
					<trkpt lat="45.962180" lon="4.635560">
						<ele>287</ele>
						<time>2024-10-10T19:31:05Z</time>
					</trkpt>
					<trkpt lat="45.962270" lon="4.635060">
						<ele>287</ele>
						<time>2024-10-10T19:31:11Z</time>
					</trkpt>
					<trkpt lat="45.962460" lon="4.634470">
						<ele>288</ele>
						<time>2024-10-10T19:31:19Z</time>
					</trkpt>
					<trkpt lat="45.965420" lon="4.625910">
						<ele>314</ele>
						<time>2024-10-10T19:33:17Z</time>
					</trkpt>
					<trkpt lat="45.965570" lon="4.625530">
						<ele>314</ele>
						<time>2024-10-10T19:33:23Z</time>
					</trkpt>
					<trkpt lat="45.965690" lon="4.625100">
						<ele>312</ele>
						<time>2024-10-10T19:33:29Z</time>
					</trkpt>
					<trkpt lat="45.965910" lon="4.623920">
						<ele>317</ele>
						<time>2024-10-10T19:33:44Z</time>
					</trkpt>
					<trkpt lat="45.965970" lon="4.623680">
						<ele>320</ele>
						<time>2024-10-10T19:33:47Z</time>
					</trkpt>
					<trkpt lat="45.966280" lon="4.622890">
						<ele>323</ele>
						<time>2024-10-10T19:33:58Z</time>
					</trkpt>
					<trkpt lat="45.966440" lon="4.622380">
						<ele>322</ele>
						<time>2024-10-10T19:34:05Z</time>
					</trkpt>
					<trkpt lat="45.966510" lon="4.621930">
						<ele>322</ele>
						<time>2024-10-10T19:34:11Z</time>
					</trkpt>
					<trkpt lat="45.966560" lon="4.621430">
						<ele>322</ele>
						<time>2024-10-10T19:34:17Z</time>
					</trkpt>
					<trkpt lat="45.966570" lon="4.621120">
						<ele>324</ele>
						<time>2024-10-10T19:34:21Z</time>
					</trkpt>
					<trkpt lat="45.966550" lon="4.620800">
						<ele>326</ele>
						<time>2024-10-10T19:34:25Z</time>
					</trkpt>
					<trkpt lat="45.966450" lon="4.620160">
						<ele>334</ele>
						<time>2024-10-10T19:34:33Z</time>
					</trkpt>
					<trkpt lat="45.966220" lon="4.618940">
						<ele>340</ele>
						<time>2024-10-10T19:34:48Z</time>
					</trkpt>
					<trkpt lat="45.965910" lon="4.617660">
						<ele>341</ele>
						<time>2024-10-10T19:35:05Z</time>
					</trkpt>
					<trkpt lat="45.965810" lon="4.617370">
						<ele>341</ele>
						<time>2024-10-10T19:35:09Z</time>
					</trkpt>
					<trkpt lat="45.965710" lon="4.617140">
						<ele>343</ele>
						<time>2024-10-10T19:35:13Z</time>
					</trkpt>
					<trkpt lat="45.965440" lon="4.616700">
						<ele>347</ele>
						<time>2024-10-10T19:35:20Z</time>
					</trkpt>
					<trkpt lat="45.964830" lon="4.615820">
						<ele>354</ele>
						<time>2024-10-10T19:35:35Z</time>
					</trkpt>
					<trkpt lat="45.964380" lon="4.615130">
						<ele>362</ele>
						<time>2024-10-10T19:35:47Z</time>
					</trkpt>
					<trkpt lat="45.963920" lon="4.614110">
						<ele>371</ele>
						<time>2024-10-10T19:36:02Z</time>
					</trkpt>
					<trkpt lat="45.963270" lon="4.612420">
						<ele>380</ele>
						<time>2024-10-10T19:36:26Z</time>
					</trkpt>
					<trkpt lat="45.963110" lon="4.611890">
						<ele>382</ele>
						<time>2024-10-10T19:36:33Z</time>
					</trkpt>
					<trkpt lat="45.963000" lon="4.611270">
						<ele>385</ele>
						<time>2024-10-10T19:36:41Z</time>
					</trkpt>
					<trkpt lat="45.962960" lon="4.610800">
						<ele>387</ele>
						<time>2024-10-10T19:36:47Z</time>
					</trkpt>
					<trkpt lat="45.962840" lon="4.607990">
						<ele>400</ele>
						<time>2024-10-10T19:37:22Z</time>
					</trkpt>
					<trkpt lat="45.962760" lon="4.606980">
						<ele>405</ele>
						<time>2024-10-10T19:37:34Z</time>
					</trkpt>
					<trkpt lat="45.962680" lon="4.606630">
						<ele>407</ele>
						<time>2024-10-10T19:37:39Z</time>
					</trkpt>
					<trkpt lat="45.962580" lon="4.606400">
						<ele>408</ele>
						<time>2024-10-10T19:37:42Z</time>
					</trkpt>
					<trkpt lat="45.962470" lon="4.606230">
						<ele>409</ele>
						<time>2024-10-10T19:37:45Z</time>
					</trkpt>
					<trkpt lat="45.962300" lon="4.606050">
						<ele>411</ele>
						<time>2024-10-10T19:37:49Z</time>
					</trkpt>
					<trkpt lat="45.962070" lon="4.605910">
						<ele>412</ele>
						<time>2024-10-10T19:37:53Z</time>
					</trkpt>
					<trkpt lat="45.961930" lon="4.605880">
						<ele>413</ele>
						<time>2024-10-10T19:37:56Z</time>
					</trkpt>
					<trkpt lat="45.961770" lon="4.605910">
						<ele>414</ele>
						<time>2024-10-10T19:37:58Z</time>
					</trkpt>
					<trkpt lat="45.961660" lon="4.605990">
						<ele>415</ele>
						<time>2024-10-10T19:38:01Z</time>
					</trkpt>
					<trkpt lat="45.961560" lon="4.606120">
						<ele>417</ele>
						<time>2024-10-10T19:38:03Z</time>
					</trkpt>
					<trkpt lat="45.961410" lon="4.606560">
						<ele>418</ele>
						<time>2024-10-10T19:38:09Z</time>
					</trkpt>
					<trkpt lat="45.961310" lon="4.606750">
						<ele>419</ele>
						<time>2024-10-10T19:38:12Z</time>
					</trkpt>
					<trkpt lat="45.961350" lon="4.607070">
						<ele>418</ele>
						<time>2024-10-10T19:38:16Z</time>
					</trkpt>
					<trkpt lat="45.961710" lon="4.608740">
						<ele>414</ele>
						<time>2024-10-10T19:38:38Z</time>
					</trkpt>
					<trkpt lat="45.961720" lon="4.609070">
						<ele>414</ele>
						<time>2024-10-10T19:38:42Z</time>
					</trkpt>
					<trkpt lat="45.961640" lon="4.609060">
						<ele>415</ele>
						<time>2024-10-10T19:38:43Z</time>
					</trkpt>
					<trkpt lat="45.961450" lon="4.609110">
						<ele>416</ele>
						<time>2024-10-10T19:38:47Z</time>
					</trkpt>
					<trkpt lat="45.961130" lon="4.609090">
						<ele>418</ele>
						<time>2024-10-10T19:38:52Z</time>
					</trkpt>
					<trkpt lat="45.960970" lon="4.609070">
						<ele>419</ele>
						<time>2024-10-10T19:38:55Z</time>
					</trkpt>
					<trkpt lat="45.960310" lon="4.608910">
						<ele>424</ele>
						<time>2024-10-10T19:39:07Z</time>
					</trkpt>
					<trkpt lat="45.960020" lon="4.608890">
						<ele>427</ele>
						<time>2024-10-10T19:39:12Z</time>
					</trkpt>
					<trkpt lat="45.959760" lon="4.608930">
						<ele>428</ele>
						<time>2024-10-10T19:39:17Z</time>
					</trkpt>
					<trkpt lat="45.959300" lon="4.609140">
						<ele>427</ele>
						<time>2024-10-10T19:39:26Z</time>
					</trkpt>
					<trkpt lat="45.958480" lon="4.609280">
						<ele>419</ele>
						<time>2024-10-10T19:39:40Z</time>
					</trkpt>
					<trkpt lat="45.957680" lon="4.609260">
						<ele>417</ele>
						<time>2024-10-10T19:39:54Z</time>
					</trkpt>
					<trkpt lat="45.957480" lon="4.609210">
						<ele>417</ele>
						<time>2024-10-10T19:39:58Z</time>
					</trkpt>
					<trkpt lat="45.956810" lon="4.609000">
						<ele>417</ele>
						<time>2024-10-10T19:40:10Z</time>
					</trkpt>
					<trkpt lat="45.956500" lon="4.608970">
						<ele>418</ele>
						<time>2024-10-10T19:40:16Z</time>
					</trkpt>
					<trkpt lat="45.956340" lon="4.608960">
						<ele>418</ele>
						<time>2024-10-10T19:40:19Z</time>
					</trkpt>
					<trkpt lat="45.956150" lon="4.609030">
						<ele>419</ele>
						<time>2024-10-10T19:40:22Z</time>
					</trkpt>
					<trkpt lat="45.956030" lon="4.609190">
						<ele>419</ele>
						<time>2024-10-10T19:40:25Z</time>
					</trkpt>
					<trkpt lat="45.955960" lon="4.609420">
						<ele>418</ele>
						<time>2024-10-10T19:40:28Z</time>
					</trkpt>
					<trkpt lat="45.955950" lon="4.609780">
						<ele>416</ele>
						<time>2024-10-10T19:40:33Z</time>
					</trkpt>
					<trkpt lat="45.955930" lon="4.609930">
						<ele>416</ele>
						<time>2024-10-10T19:40:35Z</time>
					</trkpt>
					<trkpt lat="45.955890" lon="4.610060">
						<ele>416</ele>
						<time>2024-10-10T19:40:36Z</time>
					</trkpt>
					<trkpt lat="45.955810" lon="4.610200">
						<ele>417</ele>
						<time>2024-10-10T19:40:39Z</time>
					</trkpt>
					<trkpt lat="45.955530" lon="4.610420">
						<ele>420</ele>
						<time>2024-10-10T19:40:44Z</time>
					</trkpt>
					<trkpt lat="45.955420" lon="4.610570">
						<ele>421</ele>
						<time>2024-10-10T19:40:47Z</time>
					</trkpt>
					<trkpt lat="45.955360" lon="4.610710">
						<ele>421</ele>
						<time>2024-10-10T19:40:49Z</time>
					</trkpt>
					<trkpt lat="45.955210" lon="4.611300">
						<ele>423</ele>
						<time>2024-10-10T19:40:57Z</time>
					</trkpt>
					<trkpt lat="45.955140" lon="4.612330">
						<ele>426</ele>
						<time>2024-10-10T19:41:10Z</time>
					</trkpt>
					<trkpt lat="45.955170" lon="4.612590">
						<ele>427</ele>
						<time>2024-10-10T19:41:13Z</time>
					</trkpt>
					<trkpt lat="45.955230" lon="4.612830">
						<ele>429</ele>
						<time>2024-10-10T19:41:16Z</time>
					</trkpt>
					<trkpt lat="45.955570" lon="4.613520">
						<ele>426</ele>
						<time>2024-10-10T19:41:26Z</time>
					</trkpt>
					<trkpt lat="45.955620" lon="4.613780">
						<ele>426</ele>
						<time>2024-10-10T19:41:30Z</time>
					</trkpt>
					<trkpt lat="45.955660" lon="4.614220">
						<ele>428</ele>
						<time>2024-10-10T19:41:35Z</time>
					</trkpt>
					<trkpt lat="45.955660" lon="4.614960">
						<ele>426</ele>
						<time>2024-10-10T19:41:44Z</time>
					</trkpt>
					<trkpt lat="45.955630" lon="4.615430">
						<ele>424</ele>
						<time>2024-10-10T19:41:50Z</time>
					</trkpt>
					<trkpt lat="45.955570" lon="4.615750">
						<ele>422</ele>
						<time>2024-10-10T19:41:54Z</time>
					</trkpt>
					<trkpt lat="45.955300" lon="4.616390">
						<ele>421</ele>
						<time>2024-10-10T19:42:04Z</time>
					</trkpt>
					<trkpt lat="45.955150" lon="4.616630">
						<ele>421</ele>
						<time>2024-10-10T19:42:08Z</time>
					</trkpt>
					<trkpt lat="45.955040" lon="4.616760">
						<ele>420</ele>
						<time>2024-10-10T19:42:10Z</time>
					</trkpt>
					<trkpt lat="45.954850" lon="4.616930">
						<ele>418</ele>
						<time>2024-10-10T19:42:14Z</time>
					</trkpt>
					<trkpt lat="45.954730" lon="4.616980">
						<ele>417</ele>
						<time>2024-10-10T19:42:16Z</time>
					</trkpt>
					<trkpt lat="45.954600" lon="4.617000">
						<ele>416</ele>
						<time>2024-10-10T19:42:19Z</time>
					</trkpt>
					<trkpt lat="45.953820" lon="4.616920">
						<ele>417</ele>
						<time>2024-10-10T19:42:33Z</time>
					</trkpt>
					<trkpt lat="45.953530" lon="4.616930">
						<ele>417</ele>
						<time>2024-10-10T19:42:38Z</time>
					</trkpt>
					<trkpt lat="45.953220" lon="4.616990">
						<ele>417</ele>
						<time>2024-10-10T19:42:43Z</time>
					</trkpt>
					<trkpt lat="45.953020" lon="4.617070">
						<ele>417</ele>
						<time>2024-10-10T19:42:47Z</time>
					</trkpt>
					<trkpt lat="45.952890" lon="4.617160">
						<ele>417</ele>
						<time>2024-10-10T19:42:50Z</time>
					</trkpt>
					<trkpt lat="45.952800" lon="4.617280">
						<ele>416</ele>
						<time>2024-10-10T19:42:52Z</time>
					</trkpt>
					<trkpt lat="45.952700" lon="4.617510">
						<ele>414</ele>
						<time>2024-10-10T19:42:55Z</time>
					</trkpt>
					<trkpt lat="45.952580" lon="4.617860">
						<ele>413</ele>
						<time>2024-10-10T19:43:00Z</time>
					</trkpt>
					<trkpt lat="45.952500" lon="4.618030">
						<ele>413</ele>
						<time>2024-10-10T19:43:02Z</time>
					</trkpt>
					<trkpt lat="45.951840" lon="4.619060">
						<ele>414</ele>
						<time>2024-10-10T19:43:20Z</time>
					</trkpt>
					<trkpt lat="45.951690" lon="4.619230">
						<ele>414</ele>
						<time>2024-10-10T19:43:23Z</time>
					</trkpt>
					<trkpt lat="45.950960" lon="4.619680">
						<ele>414</ele>
						<time>2024-10-10T19:43:37Z</time>
					</trkpt>
					<trkpt lat="45.950200" lon="4.620050">
						<ele>412</ele>
						<time>2024-10-10T19:43:52Z</time>
					</trkpt>
					<trkpt lat="45.949440" lon="4.620470">
						<ele>406</ele>
						<time>2024-10-10T19:44:06Z</time>
					</trkpt>
					<trkpt lat="45.949220" lon="4.620570">
						<ele>405</ele>
						<time>2024-10-10T19:44:10Z</time>
					</trkpt>
					<trkpt lat="45.949030" lon="4.620590">
						<ele>405</ele>
						<time>2024-10-10T19:44:14Z</time>
					</trkpt>
					<trkpt lat="45.948270" lon="4.620590">
						<ele>404</ele>
						<time>2024-10-10T19:44:27Z</time>
					</trkpt>
					<trkpt lat="45.948070" lon="4.620540">
						<ele>403</ele>
						<time>2024-10-10T19:44:31Z</time>
					</trkpt>
					<trkpt lat="45.947850" lon="4.620370">
						<ele>403</ele>
						<time>2024-10-10T19:44:35Z</time>
					</trkpt>
					<trkpt lat="45.947630" lon="4.620310">
						<ele>402</ele>
						<time>2024-10-10T19:44:39Z</time>
					</trkpt>
					<trkpt lat="45.947490" lon="4.620330">
						<ele>401</ele>
						<time>2024-10-10T19:44:42Z</time>
					</trkpt>
					<trkpt lat="45.946470" lon="4.620800">
						<ele>403</ele>
						<time>2024-10-10T19:45:01Z</time>
					</trkpt>
					<trkpt lat="45.946040" lon="4.621170">
						<ele>400</ele>
						<time>2024-10-10T19:45:10Z</time>
					</trkpt>
					<trkpt lat="45.945900" lon="4.621340">
						<ele>398</ele>
						<time>2024-10-10T19:45:13Z</time>
					</trkpt>
					<trkpt lat="45.945400" lon="4.622200">
						<ele>397</ele>
						<time>2024-10-10T19:45:27Z</time>
					</trkpt>
					<trkpt lat="45.945250" lon="4.622410">
						<ele>398</ele>
						<time>2024-10-10T19:45:30Z</time>
					</trkpt>
					<trkpt lat="45.944990" lon="4.622560">
						<ele>401</ele>
						<time>2024-10-10T19:45:35Z</time>
					</trkpt>
					<trkpt lat="45.945140" lon="4.622770">
						<ele>398</ele>
						<time>2024-10-10T19:45:39Z</time>
					</trkpt>
					<trkpt lat="45.944990" lon="4.622560">
						<ele>401</ele>
						<time>2024-10-10T19:45:43Z</time>
					</trkpt>
					<trkpt lat="45.944640" lon="4.622700">
						<ele>400</ele>
						<time>2024-10-10T19:45:49Z</time>
					</trkpt>
					<trkpt lat="45.944590" lon="4.622600">
						<ele>401</ele>
						<time>2024-10-10T19:45:51Z</time>
					</trkpt>
					<trkpt lat="45.944540" lon="4.622550">
						<ele>401</ele>
						<time>2024-10-10T19:45:52Z</time>
					</trkpt>
					<trkpt lat="45.944190" lon="4.622390">
						<ele>402</ele>
						<time>2024-10-10T19:45:58Z</time>
					</trkpt>
					<trkpt lat="45.943370" lon="4.621800">
						<ele>406</ele>
						<time>2024-10-10T19:46:15Z</time>
					</trkpt>
					<trkpt lat="45.942840" lon="4.621540">
						<ele>409</ele>
						<time>2024-10-10T19:46:25Z</time>
					</trkpt>
					<trkpt lat="45.941920" lon="4.620760">
						<ele>416</ele>
						<time>2024-10-10T19:46:44Z</time>
					</trkpt>
					<trkpt lat="45.941680" lon="4.620590">
						<ele>417</ele>
						<time>2024-10-10T19:46:49Z</time>
					</trkpt>
					<trkpt lat="45.940290" lon="4.619980">
						<ele>423</ele>
						<time>2024-10-10T19:47:14Z</time>
					</trkpt>
					<trkpt lat="45.940060" lon="4.619860">
						<ele>425</ele>
						<time>2024-10-10T19:47:19Z</time>
					</trkpt>
					<trkpt lat="45.939780" lon="4.619670">
						<ele>426</ele>
						<time>2024-10-10T19:47:24Z</time>
					</trkpt>
					<trkpt lat="45.939590" lon="4.619500">
						<ele>428</ele>
						<time>2024-10-10T19:47:28Z</time>
					</trkpt>
					<trkpt lat="45.939480" lon="4.619370">
						<ele>429</ele>
						<time>2024-10-10T19:47:31Z</time>
					</trkpt>
					<trkpt lat="45.939260" lon="4.618990">
						<ele>433</ele>
						<time>2024-10-10T19:47:37Z</time>
					</trkpt>
					<trkpt lat="45.939090" lon="4.618600">
						<ele>438</ele>
						<time>2024-10-10T19:47:43Z</time>
					</trkpt>
					<trkpt lat="45.939020" lon="4.618220">
						<ele>442</ele>
						<time>2024-10-10T19:47:47Z</time>
					</trkpt>
					<trkpt lat="45.939060" lon="4.618150">
						<ele>443</ele>
						<time>2024-10-10T19:47:49Z</time>
					</trkpt>
					<trkpt lat="45.939010" lon="4.618230">
						<ele>442</ele>
						<time>2024-10-10T19:47:50Z</time>
					</trkpt>
					<trkpt lat="45.939020" lon="4.618230">
						<ele>442</ele>
						<time>2024-10-10T19:47:50Z</time>
					</trkpt>
					<trkpt lat="45.939060" lon="4.618180">
						<ele>443</ele>
						<time>2024-10-10T19:47:51Z</time>
					</trkpt>
					<trkpt lat="45.939090" lon="4.617740">
						<ele>446</ele>
						<time>2024-10-10T19:47:56Z</time>
					</trkpt>
					<trkpt lat="45.939190" lon="4.617340">
						<ele>450</ele>
						<time>2024-10-10T19:48:02Z</time>
					</trkpt>
					<trkpt lat="45.939230" lon="4.617050">
						<ele>451</ele>
						<time>2024-10-10T19:48:05Z</time>
					</trkpt>
					<trkpt lat="45.939240" lon="4.616990">
						<ele>451</ele>
						<time>2024-10-10T19:48:06Z</time>
					</trkpt>
					<trkpt lat="45.939250" lon="4.616900">
						<ele>452</ele>
						<time>2024-10-10T19:48:07Z</time>
					</trkpt>
					<trkpt lat="45.939450" lon="4.616420">
						<ele>454</ele>
						<time>2024-10-10T19:48:14Z</time>
					</trkpt>
					<trkpt lat="45.939580" lon="4.616180">
						<ele>455</ele>
						<time>2024-10-10T19:48:18Z</time>
					</trkpt>
					<trkpt lat="45.939640" lon="4.616260">
						<ele>456</ele>
						<time>2024-10-10T19:48:19Z</time>
					</trkpt>
					<trkpt lat="45.939750" lon="4.616110">
						<ele>457</ele>
						<time>2024-10-10T19:48:22Z</time>
					</trkpt>
					<trkpt lat="45.939910" lon="4.615730">
						<ele>458</ele>
						<time>2024-10-10T19:48:28Z</time>
					</trkpt>
					<trkpt lat="45.939940" lon="4.615730">
						<ele>458</ele>
						<time>2024-10-10T19:48:28Z</time>
					</trkpt>
					<trkpt lat="45.939910" lon="4.615730">
						<ele>458</ele>
						<time>2024-10-10T19:48:29Z</time>
					</trkpt>
					<trkpt lat="45.939900" lon="4.615450">
						<ele>457</ele>
						<time>2024-10-10T19:48:32Z</time>
					</trkpt>
					<trkpt lat="45.939850" lon="4.614940">
						<ele>455</ele>
						<time>2024-10-10T19:48:39Z</time>
					</trkpt>
					<trkpt lat="45.939830" lon="4.614650">
						<ele>455</ele>
						<time>2024-10-10T19:48:42Z</time>
					</trkpt>
					<trkpt lat="45.939800" lon="4.614560">
						<ele>455</ele>
						<time>2024-10-10T19:48:43Z</time>
					</trkpt>
					<trkpt lat="45.939820" lon="4.614540">
						<ele>455</ele>
						<time>2024-10-10T19:48:44Z</time>
					</trkpt>
					<trkpt lat="45.939850" lon="4.614470">
						<ele>455</ele>
						<time>2024-10-10T19:48:45Z</time>
					</trkpt>
					<trkpt lat="45.939830" lon="4.614410">
						<ele>455</ele>
						<time>2024-10-10T19:48:46Z</time>
					</trkpt>
					<trkpt lat="45.939810" lon="4.614390">
						<ele>455</ele>
						<time>2024-10-10T19:48:46Z</time>
					</trkpt>
					<trkpt lat="45.939760" lon="4.614390">
						<ele>454</ele>
						<time>2024-10-10T19:48:47Z</time>
					</trkpt>
					<trkpt lat="45.939730" lon="4.614410">
						<ele>454</ele>
						<time>2024-10-10T19:48:48Z</time>
					</trkpt>
					<trkpt lat="45.939720" lon="4.614460">
						<ele>454</ele>
						<time>2024-10-10T19:48:48Z</time>
					</trkpt>
					<trkpt lat="45.939730" lon="4.614520">
						<ele>454</ele>
						<time>2024-10-10T19:48:49Z</time>
					</trkpt>
					<trkpt lat="45.939670" lon="4.614600">
						<ele>453</ele>
						<time>2024-10-10T19:48:50Z</time>
					</trkpt>
					<trkpt lat="45.939310" lon="4.615670">
						<ele>450</ele>
						<time>2024-10-10T19:49:05Z</time>
					</trkpt>
					<trkpt lat="45.939270" lon="4.615840">
						<ele>449</ele>
						<time>2024-10-10T19:49:07Z</time>
					</trkpt>
					<trkpt lat="45.939230" lon="4.615960">
						<ele>449</ele>
						<time>2024-10-10T19:49:09Z</time>
					</trkpt>
					<trkpt lat="45.939190" lon="4.615960">
						<ele>449</ele>
						<time>2024-10-10T19:49:10Z</time>
					</trkpt>
					<trkpt lat="45.939130" lon="4.615960">
						<ele>448</ele>
						<time>2024-10-10T19:49:11Z</time>
					</trkpt>
					<trkpt lat="45.939090" lon="4.615980">
						<ele>447</ele>
						<time>2024-10-10T19:49:12Z</time>
					</trkpt>
					<trkpt lat="45.938890" lon="4.616080">
						<ele>445</ele>
						<time>2024-10-10T19:49:15Z</time>
					</trkpt>
					<trkpt lat="45.938520" lon="4.616370">
						<ele>440</ele>
						<time>2024-10-10T19:49:23Z</time>
					</trkpt>
					<trkpt lat="45.938510" lon="4.616170">
						<ele>439</ele>
						<time>2024-10-10T19:49:25Z</time>
					</trkpt>
					<trkpt lat="45.938410" lon="4.615320">
						<ele>437</ele>
						<time>2024-10-10T19:49:36Z</time>
					</trkpt>
					<trkpt lat="45.938340" lon="4.614900">
						<ele>435</ele>
						<time>2024-10-10T19:49:41Z</time>
					</trkpt>
					<trkpt lat="45.938260" lon="4.614340">
						<ele>433</ele>
						<time>2024-10-10T19:49:48Z</time>
					</trkpt>
					<trkpt lat="45.938180" lon="4.614030">
						<ele>432</ele>
						<time>2024-10-10T19:49:52Z</time>
					</trkpt>
					<trkpt lat="45.938030" lon="4.613570">
						<ele>430</ele>
						<time>2024-10-10T19:49:59Z</time>
					</trkpt>
					<trkpt lat="45.937940" lon="4.613390">
						<ele>428</ele>
						<time>2024-10-10T19:50:01Z</time>
					</trkpt>
					<trkpt lat="45.937500" lon="4.612830">
						<ele>420</ele>
						<time>2024-10-10T19:50:12Z</time>
					</trkpt>
					<trkpt lat="45.937450" lon="4.612640">
						<ele>417</ele>
						<time>2024-10-10T19:50:14Z</time>
					</trkpt>
					<trkpt lat="45.937470" lon="4.612420">
						<ele>416</ele>
						<time>2024-10-10T19:50:17Z</time>
					</trkpt>
					<trkpt lat="45.937820" lon="4.611790">
						<ele>417</ele>
						<time>2024-10-10T19:50:27Z</time>
					</trkpt>
					<trkpt lat="45.937970" lon="4.611410">
						<ele>417</ele>
						<time>2024-10-10T19:50:33Z</time>
					</trkpt>
					<trkpt lat="45.938110" lon="4.610870">
						<ele>414</ele>
						<time>2024-10-10T19:50:40Z</time>
					</trkpt>
					<trkpt lat="45.938160" lon="4.610530">
						<ele>413</ele>
						<time>2024-10-10T19:50:44Z</time>
					</trkpt>
					<trkpt lat="45.938230" lon="4.609960">
						<ele>412</ele>
						<time>2024-10-10T19:50:51Z</time>
					</trkpt>
					<trkpt lat="45.938240" lon="4.609640">
						<ele>412</ele>
						<time>2024-10-10T19:50:55Z</time>
					</trkpt>
					<trkpt lat="45.938200" lon="4.609440">
						<ele>412</ele>
						<time>2024-10-10T19:50:58Z</time>
					</trkpt>
					<trkpt lat="45.938150" lon="4.609350">
						<ele>412</ele>
						<time>2024-10-10T19:50:59Z</time>
					</trkpt>
					<trkpt lat="45.938000" lon="4.609240">
						<ele>412</ele>
						<time>2024-10-10T19:51:02Z</time>
					</trkpt>
					<trkpt lat="45.937920" lon="4.609230">
						<ele>412</ele>
						<time>2024-10-10T19:51:04Z</time>
					</trkpt>
					<trkpt lat="45.937850" lon="4.609240">
						<ele>412</ele>
						<time>2024-10-10T19:51:05Z</time>
					</trkpt>
					<trkpt lat="45.937700" lon="4.609320">
						<ele>411</ele>
						<time>2024-10-10T19:51:08Z</time>
					</trkpt>
					<trkpt lat="45.936880" lon="4.610060">
						<ele>405</ele>
						<time>2024-10-10T19:51:25Z</time>
					</trkpt>
					<trkpt lat="45.936640" lon="4.610350">
						<ele>404</ele>
						<time>2024-10-10T19:51:30Z</time>
					</trkpt>
					<trkpt lat="45.936160" lon="4.611050">
						<ele>401</ele>
						<time>2024-10-10T19:51:43Z</time>
					</trkpt>
					<trkpt lat="45.935810" lon="4.611600">
						<ele>398</ele>
						<time>2024-10-10T19:51:52Z</time>
					</trkpt>
					<trkpt lat="45.935200" lon="4.612430">
						<ele>396</ele>
						<time>2024-10-10T19:52:07Z</time>
					</trkpt>
					<trkpt lat="45.934680" lon="4.613080">
						<ele>392</ele>
						<time>2024-10-10T19:52:19Z</time>
					</trkpt>
					<trkpt lat="45.934500" lon="4.613240">
						<ele>391</ele>
						<time>2024-10-10T19:52:23Z</time>
					</trkpt>
					<trkpt lat="45.934260" lon="4.613380">
						<ele>390</ele>
						<time>2024-10-10T19:52:27Z</time>
					</trkpt>
					<trkpt lat="45.933890" lon="4.613540">
						<ele>390</ele>
						<time>2024-10-10T19:52:34Z</time>
					</trkpt>
					<trkpt lat="45.933630" lon="4.613690">
						<ele>388</ele>
						<time>2024-10-10T19:52:39Z</time>
					</trkpt>
					<trkpt lat="45.933220" lon="4.614020">
						<ele>385</ele>
						<time>2024-10-10T19:52:48Z</time>
					</trkpt>
					<trkpt lat="45.932950" lon="4.614270">
						<ele>383</ele>
						<time>2024-10-10T19:52:53Z</time>
					</trkpt>
					<trkpt lat="45.932880" lon="4.614380">
						<ele>383</ele>
						<time>2024-10-10T19:52:55Z</time>
					</trkpt>
					<trkpt lat="45.932870" lon="4.614390">
						<ele>383</ele>
						<time>2024-10-10T19:52:55Z</time>
					</trkpt>
					<trkpt lat="45.932520" lon="4.614530">
						<ele>386</ele>
						<time>2024-10-10T19:53:02Z</time>
					</trkpt>
					<trkpt lat="45.931840" lon="4.614820">
						<ele>387</ele>
						<time>2024-10-10T19:53:15Z</time>
					</trkpt>
					<trkpt lat="45.931780" lon="4.614790">
						<ele>388</ele>
						<time>2024-10-10T19:53:16Z</time>
					</trkpt>
					<trkpt lat="45.931440" lon="4.614670">
						<ele>390</ele>
						<time>2024-10-10T19:53:22Z</time>
					</trkpt>
					<trkpt lat="45.931130" lon="4.614640">
						<ele>391</ele>
						<time>2024-10-10T19:53:27Z</time>
					</trkpt>
					<trkpt lat="45.930920" lon="4.614660">
						<ele>391</ele>
						<time>2024-10-10T19:53:31Z</time>
					</trkpt>
					<trkpt lat="45.930680" lon="4.614730">
						<ele>393</ele>
						<time>2024-10-10T19:53:35Z</time>
					</trkpt>
					<trkpt lat="45.930460" lon="4.614880">
						<ele>394</ele>
						<time>2024-10-10T19:53:40Z</time>
					</trkpt>
					<trkpt lat="45.929640" lon="4.615620">
						<ele>393</ele>
						<time>2024-10-10T19:53:57Z</time>
					</trkpt>
					<trkpt lat="45.929350" lon="4.615810">
						<ele>395</ele>
						<time>2024-10-10T19:54:03Z</time>
					</trkpt>
					<trkpt lat="45.928970" lon="4.615900">
						<ele>395</ele>
						<time>2024-10-10T19:54:10Z</time>
					</trkpt>
					<trkpt lat="45.928970" lon="4.615910">
						<ele>395</ele>
						<time>2024-10-10T19:54:10Z</time>
					</trkpt>
					<trkpt lat="45.928970" lon="4.615900">
						<ele>395</ele>
						<time>2024-10-10T19:54:10Z</time>
					</trkpt>
					<trkpt lat="45.928770" lon="4.615850">
						<ele>395</ele>
						<time>2024-10-10T19:54:13Z</time>
					</trkpt>
					<trkpt lat="45.928600" lon="4.615750">
						<ele>395</ele>
						<time>2024-10-10T19:54:17Z</time>
					</trkpt>
					<trkpt lat="45.928360" lon="4.615540">
						<ele>397</ele>
						<time>2024-10-10T19:54:22Z</time>
					</trkpt>
					<trkpt lat="45.927600" lon="4.614680">
						<ele>402</ele>
						<time>2024-10-10T19:54:39Z</time>
					</trkpt>
					<trkpt lat="45.927280" lon="4.614320">
						<ele>404</ele>
						<time>2024-10-10T19:54:46Z</time>
					</trkpt>
					<trkpt lat="45.926730" lon="4.613710">
						<ele>408</ele>
						<time>2024-10-10T19:54:58Z</time>
					</trkpt>
					<trkpt lat="45.926580" lon="4.613520">
						<ele>409</ele>
						<time>2024-10-10T19:55:02Z</time>
					</trkpt>
					<trkpt lat="45.925770" lon="4.611990">
						<ele>412</ele>
						<time>2024-10-10T19:55:26Z</time>
					</trkpt>
					<trkpt lat="45.925610" lon="4.611740">
						<ele>414</ele>
						<time>2024-10-10T19:55:30Z</time>
					</trkpt>
					<trkpt lat="45.925690" lon="4.611930">
						<ele>412</ele>
						<time>2024-10-10T19:55:33Z</time>
					</trkpt>
					<trkpt lat="45.925610" lon="4.611740">
						<ele>414</ele>
						<time>2024-10-10T19:55:36Z</time>
					</trkpt>
					<trkpt lat="45.925530" lon="4.611550">
						<ele>415</ele>
						<time>2024-10-10T19:55:38Z</time>
					</trkpt>
					<trkpt lat="45.925470" lon="4.611350">
						<ele>416</ele>
						<time>2024-10-10T19:55:41Z</time>
					</trkpt>
					<trkpt lat="45.925400" lon="4.611260">
						<ele>417</ele>
						<time>2024-10-10T19:55:43Z</time>
					</trkpt>
					<trkpt lat="45.925290" lon="4.611000">
						<ele>418</ele>
						<time>2024-10-10T19:55:46Z</time>
					</trkpt>
					<trkpt lat="45.925140" lon="4.610560">
						<ele>419</ele>
						<time>2024-10-10T19:55:52Z</time>
					</trkpt>
					<trkpt lat="45.925010" lon="4.610150">
						<ele>417</ele>
						<time>2024-10-10T19:55:58Z</time>
					</trkpt>
					<trkpt lat="45.924950" lon="4.610020">
						<ele>417</ele>
						<time>2024-10-10T19:56:00Z</time>
					</trkpt>
					<trkpt lat="45.924910" lon="4.609940">
						<ele>417</ele>
						<time>2024-10-10T19:56:01Z</time>
					</trkpt>
					<trkpt lat="45.924860" lon="4.609870">
						<ele>416</ele>
						<time>2024-10-10T19:56:02Z</time>
					</trkpt>
					<trkpt lat="45.924460" lon="4.609410">
						<ele>413</ele>
						<time>2024-10-10T19:56:12Z</time>
					</trkpt>
					<trkpt lat="45.924340" lon="4.609330">
						<ele>413</ele>
						<time>2024-10-10T19:56:14Z</time>
					</trkpt>
					<trkpt lat="45.923920" lon="4.609190">
						<ele>412</ele>
						<time>2024-10-10T19:56:22Z</time>
					</trkpt>
					<trkpt lat="45.923800" lon="4.609110">
						<ele>412</ele>
						<time>2024-10-10T19:56:24Z</time>
					</trkpt>
					<trkpt lat="45.923680" lon="4.609000">
						<ele>411</ele>
						<time>2024-10-10T19:56:26Z</time>
					</trkpt>
					<trkpt lat="45.923590" lon="4.608880">
						<ele>411</ele>
						<time>2024-10-10T19:56:29Z</time>
					</trkpt>
					<trkpt lat="45.923250" lon="4.608450">
						<ele>410</ele>
						<time>2024-10-10T19:56:37Z</time>
					</trkpt>
					<trkpt lat="45.923010" lon="4.608190">
						<ele>409</ele>
						<time>2024-10-10T19:56:42Z</time>
					</trkpt>
					<trkpt lat="45.922780" lon="4.607980">
						<ele>409</ele>
						<time>2024-10-10T19:56:47Z</time>
					</trkpt>
					<trkpt lat="45.922480" lon="4.607770">
						<ele>410</ele>
						<time>2024-10-10T19:56:53Z</time>
					</trkpt>
					<trkpt lat="45.922380" lon="4.607710">
						<ele>410</ele>
						<time>2024-10-10T19:56:55Z</time>
					</trkpt>
					<trkpt lat="45.922220" lon="4.607590">
						<ele>410</ele>
						<time>2024-10-10T19:56:58Z</time>
					</trkpt>
					<trkpt lat="45.921970" lon="4.607430">
						<ele>409</ele>
						<time>2024-10-10T19:57:03Z</time>
					</trkpt>
					<trkpt lat="45.921850" lon="4.607390">
						<ele>409</ele>
						<time>2024-10-10T19:57:05Z</time>
					</trkpt>
					<trkpt lat="45.921590" lon="4.607380">
						<ele>410</ele>
						<time>2024-10-10T19:57:10Z</time>
					</trkpt>
					<trkpt lat="45.921470" lon="4.607360">
						<ele>411</ele>
						<time>2024-10-10T19:57:12Z</time>
					</trkpt>
					<trkpt lat="45.920670" lon="4.607120">
						<ele>413</ele>
						<time>2024-10-10T19:57:26Z</time>
					</trkpt>
					<trkpt lat="45.919810" lon="4.606920">
						<ele>411</ele>
						<time>2024-10-10T19:57:42Z</time>
					</trkpt>
					<trkpt lat="45.919290" lon="4.606830">
						<ele>408</ele>
						<time>2024-10-10T19:57:51Z</time>
					</trkpt>
					<trkpt lat="45.919100" lon="4.606830">
						<ele>407</ele>
						<time>2024-10-10T19:57:55Z</time>
					</trkpt>
					<trkpt lat="45.918910" lon="4.606890">
						<ele>406</ele>
						<time>2024-10-10T19:57:58Z</time>
					</trkpt>
					<trkpt lat="45.918740" lon="4.606970">
						<ele>406</ele>
						<time>2024-10-10T19:58:01Z</time>
					</trkpt>
					<trkpt lat="45.918570" lon="4.607100">
						<ele>406</ele>
						<time>2024-10-10T19:58:05Z</time>
					</trkpt>
					<trkpt lat="45.918290" lon="4.607270">
						<ele>405</ele>
						<time>2024-10-10T19:58:10Z</time>
					</trkpt>
					<trkpt lat="45.918230" lon="4.607360">
						<ele>405</ele>
						<time>2024-10-10T19:58:12Z</time>
					</trkpt>
					<trkpt lat="45.917940" lon="4.607400">
						<ele>403</ele>
						<time>2024-10-10T19:58:17Z</time>
					</trkpt>
					<trkpt lat="45.917870" lon="4.607410">
						<ele>403</ele>
						<time>2024-10-10T19:58:18Z</time>
					</trkpt>
					<trkpt lat="45.917840" lon="4.607460">
						<ele>403</ele>
						<time>2024-10-10T19:58:19Z</time>
					</trkpt>
					<trkpt lat="45.917810" lon="4.607560">
						<ele>403</ele>
						<time>2024-10-10T19:58:20Z</time>
					</trkpt>
					<trkpt lat="45.917780" lon="4.607850">
						<ele>403</ele>
						<time>2024-10-10T19:58:24Z</time>
					</trkpt>
					<trkpt lat="45.917760" lon="4.607900">
						<ele>403</ele>
						<time>2024-10-10T19:58:25Z</time>
					</trkpt>
					<trkpt lat="45.917630" lon="4.607990">
						<ele>402</ele>
						<time>2024-10-10T19:58:27Z</time>
					</trkpt>
					<trkpt lat="45.917510" lon="4.608060">
						<ele>401</ele>
						<time>2024-10-10T19:58:29Z</time>
					</trkpt>
					<trkpt lat="45.917340" lon="4.608280">
						<ele>401</ele>
						<time>2024-10-10T19:58:33Z</time>
					</trkpt>
					<trkpt lat="45.917270" lon="4.608360">
						<ele>400</ele>
						<time>2024-10-10T19:58:35Z</time>
					</trkpt>
					<trkpt lat="45.917070" lon="4.608660">
						<ele>399</ele>
						<time>2024-10-10T19:58:40Z</time>
					</trkpt>
					<trkpt lat="45.916990" lon="4.608810">
						<ele>399</ele>
						<time>2024-10-10T19:58:43Z</time>
					</trkpt>
					<trkpt lat="45.916940" lon="4.608970">
						<ele>399</ele>
						<time>2024-10-10T19:58:45Z</time>
					</trkpt>
					<trkpt lat="45.916930" lon="4.609140">
						<ele>398</ele>
						<time>2024-10-10T19:58:47Z</time>
					</trkpt>
					<trkpt lat="45.916940" lon="4.609230">
						<ele>398</ele>
						<time>2024-10-10T19:58:48Z</time>
					</trkpt>
					<trkpt lat="45.916930" lon="4.609140">
						<ele>398</ele>
						<time>2024-10-10T19:58:49Z</time>
					</trkpt>
					<trkpt lat="45.916940" lon="4.608970">
						<ele>399</ele>
						<time>2024-10-10T19:58:51Z</time>
					</trkpt>
					<trkpt lat="45.916990" lon="4.608810">
						<ele>399</ele>
						<time>2024-10-10T19:58:53Z</time>
					</trkpt>
					<trkpt lat="45.917070" lon="4.608660">
						<ele>399</ele>
						<time>2024-10-10T19:58:56Z</time>
					</trkpt>
					<trkpt lat="45.917270" lon="4.608360">
						<ele>400</ele>
						<time>2024-10-10T19:59:01Z</time>
					</trkpt>
					<trkpt lat="45.917340" lon="4.608280">
						<ele>401</ele>
						<time>2024-10-10T19:59:02Z</time>
					</trkpt>
					<trkpt lat="45.917510" lon="4.608060">
						<ele>401</ele>
						<time>2024-10-10T19:59:07Z</time>
					</trkpt>
					<trkpt lat="45.917630" lon="4.607990">
						<ele>402</ele>
						<time>2024-10-10T19:59:09Z</time>
					</trkpt>
					<trkpt lat="45.917770" lon="4.607880">
						<ele>403</ele>
						<time>2024-10-10T19:59:12Z</time>
					</trkpt>
					<trkpt lat="45.917630" lon="4.607990">
						<ele>402</ele>
						<time>2024-10-10T19:59:15Z</time>
					</trkpt>
					<trkpt lat="45.917510" lon="4.608060">
						<ele>401</ele>
						<time>2024-10-10T19:59:17Z</time>
					</trkpt>
					<trkpt lat="45.917340" lon="4.608280">
						<ele>401</ele>
						<time>2024-10-10T19:59:21Z</time>
					</trkpt>
					<trkpt lat="45.917270" lon="4.608360">
						<ele>400</ele>
						<time>2024-10-10T19:59:22Z</time>
					</trkpt>
					<trkpt lat="45.917070" lon="4.608660">
						<ele>399</ele>
						<time>2024-10-10T19:59:28Z</time>
					</trkpt>
					<trkpt lat="45.916990" lon="4.608810">
						<ele>399</ele>
						<time>2024-10-10T19:59:30Z</time>
					</trkpt>
					<trkpt lat="45.916940" lon="4.608970">
						<ele>399</ele>
						<time>2024-10-10T19:59:32Z</time>
					</trkpt>
					<trkpt lat="45.916930" lon="4.609140">
						<ele>398</ele>
						<time>2024-10-10T19:59:34Z</time>
					</trkpt>
					<trkpt lat="45.916940" lon="4.609230">
						<ele>398</ele>
						<time>2024-10-10T19:59:35Z</time>
					</trkpt>
					<trkpt lat="45.916950" lon="4.609360">
						<ele>397</ele>
						<time>2024-10-10T19:59:37Z</time>
					</trkpt>
					<trkpt lat="45.916420" lon="4.609410">
						<ele>393</ele>
						<time>2024-10-10T19:59:46Z</time>
					</trkpt>
					<trkpt lat="45.915600" lon="4.609540">
						<ele>384</ele>
						<time>2024-10-10T20:00:01Z</time>
					</trkpt>
					<trkpt lat="45.915530" lon="4.609510">
						<ele>383</ele>
						<time>2024-10-10T20:00:02Z</time>
					</trkpt>
					<trkpt lat="45.915480" lon="4.609400">
						<ele>383</ele>
						<time>2024-10-10T20:00:04Z</time>
					</trkpt>
					<trkpt lat="45.915390" lon="4.608260">
						<ele>384</ele>
						<time>2024-10-10T20:00:18Z</time>
					</trkpt>
					<trkpt lat="45.915370" lon="4.608170">
						<ele>384</ele>
						<time>2024-10-10T20:00:19Z</time>
					</trkpt>
					<trkpt lat="45.915280" lon="4.608090">
						<ele>383</ele>
						<time>2024-10-10T20:00:21Z</time>
					</trkpt>
					<trkpt lat="45.913690" lon="4.607160">
						<ele>365</ele>
						<time>2024-10-10T20:00:52Z</time>
					</trkpt>
					<trkpt lat="45.913080" lon="4.606800">
						<ele>361</ele>
						<time>2024-10-10T20:01:04Z</time>
					</trkpt>
					<trkpt lat="45.912630" lon="4.606570">
						<ele>360</ele>
						<time>2024-10-10T20:01:12Z</time>
					</trkpt>
					<trkpt lat="45.912360" lon="4.606260">
						<ele>358</ele>
						<time>2024-10-10T20:01:18Z</time>
					</trkpt>
					<trkpt lat="45.912280" lon="4.606170">
						<ele>358</ele>
						<time>2024-10-10T20:01:20Z</time>
					</trkpt>
					<trkpt lat="45.912190" lon="4.606170">
						<ele>357</ele>
						<time>2024-10-10T20:01:22Z</time>
					</trkpt>
					<trkpt lat="45.912140" lon="4.606240">
						<ele>358</ele>
						<time>2024-10-10T20:01:23Z</time>
					</trkpt>
					<trkpt lat="45.911900" lon="4.605840">
						<ele>356</ele>
						<time>2024-10-10T20:01:29Z</time>
					</trkpt>
					<trkpt lat="45.911750" lon="4.605510">
						<ele>353</ele>
						<time>2024-10-10T20:01:34Z</time>
					</trkpt>
					<trkpt lat="45.911670" lon="4.605240">
						<ele>351</ele>
						<time>2024-10-10T20:01:38Z</time>
					</trkpt>
					<trkpt lat="45.911610" lon="4.604960">
						<ele>350</ele>
						<time>2024-10-10T20:01:42Z</time>
					</trkpt>
					<trkpt lat="45.911590" lon="4.604670">
						<ele>349</ele>
						<time>2024-10-10T20:01:45Z</time>
					</trkpt>
					<trkpt lat="45.911590" lon="4.603540">
						<ele>345</ele>
						<time>2024-10-10T20:01:59Z</time>
					</trkpt>
					<trkpt lat="45.911590" lon="4.603340">
						<ele>345</ele>
						<time>2024-10-10T20:02:02Z</time>
					</trkpt>
					<trkpt lat="45.911610" lon="4.602310">
						<ele>343</ele>
						<time>2024-10-10T20:02:14Z</time>
					</trkpt>
					<trkpt lat="45.911650" lon="4.602100">
						<ele>342</ele>
						<time>2024-10-10T20:02:17Z</time>
					</trkpt>
					<trkpt lat="45.911710" lon="4.601920">
						<ele>341</ele>
						<time>2024-10-10T20:02:20Z</time>
					</trkpt>
					<trkpt lat="45.911770" lon="4.601780">
						<ele>341</ele>
						<time>2024-10-10T20:02:22Z</time>
					</trkpt>
					<trkpt lat="45.913030" lon="4.599830">
						<ele>329</ele>
						<time>2024-10-10T20:02:55Z</time>
					</trkpt>
					<trkpt lat="45.913220" lon="4.599530">
						<ele>328</ele>
						<time>2024-10-10T20:03:00Z</time>
					</trkpt>
					<trkpt lat="45.913280" lon="4.599400">
						<ele>327</ele>
						<time>2024-10-10T20:03:01Z</time>
					</trkpt>
					<trkpt lat="45.913320" lon="4.599280">
						<ele>327</ele>
						<time>2024-10-10T20:03:03Z</time>
					</trkpt>
					<trkpt lat="45.913370" lon="4.598980">
						<ele>325</ele>
						<time>2024-10-10T20:03:07Z</time>
					</trkpt>
					<trkpt lat="45.913370" lon="4.598790">
						<ele>325</ele>
						<time>2024-10-10T20:03:09Z</time>
					</trkpt>
					<trkpt lat="45.913330" lon="4.598530">
						<ele>324</ele>
						<time>2024-10-10T20:03:13Z</time>
					</trkpt>
					<trkpt lat="45.913100" lon="4.597680">
						<ele>320</ele>
						<time>2024-10-10T20:03:24Z</time>
					</trkpt>
					<trkpt lat="45.912900" lon="4.596960">
						<ele>316</ele>
						<time>2024-10-10T20:03:33Z</time>
					</trkpt>
					<trkpt lat="45.912840" lon="4.596660">
						<ele>315</ele>
						<time>2024-10-10T20:03:37Z</time>
					</trkpt>
					<trkpt lat="45.912840" lon="4.596390">
						<ele>314</ele>
						<time>2024-10-10T20:03:41Z</time>
					</trkpt>
					<trkpt lat="45.912880" lon="4.596140">
						<ele>313</ele>
						<time>2024-10-10T20:03:44Z</time>
					</trkpt>
					<trkpt lat="45.912950" lon="4.595940">
						<ele>312</ele>
						<time>2024-10-10T20:03:47Z</time>
					</trkpt>
					<trkpt lat="45.913090" lon="4.595690">
						<ele>311</ele>
						<time>2024-10-10T20:03:51Z</time>
					</trkpt>
					<trkpt lat="45.913680" lon="4.594990">
						<ele>306</ele>
						<time>2024-10-10T20:04:04Z</time>
					</trkpt>
					<trkpt lat="45.913850" lon="4.595200">
						<ele>305</ele>
						<time>2024-10-10T20:04:08Z</time>
					</trkpt>
					<trkpt lat="45.913920" lon="4.595320">
						<ele>305</ele>
						<time>2024-10-10T20:04:10Z</time>
					</trkpt>
					<trkpt lat="45.913950" lon="4.595450">
						<ele>306</ele>
						<time>2024-10-10T20:04:12Z</time>
					</trkpt>
					<trkpt lat="45.913970" lon="4.595650">
						<ele>306</ele>
						<time>2024-10-10T20:04:14Z</time>
					</trkpt>
					<trkpt lat="45.914040" lon="4.595800">
						<ele>306</ele>
						<time>2024-10-10T20:04:17Z</time>
					</trkpt>
					<trkpt lat="45.914070" lon="4.595830">
						<ele>306</ele>
						<time>2024-10-10T20:04:17Z</time>
					</trkpt>
					<trkpt lat="45.914120" lon="4.595870">
						<ele>307</ele>
						<time>2024-10-10T20:04:18Z</time>
					</trkpt>
					<trkpt lat="45.914300" lon="4.595870">
						<ele>306</ele>
						<time>2024-10-10T20:04:21Z</time>
					</trkpt>
					<trkpt lat="45.914730" lon="4.595750">
						<ele>303</ele>
						<time>2024-10-10T20:04:29Z</time>
					</trkpt>
					<trkpt lat="45.915100" lon="4.595560">
						<ele>300</ele>
						<time>2024-10-10T20:04:36Z</time>
					</trkpt>
					<trkpt lat="45.915230" lon="4.595450">
						<ele>300</ele>
						<time>2024-10-10T20:04:39Z</time>
					</trkpt>
					<trkpt lat="45.915370" lon="4.595270">
						<ele>299</ele>
						<time>2024-10-10T20:04:42Z</time>
					</trkpt>
					<trkpt lat="45.915480" lon="4.594990">
						<ele>297</ele>
						<time>2024-10-10T20:04:46Z</time>
					</trkpt>
					<trkpt lat="45.915590" lon="4.594180">
						<ele>291</ele>
						<time>2024-10-10T20:04:56Z</time>
					</trkpt>
					<trkpt lat="45.915610" lon="4.594040">
						<ele>292</ele>
						<time>2024-10-10T20:04:58Z</time>
					</trkpt>
					<trkpt lat="45.915630" lon="4.593670">
						<ele>294</ele>
						<time>2024-10-10T20:05:03Z</time>
					</trkpt>
					<trkpt lat="45.915700" lon="4.593430">
						<ele>295</ele>
						<time>2024-10-10T20:05:06Z</time>
					</trkpt>
					<trkpt lat="45.915780" lon="4.593250">
						<ele>297</ele>
						<time>2024-10-10T20:05:09Z</time>
					</trkpt>
					<trkpt lat="45.915980" lon="4.592990">
						<ele>301</ele>
						<time>2024-10-10T20:05:13Z</time>
					</trkpt>
					<trkpt lat="45.916110" lon="4.592860">
						<ele>302</ele>
						<time>2024-10-10T20:05:16Z</time>
					</trkpt>
					<trkpt lat="45.916290" lon="4.592620">
						<ele>304</ele>
						<time>2024-10-10T20:05:21Z</time>
					</trkpt>
					<trkpt lat="45.916900" lon="4.591740">
						<ele>310</ele>
						<time>2024-10-10T20:05:36Z</time>
					</trkpt>
					<trkpt lat="45.917210" lon="4.591340">
						<ele>311</ele>
						<time>2024-10-10T20:05:43Z</time>
					</trkpt>
					<trkpt lat="45.917700" lon="4.590580">
						<ele>317</ele>
						<time>2024-10-10T20:05:56Z</time>
					</trkpt>
					<trkpt lat="45.917830" lon="4.590420">
						<ele>318</ele>
						<time>2024-10-10T20:05:59Z</time>
					</trkpt>
					<trkpt lat="45.918580" lon="4.589470">
						<ele>325</ele>
						<time>2024-10-10T20:06:17Z</time>
					</trkpt>
					<trkpt lat="45.918730" lon="4.589160">
						<ele>327</ele>
						<time>2024-10-10T20:06:22Z</time>
					</trkpt>
					<trkpt lat="45.918950" lon="4.588710">
						<ele>330</ele>
						<time>2024-10-10T20:06:29Z</time>
					</trkpt>
					<trkpt lat="45.919430" lon="4.587740">
						<ele>337</ele>
						<time>2024-10-10T20:06:43Z</time>
					</trkpt>
					<trkpt lat="45.919720" lon="4.587140">
						<ele>343</ele>
						<time>2024-10-10T20:06:52Z</time>
					</trkpt>
					<trkpt lat="45.919980" lon="4.586720">
						<ele>347</ele>
						<time>2024-10-10T20:06:59Z</time>
					</trkpt>
					<trkpt lat="45.920180" lon="4.586430">
						<ele>350</ele>
						<time>2024-10-10T20:07:04Z</time>
					</trkpt>
					<trkpt lat="45.920220" lon="4.586390">
						<ele>350</ele>
						<time>2024-10-10T20:07:05Z</time>
					</trkpt>
					<trkpt lat="45.920290" lon="4.586360">
						<ele>350</ele>
						<time>2024-10-10T20:07:07Z</time>
					</trkpt>
					<trkpt lat="45.920360" lon="4.586270">
						<ele>351</ele>
						<time>2024-10-10T20:07:08Z</time>
					</trkpt>
					<trkpt lat="45.920540" lon="4.585920">
						<ele>353</ele>
						<time>2024-10-10T20:07:14Z</time>
					</trkpt>
					<trkpt lat="45.920660" lon="4.585710">
						<ele>354</ele>
						<time>2024-10-10T20:07:17Z</time>
					</trkpt>
					<trkpt lat="45.920690" lon="4.585670">
						<ele>354</ele>
						<time>2024-10-10T20:07:18Z</time>
					</trkpt>
					<trkpt lat="45.920620" lon="4.585580">
						<ele>354</ele>
						<time>2024-10-10T20:07:19Z</time>
					</trkpt>
					<trkpt lat="45.920490" lon="4.585480">
						<ele>353</ele>
						<time>2024-10-10T20:07:22Z</time>
					</trkpt>
					<trkpt lat="45.920330" lon="4.585450">
						<ele>352</ele>
						<time>2024-10-10T20:07:25Z</time>
					</trkpt>
					<trkpt lat="45.920280" lon="4.585020">
						<ele>351</ele>
						<time>2024-10-10T20:07:30Z</time>
					</trkpt>
					<trkpt lat="45.920190" lon="4.584040">
						<ele>345</ele>
						<time>2024-10-10T20:07:43Z</time>
					</trkpt>
					<trkpt lat="45.920220" lon="4.584040">
						<ele>346</ele>
						<time>2024-10-10T20:07:43Z</time>
					</trkpt>
					<trkpt lat="45.920250" lon="4.583080">
						<ele>339</ele>
						<time>2024-10-10T20:07:55Z</time>
					</trkpt>
					<trkpt lat="45.920240" lon="4.582720">
						<ele>337</ele>
						<time>2024-10-10T20:07:59Z</time>
					</trkpt>
					<trkpt lat="45.920190" lon="4.582230">
						<ele>333</ele>
						<time>2024-10-10T20:08:06Z</time>
					</trkpt>
					<trkpt lat="45.920220" lon="4.582010">
						<ele>332</ele>
						<time>2024-10-10T20:08:08Z</time>
					</trkpt>
					<trkpt lat="45.920300" lon="4.581740">
						<ele>330</ele>
						<time>2024-10-10T20:08:12Z</time>
					</trkpt>
					<trkpt lat="45.920640" lon="4.581000">
						<ele>323</ele>
						<time>2024-10-10T20:08:23Z</time>
					</trkpt>
					<trkpt lat="45.920670" lon="4.581020">
						<ele>323</ele>
						<time>2024-10-10T20:08:24Z</time>
					</trkpt>
					<trkpt lat="45.920710" lon="4.581010">
						<ele>323</ele>
						<time>2024-10-10T20:08:24Z</time>
					</trkpt>
					<trkpt lat="45.920730" lon="4.580970">
						<ele>322</ele>
						<time>2024-10-10T20:08:25Z</time>
					</trkpt>
					<trkpt lat="45.920730" lon="4.580930">
						<ele>322</ele>
						<time>2024-10-10T20:08:25Z</time>
					</trkpt>
					<trkpt lat="45.920720" lon="4.580890">
						<ele>322</ele>
						<time>2024-10-10T20:08:26Z</time>
					</trkpt>
					<trkpt lat="45.920680" lon="4.580860">
						<ele>321</ele>
						<time>2024-10-10T20:08:27Z</time>
					</trkpt>
					<trkpt lat="45.920640" lon="4.580890">
						<ele>321</ele>
						<time>2024-10-10T20:08:27Z</time>
					</trkpt>
					<trkpt lat="45.920620" lon="4.580920">
						<ele>322</ele>
						<time>2024-10-10T20:08:28Z</time>
					</trkpt>
					<trkpt lat="45.920410" lon="4.580830">
						<ele>320</ele>
						<time>2024-10-10T20:08:32Z</time>
					</trkpt>
					<trkpt lat="45.919880" lon="4.580550">
						<ele>319</ele>
						<time>2024-10-10T20:08:42Z</time>
					</trkpt>
					<trkpt lat="45.919310" lon="4.580010">
						<ele>314</ele>
						<time>2024-10-10T20:08:54Z</time>
					</trkpt>
					<trkpt lat="45.919120" lon="4.579790">
						<ele>314</ele>
						<time>2024-10-10T20:08:58Z</time>
					</trkpt>
					<trkpt lat="45.918930" lon="4.579560">
						<ele>314</ele>
						<time>2024-10-10T20:09:03Z</time>
					</trkpt>
					<trkpt lat="45.918760" lon="4.579410">
						<ele>313</ele>
						<time>2024-10-10T20:09:06Z</time>
					</trkpt>
					<trkpt lat="45.918620" lon="4.579320">
						<ele>313</ele>
						<time>2024-10-10T20:09:09Z</time>
					</trkpt>
					<trkpt lat="45.918330" lon="4.579140">
						<ele>311</ele>
						<time>2024-10-10T20:09:15Z</time>
					</trkpt>
					<trkpt lat="45.918130" lon="4.578950">
						<ele>312</ele>
						<time>2024-10-10T20:09:19Z</time>
					</trkpt>
					<trkpt lat="45.917940" lon="4.578720">
						<ele>312</ele>
						<time>2024-10-10T20:09:23Z</time>
					</trkpt>
					<trkpt lat="45.917540" lon="4.578050">
						<ele>308</ele>
						<time>2024-10-10T20:09:34Z</time>
					</trkpt>
					<trkpt lat="45.917400" lon="4.577780">
						<ele>306</ele>
						<time>2024-10-10T20:09:39Z</time>
					</trkpt>
					<trkpt lat="45.917530" lon="4.577610">
						<ele>304</ele>
						<time>2024-10-10T20:09:42Z</time>
					</trkpt>
					<trkpt lat="45.917560" lon="4.577520">
						<ele>304</ele>
						<time>2024-10-10T20:09:43Z</time>
					</trkpt>
					<trkpt lat="45.917580" lon="4.577420">
						<ele>305</ele>
						<time>2024-10-10T20:09:44Z</time>
					</trkpt>
					<trkpt lat="45.917580" lon="4.577320">
						<ele>306</ele>
						<time>2024-10-10T20:09:45Z</time>
					</trkpt>
					<trkpt lat="45.917520" lon="4.577140">
						<ele>306</ele>
						<time>2024-10-10T20:09:48Z</time>
					</trkpt>
					<trkpt lat="45.917470" lon="4.577050">
						<ele>307</ele>
						<time>2024-10-10T20:09:49Z</time>
					</trkpt>
					<trkpt lat="45.917090" lon="4.576720">
						<ele>304</ele>
						<time>2024-10-10T20:09:57Z</time>
					</trkpt>
					<trkpt lat="45.917040" lon="4.576650">
						<ele>303</ele>
						<time>2024-10-10T20:09:58Z</time>
					</trkpt>
					<trkpt lat="45.916960" lon="4.576420">
						<ele>302</ele>
						<time>2024-10-10T20:10:02Z</time>
					</trkpt>
					<trkpt lat="45.916850" lon="4.575940">
						<ele>299</ele>
						<time>2024-10-10T20:10:08Z</time>
					</trkpt>
					<trkpt lat="45.916730" lon="4.575670">
						<ele>298</ele>
						<time>2024-10-10T20:10:12Z</time>
					</trkpt>
					<trkpt lat="45.916450" lon="4.575200">
						<ele>298</ele>
						<time>2024-10-10T20:10:19Z</time>
					</trkpt>
					<trkpt lat="45.916300" lon="4.575020">
						<ele>296</ele>
						<time>2024-10-10T20:10:23Z</time>
					</trkpt>
					<trkpt lat="45.916020" lon="4.574770">
						<ele>292</ele>
						<time>2024-10-10T20:10:29Z</time>
					</trkpt>
					<trkpt lat="45.915960" lon="4.574690">
						<ele>291</ele>
						<time>2024-10-10T20:10:30Z</time>
					</trkpt>
					<trkpt lat="45.915910" lon="4.574600">
						<ele>291</ele>
						<time>2024-10-10T20:10:32Z</time>
					</trkpt>
					<trkpt lat="45.915670" lon="4.574010">
						<ele>290</ele>
						<time>2024-10-10T20:10:40Z</time>
					</trkpt>
					<trkpt lat="45.915580" lon="4.573840">
						<ele>290</ele>
						<time>2024-10-10T20:10:43Z</time>
					</trkpt>
					<trkpt lat="45.915340" lon="4.573510">
						<ele>287</ele>
						<time>2024-10-10T20:10:49Z</time>
					</trkpt>
					<trkpt lat="45.915190" lon="4.573370">
						<ele>285</ele>
						<time>2024-10-10T20:10:52Z</time>
					</trkpt>
					<trkpt lat="45.914890" lon="4.573130">
						<ele>280</ele>
						<time>2024-10-10T20:10:58Z</time>
					</trkpt>
					<trkpt lat="45.914810" lon="4.573050">
						<ele>279</ele>
						<time>2024-10-10T20:11:00Z</time>
					</trkpt>
					<trkpt lat="45.914760" lon="4.572950">
						<ele>278</ele>
						<time>2024-10-10T20:11:01Z</time>
					</trkpt>
					<trkpt lat="45.914700" lon="4.572700">
						<ele>278</ele>
						<time>2024-10-10T20:11:05Z</time>
					</trkpt>
					<trkpt lat="45.914720" lon="4.572430">
						<ele>277</ele>
						<time>2024-10-10T20:11:08Z</time>
					</trkpt>
					<trkpt lat="45.914760" lon="4.572340">
						<ele>276</ele>
						<time>2024-10-10T20:11:09Z</time>
					</trkpt>
					<trkpt lat="45.914870" lon="4.572200">
						<ele>275</ele>
						<time>2024-10-10T20:11:12Z</time>
					</trkpt>
					<trkpt lat="45.914930" lon="4.572160">
						<ele>276</ele>
						<time>2024-10-10T20:11:13Z</time>
					</trkpt>
					<trkpt lat="45.915330" lon="4.572070">
						<ele>278</ele>
						<time>2024-10-10T20:11:20Z</time>
					</trkpt>
					<trkpt lat="45.915510" lon="4.571980">
						<ele>277</ele>
						<time>2024-10-10T20:11:24Z</time>
					</trkpt>
					<trkpt lat="45.916240" lon="4.571450">
						<ele>272</ele>
						<time>2024-10-10T20:11:38Z</time>
					</trkpt>
					<trkpt lat="45.916610" lon="4.571080">
						<ele>269</ele>
						<time>2024-10-10T20:11:46Z</time>
					</trkpt>
					<trkpt lat="45.916840" lon="4.570920">
						<ele>267</ele>
						<time>2024-10-10T20:11:51Z</time>
					</trkpt>
					<trkpt lat="45.917070" lon="4.570790">
						<ele>266</ele>
						<time>2024-10-10T20:11:55Z</time>
					</trkpt>
					<trkpt lat="45.917580" lon="4.570580">
						<ele>264</ele>
						<time>2024-10-10T20:12:05Z</time>
					</trkpt>
					<trkpt lat="45.917680" lon="4.570510">
						<ele>264</ele>
						<time>2024-10-10T20:12:07Z</time>
					</trkpt>
					<trkpt lat="45.918290" lon="4.569920">
						<ele>261</ele>
						<time>2024-10-10T20:12:20Z</time>
					</trkpt>
					<trkpt lat="45.918540" lon="4.569610">
						<ele>260</ele>
						<time>2024-10-10T20:12:26Z</time>
					</trkpt>
					<trkpt lat="45.918600" lon="4.569420">
						<ele>258</ele>
						<time>2024-10-10T20:12:28Z</time>
					</trkpt>
					<trkpt lat="45.918600" lon="4.569350">
						<ele>258</ele>
						<time>2024-10-10T20:12:29Z</time>
					</trkpt>
					<trkpt lat="45.919140" lon="4.568770">
						<ele>258</ele>
						<time>2024-10-10T20:12:41Z</time>
					</trkpt>
					<trkpt lat="45.920810" lon="4.566760">
						<ele>256</ele>
						<time>2024-10-10T20:13:20Z</time>
					</trkpt>
					<trkpt lat="45.920530" lon="4.566230">
						<ele>253</ele>
						<time>2024-10-10T20:13:28Z</time>
					</trkpt>
					<trkpt lat="45.920450" lon="4.565950">
						<ele>251</ele>
						<time>2024-10-10T20:13:32Z</time>
					</trkpt>
					<trkpt lat="45.920360" lon="4.565380">
						<ele>250</ele>
						<time>2024-10-10T20:13:39Z</time>
					</trkpt>
					<trkpt lat="45.920340" lon="4.564750">
						<ele>251</ele>
						<time>2024-10-10T20:13:47Z</time>
					</trkpt>
					<trkpt lat="45.920430" lon="4.563740">
						<ele>253</ele>
						<time>2024-10-10T20:13:59Z</time>
					</trkpt>
					<trkpt lat="45.920520" lon="4.562200">
						<ele>256</ele>
						<time>2024-10-10T20:14:18Z</time>
					</trkpt>
					<trkpt lat="45.920570" lon="4.561850">
						<ele>258</ele>
						<time>2024-10-10T20:14:23Z</time>
					</trkpt>
					<trkpt lat="45.920640" lon="4.561600">
						<ele>260</ele>
						<time>2024-10-10T20:14:26Z</time>
					</trkpt>
					<trkpt lat="45.920780" lon="4.561240">
						<ele>261</ele>
						<time>2024-10-10T20:14:31Z</time>
					</trkpt>
					<trkpt lat="45.920860" lon="4.560870">
						<ele>264</ele>
						<time>2024-10-10T20:14:36Z</time>
					</trkpt>
					<trkpt lat="45.920820" lon="4.560030">
						<ele>269</ele>
						<time>2024-10-10T20:14:47Z</time>
					</trkpt>
					<trkpt lat="45.920790" lon="4.559780">
						<ele>271</ele>
						<time>2024-10-10T20:14:50Z</time>
					</trkpt>
					<trkpt lat="45.920740" lon="4.559550">
						<ele>274</ele>
						<time>2024-10-10T20:14:53Z</time>
					</trkpt>
					<trkpt lat="45.920670" lon="4.559370">
						<ele>276</ele>
						<time>2024-10-10T20:14:55Z</time>
					</trkpt>
					<trkpt lat="45.920610" lon="4.559260">
						<ele>277</ele>
						<time>2024-10-10T20:14:57Z</time>
					</trkpt>
					<trkpt lat="45.920520" lon="4.559150">
						<ele>277</ele>
						<time>2024-10-10T20:14:59Z</time>
					</trkpt>
					<trkpt lat="45.920190" lon="4.558810">
						<ele>279</ele>
						<time>2024-10-10T20:15:06Z</time>
					</trkpt>
					<trkpt lat="45.920130" lon="4.558700">
						<ele>280</ele>
						<time>2024-10-10T20:15:08Z</time>
					</trkpt>
					<trkpt lat="45.920090" lon="4.558600">
						<ele>280</ele>
						<time>2024-10-10T20:15:09Z</time>
					</trkpt>
					<trkpt lat="45.920080" lon="4.558440">
						<ele>282</ele>
						<time>2024-10-10T20:15:11Z</time>
					</trkpt>
					<trkpt lat="45.920130" lon="4.557920">
						<ele>284</ele>
						<time>2024-10-10T20:15:18Z</time>
					</trkpt>
					<trkpt lat="45.920230" lon="4.557360">
						<ele>286</ele>
						<time>2024-10-10T20:15:25Z</time>
					</trkpt>
					<trkpt lat="45.920260" lon="4.556750">
						<ele>288</ele>
						<time>2024-10-10T20:15:33Z</time>
					</trkpt>
					<trkpt lat="45.920230" lon="4.556210">
						<ele>289</ele>
						<time>2024-10-10T20:15:39Z</time>
					</trkpt>
					<trkpt lat="45.920160" lon="4.555750">
						<ele>290</ele>
						<time>2024-10-10T20:15:45Z</time>
					</trkpt>
					<trkpt lat="45.920170" lon="4.555170">
						<ele>293</ele>
						<time>2024-10-10T20:15:52Z</time>
					</trkpt>
					<trkpt lat="45.920070" lon="4.554540">
						<ele>296</ele>
						<time>2024-10-10T20:16:00Z</time>
					</trkpt>
					<trkpt lat="45.919920" lon="4.553050">
						<ele>306</ele>
						<time>2024-10-10T20:16:19Z</time>
					</trkpt>
					<trkpt lat="45.919970" lon="4.552290">
						<ele>308</ele>
						<time>2024-10-10T20:16:28Z</time>
					</trkpt>
					<trkpt lat="45.919960" lon="4.551920">
						<ele>309</ele>
						<time>2024-10-10T20:16:33Z</time>
					</trkpt>
					<trkpt lat="45.919880" lon="4.551310">
						<ele>313</ele>
						<time>2024-10-10T20:16:41Z</time>
					</trkpt>
					<trkpt lat="45.919820" lon="4.551120">
						<ele>314</ele>
						<time>2024-10-10T20:16:43Z</time>
					</trkpt>
					<trkpt lat="45.919660" lon="4.550770">
						<ele>314</ele>
						<time>2024-10-10T20:16:48Z</time>
					</trkpt>
					<trkpt lat="45.919630" lon="4.550440">
						<ele>315</ele>
						<time>2024-10-10T20:16:53Z</time>
					</trkpt>
					<trkpt lat="45.919660" lon="4.549620">
						<ele>315</ele>
						<time>2024-10-10T20:17:03Z</time>
					</trkpt>
					<trkpt lat="45.919710" lon="4.549210">
						<ele>315</ele>
						<time>2024-10-10T20:17:08Z</time>
					</trkpt>
					<trkpt lat="45.919750" lon="4.549050">
						<ele>316</ele>
						<time>2024-10-10T20:17:10Z</time>
					</trkpt>
					<trkpt lat="45.920120" lon="4.548300">
						<ele>318</ele>
						<time>2024-10-10T20:17:21Z</time>
					</trkpt>
					<trkpt lat="45.920320" lon="4.547620">
						<ele>321</ele>
						<time>2024-10-10T20:17:31Z</time>
					</trkpt>
					<trkpt lat="45.920490" lon="4.547280">
						<ele>323</ele>
						<time>2024-10-10T20:17:36Z</time>
					</trkpt>
					<trkpt lat="45.920700" lon="4.546960">
						<ele>324</ele>
						<time>2024-10-10T20:17:41Z</time>
					</trkpt>
					<trkpt lat="45.920910" lon="4.546570">
						<ele>325</ele>
						<time>2024-10-10T20:17:47Z</time>
					</trkpt>
					<trkpt lat="45.921360" lon="4.545630">
						<ele>328</ele>
						<time>2024-10-10T20:18:01Z</time>
					</trkpt>
					<trkpt lat="45.921500" lon="4.545460">
						<ele>329</ele>
						<time>2024-10-10T20:18:05Z</time>
					</trkpt>
					<trkpt lat="45.921710" lon="4.545280">
						<ele>331</ele>
						<time>2024-10-10T20:18:09Z</time>
					</trkpt>
					<trkpt lat="45.921810" lon="4.545130">
						<ele>332</ele>
						<time>2024-10-10T20:18:12Z</time>
					</trkpt>
					<trkpt lat="45.921880" lon="4.544910">
						<ele>333</ele>
						<time>2024-10-10T20:18:15Z</time>
					</trkpt>
					<trkpt lat="45.921990" lon="4.544260">
						<ele>334</ele>
						<time>2024-10-10T20:18:23Z</time>
					</trkpt>
					<trkpt lat="45.922120" lon="4.543850">
						<ele>334</ele>
						<time>2024-10-10T20:18:28Z</time>
					</trkpt>
					<trkpt lat="45.922220" lon="4.543620">
						<ele>334</ele>
						<time>2024-10-10T20:18:32Z</time>
					</trkpt>
					<trkpt lat="45.923120" lon="4.542180">
						<ele>337</ele>
						<time>2024-10-10T20:18:56Z</time>
					</trkpt>
					<trkpt lat="45.923420" lon="4.541610">
						<ele>337</ele>
						<time>2024-10-10T20:19:05Z</time>
					</trkpt>
					<trkpt lat="45.923680" lon="4.541170">
						<ele>339</ele>
						<time>2024-10-10T20:19:12Z</time>
					</trkpt>
					<trkpt lat="45.924710" lon="4.539320">
						<ele>346</ele>
						<time>2024-10-10T20:19:41Z</time>
					</trkpt>
					<trkpt lat="45.925180" lon="4.538810">
						<ele>349</ele>
						<time>2024-10-10T20:19:52Z</time>
					</trkpt>
					<trkpt lat="45.926720" lon="4.537320">
						<ele>357</ele>
						<time>2024-10-10T20:20:25Z</time>
					</trkpt>
					<trkpt lat="45.926820" lon="4.537200">
						<ele>358</ele>
						<time>2024-10-10T20:20:27Z</time>
					</trkpt>
					<trkpt lat="45.926860" lon="4.537070">
						<ele>358</ele>
						<time>2024-10-10T20:20:29Z</time>
					</trkpt>
					<trkpt lat="45.926860" lon="4.536980">
						<ele>358</ele>
						<time>2024-10-10T20:20:30Z</time>
					</trkpt>
					<trkpt lat="45.926810" lon="4.536870">
						<ele>357</ele>
						<time>2024-10-10T20:20:31Z</time>
					</trkpt>
					<trkpt lat="45.926710" lon="4.536800">
						<ele>357</ele>
						<time>2024-10-10T20:20:33Z</time>
					</trkpt>
					<trkpt lat="45.926200" lon="4.536690">
						<ele>359</ele>
						<time>2024-10-10T20:20:43Z</time>
					</trkpt>
					<trkpt lat="45.925840" lon="4.536640">
						<ele>361</ele>
						<time>2024-10-10T20:20:49Z</time>
					</trkpt>
					<trkpt lat="45.925580" lon="4.536640">
						<ele>363</ele>
						<time>2024-10-10T20:20:54Z</time>
					</trkpt>
					<trkpt lat="45.925080" lon="4.536700">
						<ele>367</ele>
						<time>2024-10-10T20:21:03Z</time>
					</trkpt>
					<trkpt lat="45.924820" lon="4.536740">
						<ele>369</ele>
						<time>2024-10-10T20:21:07Z</time>
					</trkpt>
					<trkpt lat="45.924570" lon="4.536900">
						<ele>370</ele>
						<time>2024-10-10T20:21:12Z</time>
					</trkpt>
					<trkpt lat="45.924350" lon="4.536980">
						<ele>371</ele>
						<time>2024-10-10T20:21:16Z</time>
					</trkpt>
					<trkpt lat="45.924200" lon="4.536950">
						<ele>373</ele>
						<time>2024-10-10T20:21:19Z</time>
					</trkpt>
					<trkpt lat="45.923890" lon="4.536860">
						<ele>375</ele>
						<time>2024-10-10T20:21:24Z</time>
					</trkpt>
					<trkpt lat="45.923780" lon="4.536860">
						<ele>375</ele>
						<time>2024-10-10T20:21:26Z</time>
					</trkpt>
					<trkpt lat="45.923680" lon="4.536900">
						<ele>375</ele>
						<time>2024-10-10T20:21:28Z</time>
					</trkpt>
					<trkpt lat="45.923420" lon="4.537070">
						<ele>375</ele>
						<time>2024-10-10T20:21:33Z</time>
					</trkpt>
					<trkpt lat="45.923340" lon="4.537090">
						<ele>375</ele>
						<time>2024-10-10T20:21:35Z</time>
					</trkpt>
					<trkpt lat="45.923250" lon="4.537090">
						<ele>375</ele>
						<time>2024-10-10T20:21:36Z</time>
					</trkpt>
					<trkpt lat="45.923160" lon="4.537040">
						<ele>376</ele>
						<time>2024-10-10T20:21:38Z</time>
					</trkpt>
					<trkpt lat="45.923080" lon="4.536950">
						<ele>376</ele>
						<time>2024-10-10T20:21:40Z</time>
					</trkpt>
					<trkpt lat="45.922970" lon="4.536780">
						<ele>376</ele>
						<time>2024-10-10T20:21:43Z</time>
					</trkpt>
					<trkpt lat="45.922910" lon="4.536600">
						<ele>376</ele>
						<time>2024-10-10T20:21:45Z</time>
					</trkpt>
					<trkpt lat="45.922880" lon="4.536390">
						<ele>376</ele>
						<time>2024-10-10T20:21:48Z</time>
					</trkpt>
					<trkpt lat="45.922880" lon="4.536190">
						<ele>375</ele>
						<time>2024-10-10T20:21:50Z</time>
					</trkpt>
					<trkpt lat="45.922910" lon="4.535990">
						<ele>375</ele>
						<time>2024-10-10T20:21:53Z</time>
					</trkpt>
					<trkpt lat="45.924430" lon="4.529530">
						<ele>369</ele>
						<time>2024-10-10T20:23:17Z</time>
					</trkpt>
					<trkpt lat="45.924410" lon="4.529280">
						<ele>369</ele>
						<time>2024-10-10T20:23:20Z</time>
					</trkpt>
					<trkpt lat="45.924280" lon="4.529060">
						<ele>369</ele>
						<time>2024-10-10T20:23:24Z</time>
					</trkpt>
					<trkpt lat="45.924200" lon="4.529000">
						<ele>370</ele>
						<time>2024-10-10T20:23:26Z</time>
					</trkpt>
					<trkpt lat="45.924110" lon="4.528950">
						<ele>371</ele>
						<time>2024-10-10T20:23:27Z</time>
					</trkpt>
					<trkpt lat="45.924010" lon="4.528950">
						<ele>372</ele>
						<time>2024-10-10T20:23:29Z</time>
					</trkpt>
					<trkpt lat="45.923870" lon="4.528970">
						<ele>373</ele>
						<time>2024-10-10T20:23:32Z</time>
					</trkpt>
					<trkpt lat="45.923750" lon="4.529020">
						<ele>374</ele>
						<time>2024-10-10T20:23:34Z</time>
					</trkpt>
					<trkpt lat="45.923450" lon="4.529260">
						<ele>374</ele>
						<time>2024-10-10T20:23:40Z</time>
					</trkpt>
					<trkpt lat="45.923010" lon="4.529720">
						<ele>370</ele>
						<time>2024-10-10T20:23:50Z</time>
					</trkpt>
					<trkpt lat="45.922780" lon="4.529890">
						<ele>370</ele>
						<time>2024-10-10T20:23:54Z</time>
					</trkpt>
					<trkpt lat="45.922500" lon="4.529980">
						<ele>371</ele>
						<time>2024-10-10T20:23:59Z</time>
					</trkpt>
					<trkpt lat="45.922320" lon="4.529960">
						<ele>371</ele>
						<time>2024-10-10T20:24:03Z</time>
					</trkpt>
					<trkpt lat="45.922220" lon="4.529910">
						<ele>371</ele>
						<time>2024-10-10T20:24:04Z</time>
					</trkpt>
					<trkpt lat="45.921970" lon="4.529700">
						<ele>373</ele>
						<time>2024-10-10T20:24:10Z</time>
					</trkpt>
					<trkpt lat="45.921880" lon="4.529580">
						<ele>373</ele>
						<time>2024-10-10T20:24:12Z</time>
					</trkpt>
					<trkpt lat="45.921790" lon="4.529390">
						<ele>374</ele>
						<time>2024-10-10T20:24:15Z</time>
					</trkpt>
					<trkpt lat="45.921610" lon="4.528870">
						<ele>378</ele>
						<time>2024-10-10T20:24:22Z</time>
					</trkpt>
					<trkpt lat="45.921530" lon="4.528740">
						<ele>379</ele>
						<time>2024-10-10T20:24:24Z</time>
					</trkpt>
					<trkpt lat="45.921410" lon="4.528620">
						<ele>380</ele>
						<time>2024-10-10T20:24:27Z</time>
					</trkpt>
					<trkpt lat="45.921300" lon="4.528530">
						<ele>381</ele>
						<time>2024-10-10T20:24:29Z</time>
					</trkpt>
					<trkpt lat="45.921010" lon="4.528480">
						<ele>382</ele>
						<time>2024-10-10T20:24:34Z</time>
					</trkpt>
					<trkpt lat="45.920680" lon="4.528510">
						<ele>382</ele>
						<time>2024-10-10T20:24:40Z</time>
					</trkpt>
					<trkpt lat="45.920080" lon="4.528860">
						<ele>384</ele>
						<time>2024-10-10T20:24:51Z</time>
					</trkpt>
					<trkpt lat="45.919970" lon="4.528900">
						<ele>384</ele>
						<time>2024-10-10T20:24:53Z</time>
					</trkpt>
					<trkpt lat="45.919740" lon="4.528900">
						<ele>385</ele>
						<time>2024-10-10T20:24:57Z</time>
					</trkpt>
					<trkpt lat="45.919640" lon="4.528870">
						<ele>385</ele>
						<time>2024-10-10T20:24:59Z</time>
					</trkpt>
					<trkpt lat="45.919460" lon="4.528730">
						<ele>386</ele>
						<time>2024-10-10T20:25:03Z</time>
					</trkpt>
					<trkpt lat="45.919260" lon="4.528440">
						<ele>388</ele>
						<time>2024-10-10T20:25:08Z</time>
					</trkpt>
					<trkpt lat="45.919020" lon="4.527980">
						<ele>390</ele>
						<time>2024-10-10T20:25:15Z</time>
					</trkpt>
					<trkpt lat="45.918640" lon="4.528510">
						<ele>390</ele>
						<time>2024-10-10T20:25:25Z</time>
					</trkpt>
					<trkpt lat="45.918600" lon="4.528480">
						<ele>390</ele>
						<time>2024-10-10T20:25:25Z</time>
					</trkpt>
					<trkpt lat="45.918490" lon="4.528670">
						<ele>390</ele>
						<time>2024-10-10T20:25:28Z</time>
					</trkpt>
					<trkpt lat="45.918600" lon="4.528480">
						<ele>390</ele>
						<time>2024-10-10T20:25:31Z</time>
					</trkpt>
					<trkpt lat="45.918450" lon="4.528150">
						<ele>391</ele>
						<time>2024-10-10T20:25:36Z</time>
					</trkpt>
					<trkpt lat="45.918440" lon="4.528050">
						<ele>390</ele>
						<time>2024-10-10T20:25:38Z</time>
					</trkpt>
					<trkpt lat="45.918470" lon="4.527910">
						<ele>390</ele>
						<time>2024-10-10T20:25:39Z</time>
					</trkpt>
					<trkpt lat="45.918500" lon="4.527440">
						<ele>387</ele>
						<time>2024-10-10T20:25:45Z</time>
					</trkpt>
					<trkpt lat="45.918520" lon="4.527360">
						<ele>387</ele>
						<time>2024-10-10T20:25:46Z</time>
					</trkpt>
					<trkpt lat="45.919450" lon="4.526640">
						<ele>387</ele>
						<time>2024-10-10T20:26:05Z</time>
					</trkpt>
					<trkpt lat="45.919500" lon="4.526620">
						<ele>387</ele>
						<time>2024-10-10T20:26:06Z</time>
					</trkpt>
					<trkpt lat="45.919540" lon="4.526630">
						<ele>387</ele>
						<time>2024-10-10T20:26:07Z</time>
					</trkpt>
					<trkpt lat="45.919840" lon="4.525900">
						<ele>383</ele>
						<time>2024-10-10T20:26:17Z</time>
					</trkpt>
					<trkpt lat="45.919930" lon="4.525600">
						<ele>382</ele>
						<time>2024-10-10T20:26:21Z</time>
					</trkpt>
					<trkpt lat="45.919970" lon="4.525360">
						<ele>381</ele>
						<time>2024-10-10T20:26:24Z</time>
					</trkpt>
					<trkpt lat="45.919970" lon="4.525080">
						<ele>379</ele>
						<time>2024-10-10T20:26:28Z</time>
					</trkpt>
					<trkpt lat="45.919920" lon="4.524060">
						<ele>376</ele>
						<time>2024-10-10T20:26:40Z</time>
					</trkpt>
					<trkpt lat="45.919930" lon="4.523560">
						<ele>375</ele>
						<time>2024-10-10T20:26:47Z</time>
					</trkpt>
					<trkpt lat="45.919970" lon="4.522850">
						<ele>372</ele>
						<time>2024-10-10T20:26:55Z</time>
					</trkpt>
					<trkpt lat="45.920030" lon="4.522400">
						<ele>370</ele>
						<time>2024-10-10T20:27:01Z</time>
					</trkpt>
					<trkpt lat="45.920130" lon="4.521890">
						<ele>367</ele>
						<time>2024-10-10T20:27:08Z</time>
					</trkpt>
					<trkpt lat="45.920360" lon="4.521010">
						<ele>368</ele>
						<time>2024-10-10T20:27:19Z</time>
					</trkpt>
					<trkpt lat="45.920670" lon="4.520240">
						<ele>366</ele>
						<time>2024-10-10T20:27:30Z</time>
					</trkpt>
					<trkpt lat="45.920700" lon="4.520080">
						<ele>365</ele>
						<time>2024-10-10T20:27:32Z</time>
					</trkpt>
					<trkpt lat="45.920700" lon="4.519850">
						<ele>365</ele>
						<time>2024-10-10T20:27:35Z</time>
					</trkpt>
					<trkpt lat="45.920680" lon="4.519700">
						<ele>365</ele>
						<time>2024-10-10T20:27:37Z</time>
					</trkpt>
					<trkpt lat="45.920640" lon="4.519560">
						<ele>366</ele>
						<time>2024-10-10T20:27:39Z</time>
					</trkpt>
					<trkpt lat="45.920540" lon="4.519440">
						<ele>366</ele>
						<time>2024-10-10T20:27:41Z</time>
					</trkpt>
					<trkpt lat="45.920400" lon="4.519330">
						<ele>367</ele>
						<time>2024-10-10T20:27:44Z</time>
					</trkpt>
					<trkpt lat="45.920200" lon="4.519300">
						<ele>368</ele>
						<time>2024-10-10T20:27:48Z</time>
					</trkpt>
					<trkpt lat="45.920060" lon="4.519310">
						<ele>368</ele>
						<time>2024-10-10T20:27:50Z</time>
					</trkpt>
					<trkpt lat="45.919870" lon="4.519400">
						<ele>368</ele>
						<time>2024-10-10T20:27:54Z</time>
					</trkpt>
					<trkpt lat="45.919610" lon="4.519590">
						<ele>369</ele>
						<time>2024-10-10T20:27:59Z</time>
					</trkpt>
					<trkpt lat="45.919140" lon="4.520160">
						<ele>368</ele>
						<time>2024-10-10T20:28:10Z</time>
					</trkpt>
					<trkpt lat="45.918910" lon="4.520390">
						<ele>369</ele>
						<time>2024-10-10T20:28:15Z</time>
					</trkpt>
					<trkpt lat="45.918700" lon="4.520510">
						<ele>370</ele>
						<time>2024-10-10T20:28:19Z</time>
					</trkpt>
					<trkpt lat="45.917900" lon="4.520880">
						<ele>373</ele>
						<time>2024-10-10T20:28:34Z</time>
					</trkpt>
					<trkpt lat="45.917280" lon="4.521210">
						<ele>377</ele>
						<time>2024-10-10T20:28:46Z</time>
					</trkpt>
					<trkpt lat="45.917100" lon="4.521350">
						<ele>377</ele>
						<time>2024-10-10T20:28:49Z</time>
					</trkpt>
					<trkpt lat="45.916670" lon="4.522000">
						<ele>376</ele>
						<time>2024-10-10T20:29:00Z</time>
					</trkpt>
					<trkpt lat="45.916510" lon="4.522190">
						<ele>377</ele>
						<time>2024-10-10T20:29:04Z</time>
					</trkpt>
					<trkpt lat="45.916280" lon="4.522380">
						<ele>378</ele>
						<time>2024-10-10T20:29:09Z</time>
					</trkpt>
					<trkpt lat="45.915940" lon="4.522620">
						<ele>381</ele>
						<time>2024-10-10T20:29:16Z</time>
					</trkpt>
					<trkpt lat="45.915830" lon="4.522660">
						<ele>381</ele>
						<time>2024-10-10T20:29:18Z</time>
					</trkpt>
					<trkpt lat="45.915730" lon="4.522670">
						<ele>381</ele>
						<time>2024-10-10T20:29:19Z</time>
					</trkpt>
					<trkpt lat="45.915610" lon="4.522640">
						<ele>381</ele>
						<time>2024-10-10T20:29:22Z</time>
					</trkpt>
					<trkpt lat="45.915240" lon="4.522410">
						<ele>382</ele>
						<time>2024-10-10T20:29:29Z</time>
					</trkpt>
					<trkpt lat="45.914760" lon="4.522140">
						<ele>380</ele>
						<time>2024-10-10T20:29:38Z</time>
					</trkpt>
					<trkpt lat="45.912980" lon="4.520100">
						<ele>372</ele>
						<time>2024-10-10T20:30:18Z</time>
					</trkpt>
					<trkpt lat="45.912630" lon="4.519660">
						<ele>369</ele>
						<time>2024-10-10T20:30:27Z</time>
					</trkpt>
					<trkpt lat="45.912550" lon="4.519500">
						<ele>368</ele>
						<time>2024-10-10T20:30:29Z</time>
					</trkpt>
					<trkpt lat="45.912480" lon="4.519280">
						<ele>367</ele>
						<time>2024-10-10T20:30:32Z</time>
					</trkpt>
					<trkpt lat="45.912440" lon="4.519080">
						<ele>366</ele>
						<time>2024-10-10T20:30:35Z</time>
					</trkpt>
					<trkpt lat="45.912430" lon="4.518900">
						<ele>365</ele>
						<time>2024-10-10T20:30:37Z</time>
					</trkpt>
					<trkpt lat="45.912470" lon="4.518600">
						<ele>364</ele>
						<time>2024-10-10T20:30:41Z</time>
					</trkpt>
					<trkpt lat="45.912710" lon="4.517900">
						<ele>363</ele>
						<time>2024-10-10T20:30:50Z</time>
					</trkpt>
					<trkpt lat="45.912760" lon="4.517680">
						<ele>362</ele>
						<time>2024-10-10T20:30:53Z</time>
					</trkpt>
					<trkpt lat="45.912780" lon="4.517540">
						<ele>362</ele>
						<time>2024-10-10T20:30:55Z</time>
					</trkpt>
					<trkpt lat="45.912740" lon="4.517290">
						<ele>362</ele>
						<time>2024-10-10T20:30:58Z</time>
					</trkpt>
					<trkpt lat="45.912680" lon="4.517180">
						<ele>362</ele>
						<time>2024-10-10T20:31:00Z</time>
					</trkpt>
					<trkpt lat="45.912590" lon="4.517080">
						<ele>362</ele>
						<time>2024-10-10T20:31:02Z</time>
					</trkpt>
					<trkpt lat="45.912450" lon="4.517030">
						<ele>361</ele>
						<time>2024-10-10T20:31:04Z</time>
					</trkpt>
					<trkpt lat="45.911900" lon="4.516910">
						<ele>354</ele>
						<time>2024-10-10T20:31:14Z</time>
					</trkpt>
					<trkpt lat="45.911730" lon="4.516840">
						<ele>352</ele>
						<time>2024-10-10T20:31:17Z</time>
					</trkpt>
					<trkpt lat="45.911580" lon="4.516740">
						<ele>350</ele>
						<time>2024-10-10T20:31:20Z</time>
					</trkpt>
					<trkpt lat="45.911430" lon="4.516600">
						<ele>348</ele>
						<time>2024-10-10T20:31:24Z</time>
					</trkpt>
					<trkpt lat="45.911310" lon="4.516450">
						<ele>346</ele>
						<time>2024-10-10T20:31:26Z</time>
					</trkpt>
					<trkpt lat="45.910850" lon="4.515650">
						<ele>339</ele>
						<time>2024-10-10T20:31:39Z</time>
					</trkpt>
					<trkpt lat="45.910750" lon="4.515320">
						<ele>338</ele>
						<time>2024-10-10T20:31:44Z</time>
					</trkpt>
					<trkpt lat="45.910740" lon="4.515180">
						<ele>338</ele>
						<time>2024-10-10T20:31:45Z</time>
					</trkpt>
					<trkpt lat="45.910770" lon="4.515040">
						<ele>338</ele>
						<time>2024-10-10T20:31:47Z</time>
					</trkpt>
					<trkpt lat="45.910900" lon="4.514700">
						<ele>341</ele>
						<time>2024-10-10T20:31:52Z</time>
					</trkpt>
					<trkpt lat="45.910910" lon="4.514520">
						<ele>342</ele>
						<time>2024-10-10T20:31:54Z</time>
					</trkpt>
					<trkpt lat="45.910850" lon="4.514360">
						<ele>341</ele>
						<time>2024-10-10T20:31:57Z</time>
					</trkpt>
					<trkpt lat="45.910720" lon="4.514170">
						<ele>339</ele>
						<time>2024-10-10T20:32:00Z</time>
					</trkpt>
					<trkpt lat="45.910470" lon="4.514030">
						<ele>334</ele>
						<time>2024-10-10T20:32:05Z</time>
					</trkpt>
					<trkpt lat="45.910180" lon="4.513910">
						<ele>328</ele>
						<time>2024-10-10T20:32:10Z</time>
					</trkpt>
					<trkpt lat="45.910080" lon="4.513820">
						<ele>326</ele>
						<time>2024-10-10T20:32:12Z</time>
					</trkpt>
					<trkpt lat="45.910010" lon="4.513730">
						<ele>325</ele>
						<time>2024-10-10T20:32:14Z</time>
					</trkpt>
					<trkpt lat="45.909960" lon="4.513620">
						<ele>323</ele>
						<time>2024-10-10T20:32:15Z</time>
					</trkpt>
					<trkpt lat="45.909940" lon="4.513480">
						<ele>323</ele>
						<time>2024-10-10T20:32:17Z</time>
					</trkpt>
					<trkpt lat="45.909960" lon="4.513140">
						<ele>322</ele>
						<time>2024-10-10T20:32:21Z</time>
					</trkpt>
					<trkpt lat="45.910150" lon="4.512130">
						<ele>320</ele>
						<time>2024-10-10T20:32:34Z</time>
					</trkpt>
					<trkpt lat="45.910160" lon="4.511820">
						<ele>319</ele>
						<time>2024-10-10T20:32:38Z</time>
					</trkpt>
					<trkpt lat="45.910120" lon="4.511230">
						<ele>315</ele>
						<time>2024-10-10T20:32:46Z</time>
					</trkpt>
					<trkpt lat="45.910140" lon="4.510790">
						<ele>314</ele>
						<time>2024-10-10T20:32:51Z</time>
					</trkpt>
					<trkpt lat="45.910230" lon="4.510460">
						<ele>316</ele>
						<time>2024-10-10T20:32:55Z</time>
					</trkpt>
					<trkpt lat="45.910240" lon="4.510300">
						<ele>317</ele>
						<time>2024-10-10T20:32:57Z</time>
					</trkpt>
					<trkpt lat="45.910210" lon="4.510110">
						<ele>316</ele>
						<time>2024-10-10T20:33:00Z</time>
					</trkpt>
					<trkpt lat="45.910170" lon="4.510070">
						<ele>315</ele>
						<time>2024-10-10T20:33:01Z</time>
					</trkpt>
					<trkpt lat="45.910000" lon="4.510000">
						<ele>311</ele>
						<time>2024-10-10T20:33:04Z</time>
					</trkpt>
					<trkpt lat="45.909880" lon="4.509930">
						<ele>311</ele>
						<time>2024-10-10T20:33:06Z</time>
					</trkpt>
					<trkpt lat="45.909740" lon="4.509800">
						<ele>311</ele>
						<time>2024-10-10T20:33:09Z</time>
					</trkpt>
					<trkpt lat="45.909710" lon="4.510140">
						<ele>310</ele>
						<time>2024-10-10T20:33:13Z</time>
					</trkpt>
					<trkpt lat="45.909780" lon="4.510060">
						<ele>310</ele>
						<time>2024-10-10T20:33:15Z</time>
					</trkpt>
					<trkpt lat="45.909860" lon="4.510020">
						<ele>310</ele>
						<time>2024-10-10T20:33:16Z</time>
					</trkpt>
					<trkpt lat="45.909870" lon="4.510080">
						<ele>310</ele>
						<time>2024-10-10T20:33:17Z</time>
					</trkpt>
					<trkpt lat="45.909860" lon="4.510020">
						<ele>310</ele>
						<time>2024-10-10T20:33:18Z</time>
					</trkpt>
					<trkpt lat="45.910000" lon="4.510000">
						<ele>311</ele>
						<time>2024-10-10T20:33:20Z</time>
					</trkpt>
					<trkpt lat="45.909880" lon="4.509930">
						<ele>311</ele>
						<time>2024-10-10T20:33:23Z</time>
					</trkpt>
					<trkpt lat="45.909740" lon="4.509800">
						<ele>311</ele>
						<time>2024-10-10T20:33:26Z</time>
					</trkpt>
					<trkpt lat="45.909730" lon="4.509900">
						<ele>310</ele>
						<time>2024-10-10T20:33:27Z</time>
					</trkpt>
					<trkpt lat="45.908880" lon="4.509660">
						<ele>318</ele>
						<time>2024-10-10T20:33:42Z</time>
					</trkpt>
					<trkpt lat="45.908740" lon="4.509540">
						<ele>322</ele>
						<time>2024-10-10T20:33:45Z</time>
					</trkpt>
					<trkpt lat="45.908710" lon="4.509410">
						<ele>323</ele>
						<time>2024-10-10T20:33:47Z</time>
					</trkpt>
					<trkpt lat="45.908810" lon="4.507790">
						<ele>322</ele>
						<time>2024-10-10T20:34:07Z</time>
					</trkpt>
					<trkpt lat="45.908780" lon="4.506890">
						<ele>326</ele>
						<time>2024-10-10T20:34:18Z</time>
					</trkpt>
					<trkpt lat="45.908860" lon="4.506010">
						<ele>327</ele>
						<time>2024-10-10T20:34:29Z</time>
					</trkpt>
					<trkpt lat="45.908810" lon="4.505250">
						<ele>331</ele>
						<time>2024-10-10T20:34:39Z</time>
					</trkpt>
					<trkpt lat="45.908870" lon="4.504590">
						<ele>334</ele>
						<time>2024-10-10T20:34:47Z</time>
					</trkpt>
					<trkpt lat="45.908860" lon="4.504080">
						<ele>338</ele>
						<time>2024-10-10T20:34:53Z</time>
					</trkpt>
					<trkpt lat="45.908830" lon="4.503830">
						<ele>340</ele>
						<time>2024-10-10T20:34:56Z</time>
					</trkpt>
					<trkpt lat="45.908650" lon="4.503010">
						<ele>346</ele>
						<time>2024-10-10T20:35:07Z</time>
					</trkpt>
					<trkpt lat="45.908640" lon="4.502010">
						<ele>354</ele>
						<time>2024-10-10T20:35:19Z</time>
					</trkpt>
					<trkpt lat="45.908610" lon="4.501690">
						<ele>358</ele>
						<time>2024-10-10T20:35:23Z</time>
					</trkpt>
					<trkpt lat="45.908510" lon="4.501240">
						<ele>360</ele>
						<time>2024-10-10T20:35:29Z</time>
					</trkpt>
					<trkpt lat="45.908340" lon="4.499980">
						<ele>358</ele>
						<time>2024-10-10T20:35:45Z</time>
					</trkpt>
					<trkpt lat="45.908290" lon="4.499740">
						<ele>358</ele>
						<time>2024-10-10T20:35:48Z</time>
					</trkpt>
					<trkpt lat="45.908200" lon="4.499480">
						<ele>359</ele>
						<time>2024-10-10T20:35:52Z</time>
					</trkpt>
					<trkpt lat="45.908110" lon="4.499320">
						<ele>360</ele>
						<time>2024-10-10T20:35:54Z</time>
					</trkpt>
					<trkpt lat="45.907930" lon="4.499130">
						<ele>361</ele>
						<time>2024-10-10T20:35:58Z</time>
					</trkpt>
					<trkpt lat="45.907830" lon="4.499100">
						<ele>362</ele>
						<time>2024-10-10T20:36:00Z</time>
					</trkpt>
					<trkpt lat="45.907740" lon="4.499100">
						<ele>363</ele>
						<time>2024-10-10T20:36:02Z</time>
					</trkpt>
					<trkpt lat="45.907610" lon="4.499130">
						<ele>365</ele>
						<time>2024-10-10T20:36:04Z</time>
					</trkpt>
					<trkpt lat="45.904800" lon="4.501220">
						<ele>384</ele>
						<time>2024-10-10T20:37:00Z</time>
					</trkpt>
					<trkpt lat="45.904560" lon="4.501280">
						<ele>384</ele>
						<time>2024-10-10T20:37:05Z</time>
					</trkpt>
					<trkpt lat="45.904360" lon="4.501200">
						<ele>385</ele>
						<time>2024-10-10T20:37:08Z</time>
					</trkpt>
					<trkpt lat="45.904240" lon="4.501100">
						<ele>386</ele>
						<time>2024-10-10T20:37:11Z</time>
					</trkpt>
					<trkpt lat="45.904120" lon="4.500940">
						<ele>387</ele>
						<time>2024-10-10T20:37:14Z</time>
					</trkpt>
					<trkpt lat="45.904000" lon="4.500750">
						<ele>388</ele>
						<time>2024-10-10T20:37:17Z</time>
					</trkpt>
					<trkpt lat="45.903910" lon="4.500540">
						<ele>389</ele>
						<time>2024-10-10T20:37:20Z</time>
					</trkpt>
					<trkpt lat="45.903790" lon="4.500040">
						<ele>390</ele>
						<time>2024-10-10T20:37:27Z</time>
					</trkpt>
					<trkpt lat="45.903900" lon="4.498670">
						<ele>397</ele>
						<time>2024-10-10T20:37:44Z</time>
					</trkpt>
					<trkpt lat="45.903980" lon="4.497960">
						<ele>401</ele>
						<time>2024-10-10T20:37:53Z</time>
					</trkpt>
					<trkpt lat="45.904130" lon="4.497040">
						<ele>407</ele>
						<time>2024-10-10T20:38:04Z</time>
					</trkpt>
					<trkpt lat="45.904140" lon="4.496740">
						<ele>408</ele>
						<time>2024-10-10T20:38:08Z</time>
					</trkpt>
					<trkpt lat="45.904090" lon="4.495940">
						<ele>410</ele>
						<time>2024-10-10T20:38:18Z</time>
					</trkpt>
					<trkpt lat="45.904120" lon="4.495650">
						<ele>412</ele>
						<time>2024-10-10T20:38:22Z</time>
					</trkpt>
					<trkpt lat="45.904330" lon="4.494370">
						<ele>418</ele>
						<time>2024-10-10T20:38:38Z</time>
					</trkpt>
					<trkpt lat="45.904340" lon="4.494230">
						<ele>419</ele>
						<time>2024-10-10T20:38:40Z</time>
					</trkpt>
					<trkpt lat="45.904280" lon="4.493790">
						<ele>421</ele>
						<time>2024-10-10T20:38:45Z</time>
					</trkpt>
					<trkpt lat="45.903930" lon="4.492810">
						<ele>428</ele>
						<time>2024-10-10T20:38:59Z</time>
					</trkpt>
					<trkpt lat="45.903880" lon="4.492730">
						<ele>429</ele>
						<time>2024-10-10T20:39:00Z</time>
					</trkpt>
					<trkpt lat="45.903820" lon="4.492680">
						<ele>430</ele>
						<time>2024-10-10T20:39:01Z</time>
					</trkpt>
					<trkpt lat="45.903390" lon="4.492640">
						<ele>434</ele>
						<time>2024-10-10T20:39:09Z</time>
					</trkpt>
					<trkpt lat="45.903230" lon="4.492520">
						<ele>435</ele>
						<time>2024-10-10T20:39:12Z</time>
					</trkpt>
					<trkpt lat="45.903110" lon="4.492210">
						<ele>436</ele>
						<time>2024-10-10T20:39:17Z</time>
					</trkpt>
					<trkpt lat="45.903040" lon="4.491930">
						<ele>437</ele>
						<time>2024-10-10T20:39:20Z</time>
					</trkpt>
					<trkpt lat="45.902930" lon="4.491320">
						<ele>438</ele>
						<time>2024-10-10T20:39:28Z</time>
					</trkpt>
					<trkpt lat="45.902800" lon="4.490830">
						<ele>439</ele>
						<time>2024-10-10T20:39:35Z</time>
					</trkpt>
					<trkpt lat="45.900220" lon="4.485640">
						<ele>438</ele>
						<time>2024-10-10T20:40:54Z</time>
					</trkpt>
					<trkpt lat="45.900030" lon="4.485390">
						<ele>438</ele>
						<time>2024-10-10T20:40:58Z</time>
					</trkpt>
					<trkpt lat="45.899820" lon="4.485320">
						<ele>439</ele>
						<time>2024-10-10T20:41:02Z</time>
					</trkpt>
					<trkpt lat="45.899700" lon="4.485340">
						<ele>440</ele>
						<time>2024-10-10T20:41:04Z</time>
					</trkpt>
					<trkpt lat="45.899590" lon="4.485400">
						<ele>440</ele>
						<time>2024-10-10T20:41:06Z</time>
					</trkpt>
					<trkpt lat="45.899480" lon="4.485500">
						<ele>441</ele>
						<time>2024-10-10T20:41:09Z</time>
					</trkpt>
					<trkpt lat="45.899380" lon="4.485620">
						<ele>441</ele>
						<time>2024-10-10T20:41:11Z</time>
					</trkpt>
					<trkpt lat="45.899290" lon="4.485810">
						<ele>442</ele>
						<time>2024-10-10T20:41:14Z</time>
					</trkpt>
					<trkpt lat="45.899240" lon="4.485970">
						<ele>442</ele>
						<time>2024-10-10T20:41:16Z</time>
					</trkpt>
					<trkpt lat="45.899250" lon="4.486300">
						<ele>442</ele>
						<time>2024-10-10T20:41:20Z</time>
					</trkpt>
					<trkpt lat="45.899310" lon="4.486770">
						<ele>441</ele>
						<time>2024-10-10T20:41:26Z</time>
					</trkpt>
					<trkpt lat="45.899300" lon="4.487280">
						<ele>443</ele>
						<time>2024-10-10T20:41:32Z</time>
					</trkpt>
					<trkpt lat="45.899200" lon="4.487910">
						<ele>444</ele>
						<time>2024-10-10T20:41:40Z</time>
					</trkpt>
					<trkpt lat="45.898990" lon="4.488930">
						<ele>445</ele>
						<time>2024-10-10T20:41:53Z</time>
					</trkpt>
					<trkpt lat="45.898930" lon="4.489160">
						<ele>445</ele>
						<time>2024-10-10T20:41:56Z</time>
					</trkpt>
					<trkpt lat="45.898880" lon="4.489280">
						<ele>445</ele>
						<time>2024-10-10T20:41:58Z</time>
					</trkpt>
					<trkpt lat="45.898690" lon="4.489610">
						<ele>446</ele>
						<time>2024-10-10T20:42:04Z</time>
					</trkpt>
					<trkpt lat="45.898510" lon="4.489760">
						<ele>448</ele>
						<time>2024-10-10T20:42:07Z</time>
					</trkpt>
					<trkpt lat="45.898360" lon="4.489810">
						<ele>450</ele>
						<time>2024-10-10T20:42:10Z</time>
					</trkpt>
					<trkpt lat="45.898150" lon="4.489810">
						<ele>454</ele>
						<time>2024-10-10T20:42:14Z</time>
					</trkpt>
					<trkpt lat="45.897820" lon="4.489890">
						<ele>459</ele>
						<time>2024-10-10T20:42:20Z</time>
					</trkpt>
					<trkpt lat="45.897360" lon="4.490330">
						<ele>461</ele>
						<time>2024-10-10T20:42:29Z</time>
					</trkpt>
					<trkpt lat="45.896830" lon="4.491170">
						<ele>460</ele>
						<time>2024-10-10T20:42:44Z</time>
					</trkpt>
					<trkpt lat="45.896710" lon="4.491310">
						<ele>461</ele>
						<time>2024-10-10T20:42:46Z</time>
					</trkpt>
					<trkpt lat="45.896570" lon="4.491380">
						<ele>462</ele>
						<time>2024-10-10T20:42:49Z</time>
					</trkpt>
					<trkpt lat="45.896200" lon="4.491420">
						<ele>463</ele>
						<time>2024-10-10T20:42:56Z</time>
					</trkpt>
					<trkpt lat="45.895570" lon="4.491570">
						<ele>463</ele>
						<time>2024-10-10T20:43:07Z</time>
					</trkpt>
					<trkpt lat="45.894710" lon="4.491820">
						<ele>463</ele>
						<time>2024-10-10T20:43:22Z</time>
					</trkpt>
					<trkpt lat="45.894410" lon="4.491950">
						<ele>462</ele>
						<time>2024-10-10T20:43:28Z</time>
					</trkpt>
					<trkpt lat="45.893930" lon="4.492230">
						<ele>462</ele>
						<time>2024-10-10T20:43:37Z</time>
					</trkpt>
					<trkpt lat="45.893850" lon="4.492270">
						<ele>462</ele>
						<time>2024-10-10T20:43:39Z</time>
					</trkpt>
					<trkpt lat="45.893690" lon="4.492300">
						<ele>463</ele>
						<time>2024-10-10T20:43:42Z</time>
					</trkpt>
					<trkpt lat="45.893550" lon="4.492300">
						<ele>463</ele>
						<time>2024-10-10T20:43:44Z</time>
					</trkpt>
					<trkpt lat="45.893390" lon="4.492260">
						<ele>465</ele>
						<time>2024-10-10T20:43:47Z</time>
					</trkpt>
					<trkpt lat="45.893280" lon="4.492180">
						<ele>465</ele>
						<time>2024-10-10T20:43:49Z</time>
					</trkpt>
					<trkpt lat="45.893130" lon="4.492000">
						<ele>465</ele>
						<time>2024-10-10T20:43:53Z</time>
					</trkpt>
					<trkpt lat="45.892890" lon="4.491600">
						<ele>466</ele>
						<time>2024-10-10T20:43:59Z</time>
					</trkpt>
					<trkpt lat="45.892740" lon="4.491370">
						<ele>466</ele>
						<time>2024-10-10T20:44:03Z</time>
					</trkpt>
					<trkpt lat="45.892630" lon="4.491240">
						<ele>466</ele>
						<time>2024-10-10T20:44:06Z</time>
					</trkpt>
					<trkpt lat="45.891940" lon="4.490920">
						<ele>469</ele>
						<time>2024-10-10T20:44:19Z</time>
					</trkpt>
					<trkpt lat="45.891670" lon="4.490990">
						<ele>469</ele>
						<time>2024-10-10T20:44:23Z</time>
					</trkpt>
					<trkpt lat="45.891400" lon="4.491150">
						<ele>470</ele>
						<time>2024-10-10T20:44:29Z</time>
					</trkpt>
					<trkpt lat="45.891260" lon="4.491290">
						<ele>470</ele>
						<time>2024-10-10T20:44:32Z</time>
					</trkpt>
					<trkpt lat="45.891190" lon="4.491530">
						<ele>469</ele>
						<time>2024-10-10T20:44:35Z</time>
					</trkpt>
					<trkpt lat="45.891180" lon="4.492060">
						<ele>467</ele>
						<time>2024-10-10T20:44:41Z</time>
					</trkpt>
					<trkpt lat="45.891160" lon="4.492210">
						<ele>466</ele>
						<time>2024-10-10T20:44:43Z</time>
					</trkpt>
					<trkpt lat="45.891070" lon="4.492540">
						<ele>465</ele>
						<time>2024-10-10T20:44:48Z</time>
					</trkpt>
					<trkpt lat="45.890690" lon="4.493450">
						<ele>460</ele>
						<time>2024-10-10T20:45:01Z</time>
					</trkpt>
					<trkpt lat="45.890540" lon="4.493690">
						<ele>458</ele>
						<time>2024-10-10T20:45:05Z</time>
					</trkpt>
					<trkpt lat="45.890420" lon="4.493820">
						<ele>458</ele>
						<time>2024-10-10T20:45:08Z</time>
					</trkpt>
					<trkpt lat="45.890170" lon="4.494000">
						<ele>458</ele>
						<time>2024-10-10T20:45:13Z</time>
					</trkpt>
					<trkpt lat="45.890070" lon="4.494030">
						<ele>458</ele>
						<time>2024-10-10T20:45:14Z</time>
					</trkpt>
					<trkpt lat="45.889930" lon="4.494010">
						<ele>458</ele>
						<time>2024-10-10T20:45:17Z</time>
					</trkpt>
					<trkpt lat="45.889860" lon="4.493970">
						<ele>457</ele>
						<time>2024-10-10T20:45:18Z</time>
					</trkpt>
					<trkpt lat="45.889700" lon="4.493810">
						<ele>457</ele>
						<time>2024-10-10T20:45:22Z</time>
					</trkpt>
					<trkpt lat="45.889580" lon="4.493640">
						<ele>456</ele>
						<time>2024-10-10T20:45:25Z</time>
					</trkpt>
					<trkpt lat="45.889530" lon="4.493830">
						<ele>455</ele>
						<time>2024-10-10T20:45:27Z</time>
					</trkpt>
					<trkpt lat="45.889520" lon="4.494010">
						<ele>454</ele>
						<time>2024-10-10T20:45:29Z</time>
					</trkpt>
					<trkpt lat="45.889530" lon="4.494150">
						<ele>454</ele>
						<time>2024-10-10T20:45:31Z</time>
					</trkpt>
					<trkpt lat="45.889560" lon="4.494270">
						<ele>453</ele>
						<time>2024-10-10T20:45:33Z</time>
					</trkpt>
					<trkpt lat="45.889610" lon="4.494360">
						<ele>452</ele>
						<time>2024-10-10T20:45:34Z</time>
					</trkpt>
					<trkpt lat="45.889900" lon="4.494650">
						<ele>452</ele>
						<time>2024-10-10T20:45:40Z</time>
					</trkpt>
					<trkpt lat="45.890000" lon="4.494810">
						<ele>451</ele>
						<time>2024-10-10T20:45:43Z</time>
					</trkpt>
					<trkpt lat="45.890230" lon="4.495320">
						<ele>445</ele>
						<time>2024-10-10T20:45:51Z</time>
					</trkpt>
					<trkpt lat="45.890280" lon="4.495470">
						<ele>444</ele>
						<time>2024-10-10T20:45:53Z</time>
					</trkpt>
					<trkpt lat="45.890320" lon="4.495660">
						<ele>442</ele>
						<time>2024-10-10T20:45:55Z</time>
					</trkpt>
					<trkpt lat="45.890350" lon="4.495940">
						<ele>440</ele>
						<time>2024-10-10T20:45:59Z</time>
					</trkpt>
					<trkpt lat="45.890370" lon="4.496410">
						<ele>438</ele>
						<time>2024-10-10T20:46:05Z</time>
					</trkpt>
					<trkpt lat="45.890360" lon="4.496610">
						<ele>437</ele>
						<time>2024-10-10T20:46:07Z</time>
					</trkpt>
					<trkpt lat="45.890210" lon="4.497530">
						<ele>435</ele>
						<time>2024-10-10T20:46:19Z</time>
					</trkpt>
					<trkpt lat="45.890160" lon="4.498340">
						<ele>433</ele>
						<time>2024-10-10T20:46:29Z</time>
					</trkpt>
					<trkpt lat="45.890060" lon="4.499040">
						<ele>430</ele>
						<time>2024-10-10T20:46:38Z</time>
					</trkpt>
					<trkpt lat="45.890060" lon="4.501960">
						<ele>416</ele>
						<time>2024-10-10T20:47:14Z</time>
					</trkpt>
					<trkpt lat="45.890030" lon="4.502500">
						<ele>416</ele>
						<time>2024-10-10T20:47:20Z</time>
					</trkpt>
					<trkpt lat="45.889950" lon="4.502760">
						<ele>416</ele>
						<time>2024-10-10T20:47:24Z</time>
					</trkpt>
					<trkpt lat="45.889650" lon="4.503350">
						<ele>412</ele>
						<time>2024-10-10T20:47:33Z</time>
					</trkpt>
					<trkpt lat="45.888880" lon="4.504780">
						<ele>405</ele>
						<time>2024-10-10T20:47:55Z</time>
					</trkpt>
					<trkpt lat="45.888550" lon="4.505460">
						<ele>401</ele>
						<time>2024-10-10T20:48:06Z</time>
					</trkpt>
					<trkpt lat="45.888410" lon="4.505770">
						<ele>399</ele>
						<time>2024-10-10T20:48:10Z</time>
					</trkpt>
					<trkpt lat="45.888090" lon="4.506730">
						<ele>397</ele>
						<time>2024-10-10T20:48:23Z</time>
					</trkpt>
					<trkpt lat="45.887980" lon="4.506990">
						<ele>396</ele>
						<time>2024-10-10T20:48:27Z</time>
					</trkpt>
					<trkpt lat="45.887830" lon="4.507240">
						<ele>394</ele>
						<time>2024-10-10T20:48:31Z</time>
					</trkpt>
					<trkpt lat="45.887480" lon="4.507560">
						<ele>390</ele>
						<time>2024-10-10T20:48:39Z</time>
					</trkpt>
					<trkpt lat="45.887330" lon="4.507770">
						<ele>389</ele>
						<time>2024-10-10T20:48:42Z</time>
					</trkpt>
					<trkpt lat="45.887220" lon="4.508030">
						<ele>389</ele>
						<time>2024-10-10T20:48:46Z</time>
					</trkpt>
					<trkpt lat="45.887190" lon="4.509010">
						<ele>390</ele>
						<time>2024-10-10T20:48:58Z</time>
					</trkpt>
					<trkpt lat="45.887230" lon="4.509780">
						<ele>388</ele>
						<time>2024-10-10T20:49:08Z</time>
					</trkpt>
					<trkpt lat="45.887210" lon="4.509940">
						<ele>387</ele>
						<time>2024-10-10T20:49:10Z</time>
					</trkpt>
					<trkpt lat="45.887180" lon="4.510040">
						<ele>387</ele>
						<time>2024-10-10T20:49:11Z</time>
					</trkpt>
					<trkpt lat="45.886320" lon="4.511450">
						<ele>378</ele>
						<time>2024-10-10T20:49:35Z</time>
					</trkpt>
					<trkpt lat="45.886020" lon="4.512080">
						<ele>376</ele>
						<time>2024-10-10T20:49:44Z</time>
					</trkpt>
					<trkpt lat="45.884950" lon="4.514170">
						<ele>371</ele>
						<time>2024-10-10T20:50:16Z</time>
					</trkpt>
					<trkpt lat="45.884830" lon="4.514480">
						<ele>370</ele>
						<time>2024-10-10T20:50:20Z</time>
					</trkpt>
					<trkpt lat="45.884750" lon="4.514850">
						<ele>369</ele>
						<time>2024-10-10T20:50:25Z</time>
					</trkpt>
					<trkpt lat="45.884570" lon="4.515960">
						<ele>365</ele>
						<time>2024-10-10T20:50:39Z</time>
					</trkpt>
					<trkpt lat="45.884450" lon="4.516560">
						<ele>363</ele>
						<time>2024-10-10T20:50:47Z</time>
					</trkpt>
					<trkpt lat="45.884130" lon="4.516500">
						<ele>363</ele>
						<time>2024-10-10T20:50:53Z</time>
					</trkpt>
					<trkpt lat="45.883330" lon="4.516600">
						<ele>360</ele>
						<time>2024-10-10T20:51:07Z</time>
					</trkpt>
					<trkpt lat="45.883240" lon="4.516640">
						<ele>360</ele>
						<time>2024-10-10T20:51:09Z</time>
					</trkpt>
					<trkpt lat="45.883010" lon="4.517600">
						<ele>355</ele>
						<time>2024-10-10T20:51:21Z</time>
					</trkpt>
					<trkpt lat="45.883240" lon="4.517740">
						<ele>354</ele>
						<time>2024-10-10T20:51:26Z</time>
					</trkpt>
					<trkpt lat="45.883600" lon="4.518210">
						<ele>353</ele>
						<time>2024-10-10T20:51:35Z</time>
					</trkpt>
					<trkpt lat="45.883560" lon="4.518280">
						<ele>353</ele>
						<time>2024-10-10T20:51:36Z</time>
					</trkpt>
					<trkpt lat="45.883540" lon="4.518420">
						<ele>353</ele>
						<time>2024-10-10T20:51:37Z</time>
					</trkpt>
					<trkpt lat="45.883600" lon="4.519710">
						<ele>353</ele>
						<time>2024-10-10T20:51:53Z</time>
					</trkpt>
					<trkpt lat="45.883690" lon="4.520600">
						<ele>351</ele>
						<time>2024-10-10T20:52:05Z</time>
					</trkpt>
					<trkpt lat="45.884000" lon="4.521680">
						<ele>348</ele>
						<time>2024-10-10T20:52:19Z</time>
					</trkpt>
					<trkpt lat="45.884070" lon="4.522570">
						<ele>346</ele>
						<time>2024-10-10T20:52:30Z</time>
					</trkpt>
					<trkpt lat="45.884150" lon="4.522920">
						<ele>347</ele>
						<time>2024-10-10T20:52:35Z</time>
					</trkpt>
					<trkpt lat="45.884140" lon="4.523170">
						<ele>347</ele>
						<time>2024-10-10T20:52:38Z</time>
					</trkpt>
					<trkpt lat="45.884070" lon="4.523490">
						<ele>349</ele>
						<time>2024-10-10T20:52:42Z</time>
					</trkpt>
					<trkpt lat="45.884050" lon="4.523650">
						<ele>349</ele>
						<time>2024-10-10T20:52:44Z</time>
					</trkpt>
					<trkpt lat="45.884090" lon="4.524810">
						<ele>355</ele>
						<time>2024-10-10T20:52:58Z</time>
					</trkpt>
					<trkpt lat="45.884080" lon="4.524970">
						<ele>355</ele>
						<time>2024-10-10T20:53:00Z</time>
					</trkpt>
					<trkpt lat="45.883630" lon="4.526200">
						<ele>356</ele>
						<time>2024-10-10T20:53:18Z</time>
					</trkpt>
					<trkpt lat="45.883540" lon="4.526370">
						<ele>356</ele>
						<time>2024-10-10T20:53:20Z</time>
					</trkpt>
					<trkpt lat="45.883470" lon="4.526580">
						<ele>356</ele>
						<time>2024-10-10T20:53:23Z</time>
					</trkpt>
					<trkpt lat="45.883350" lon="4.527330">
						<ele>355</ele>
						<time>2024-10-10T20:53:33Z</time>
					</trkpt>
					<trkpt lat="45.883210" lon="4.528850">
						<ele>354</ele>
						<time>2024-10-10T20:53:52Z</time>
					</trkpt>
					<trkpt lat="45.883040" lon="4.529870">
						<ele>354</ele>
						<time>2024-10-10T20:54:05Z</time>
					</trkpt>
					<trkpt lat="45.883030" lon="4.530050">
						<ele>353</ele>
						<time>2024-10-10T20:54:07Z</time>
					</trkpt>
					<trkpt lat="45.883040" lon="4.530940">
						<ele>352</ele>
						<time>2024-10-10T20:54:18Z</time>
					</trkpt>
					<trkpt lat="45.882990" lon="4.531970">
						<ele>351</ele>
						<time>2024-10-10T20:54:31Z</time>
					</trkpt>
					<trkpt lat="45.882750" lon="4.533010">
						<ele>349</ele>
						<time>2024-10-10T20:54:44Z</time>
					</trkpt>
					<trkpt lat="45.882590" lon="4.533950">
						<ele>348</ele>
						<time>2024-10-10T20:54:56Z</time>
					</trkpt>
					<trkpt lat="45.882600" lon="4.534190">
						<ele>347</ele>
						<time>2024-10-10T20:54:59Z</time>
					</trkpt>
					<trkpt lat="45.882680" lon="4.534570">
						<ele>347</ele>
						<time>2024-10-10T20:55:04Z</time>
					</trkpt>
					<trkpt lat="45.882720" lon="4.535140">
						<ele>346</ele>
						<time>2024-10-10T20:55:11Z</time>
					</trkpt>
					<trkpt lat="45.882730" lon="4.535480">
						<ele>346</ele>
						<time>2024-10-10T20:55:15Z</time>
					</trkpt>
					<trkpt lat="45.882720" lon="4.535780">
						<ele>346</ele>
						<time>2024-10-10T20:55:19Z</time>
					</trkpt>
					<trkpt lat="45.882750" lon="4.535990">
						<ele>346</ele>
						<time>2024-10-10T20:55:22Z</time>
					</trkpt>
					<trkpt lat="45.882920" lon="4.536380">
						<ele>345</ele>
						<time>2024-10-10T20:55:27Z</time>
					</trkpt>
					<trkpt lat="45.882970" lon="4.536550">
						<ele>345</ele>
						<time>2024-10-10T20:55:30Z</time>
					</trkpt>
					<trkpt lat="45.883020" lon="4.536810">
						<ele>345</ele>
						<time>2024-10-10T20:55:33Z</time>
					</trkpt>
					<trkpt lat="45.883110" lon="4.537560">
						<ele>347</ele>
						<time>2024-10-10T20:55:43Z</time>
					</trkpt>
					<trkpt lat="45.883230" lon="4.538030">
						<ele>348</ele>
						<time>2024-10-10T20:55:49Z</time>
					</trkpt>
					<trkpt lat="45.883540" lon="4.539020">
						<ele>351</ele>
						<time>2024-10-10T20:56:02Z</time>
					</trkpt>
					<trkpt lat="45.883710" lon="4.539490">
						<ele>354</ele>
						<time>2024-10-10T20:56:09Z</time>
					</trkpt>
					<trkpt lat="45.883830" lon="4.539960">
						<ele>356</ele>
						<time>2024-10-10T20:56:15Z</time>
					</trkpt>
					<trkpt lat="45.883810" lon="4.540140">
						<ele>357</ele>
						<time>2024-10-10T20:56:17Z</time>
					</trkpt>
					<trkpt lat="45.883620" lon="4.541200">
						<ele>359</ele>
						<time>2024-10-10T20:56:31Z</time>
					</trkpt>
					<trkpt lat="45.883620" lon="4.541540">
						<ele>360</ele>
						<time>2024-10-10T20:56:35Z</time>
					</trkpt>
					<trkpt lat="45.883750" lon="4.542200">
						<ele>360</ele>
						<time>2024-10-10T20:56:43Z</time>
					</trkpt>
					<trkpt lat="45.883760" lon="4.542370">
						<ele>361</ele>
						<time>2024-10-10T20:56:46Z</time>
					</trkpt>
					<trkpt lat="45.883670" lon="4.543020">
						<ele>362</ele>
						<time>2024-10-10T20:56:54Z</time>
					</trkpt>
					<trkpt lat="45.883640" lon="4.543500">
						<ele>362</ele>
						<time>2024-10-10T20:57:00Z</time>
					</trkpt>
					<trkpt lat="45.883850" lon="4.544920">
						<ele>362</ele>
						<time>2024-10-10T20:57:18Z</time>
					</trkpt>
					<trkpt lat="45.884290" lon="4.546630">
						<ele>362</ele>
						<time>2024-10-10T20:57:40Z</time>
					</trkpt>
					<trkpt lat="45.884770" lon="4.547960">
						<ele>361</ele>
						<time>2024-10-10T20:57:59Z</time>
					</trkpt>
					<trkpt lat="45.885130" lon="4.549610">
						<ele>362</ele>
						<time>2024-10-10T20:58:20Z</time>
					</trkpt>
					<trkpt lat="45.885230" lon="4.549970">
						<ele>362</ele>
						<time>2024-10-10T20:58:25Z</time>
					</trkpt>
					<trkpt lat="45.885180" lon="4.550080">
						<ele>362</ele>
						<time>2024-10-10T20:58:27Z</time>
					</trkpt>
					<trkpt lat="45.884990" lon="4.550370">
						<ele>362</ele>
						<time>2024-10-10T20:58:32Z</time>
					</trkpt>
					<trkpt lat="45.883070" lon="4.553140">
						<ele>356</ele>
						<time>2024-10-10T20:59:20Z</time>
					</trkpt>
					<trkpt lat="45.882740" lon="4.553630">
						<ele>356</ele>
						<time>2024-10-10T20:59:29Z</time>
					</trkpt>
					<trkpt lat="45.882050" lon="4.554570">
						<ele>357</ele>
						<time>2024-10-10T20:59:45Z</time>
					</trkpt>
					<trkpt lat="45.881640" lon="4.554970">
						<ele>358</ele>
						<time>2024-10-10T20:59:54Z</time>
					</trkpt>
					<trkpt lat="45.881330" lon="4.555180">
						<ele>358</ele>
						<time>2024-10-10T21:00:00Z</time>
					</trkpt>
					<trkpt lat="45.881050" lon="4.555320">
						<ele>358</ele>
						<time>2024-10-10T21:00:06Z</time>
					</trkpt>
					<trkpt lat="45.879960" lon="4.555670">
						<ele>355</ele>
						<time>2024-10-10T21:00:25Z</time>
					</trkpt>
					<trkpt lat="45.879210" lon="4.556000">
						<ele>355</ele>
						<time>2024-10-10T21:00:39Z</time>
					</trkpt>
					<trkpt lat="45.879110" lon="4.556030">
						<ele>355</ele>
						<time>2024-10-10T21:00:41Z</time>
					</trkpt>
					<trkpt lat="45.878930" lon="4.555990">
						<ele>356</ele>
						<time>2024-10-10T21:00:45Z</time>
					</trkpt>
					<trkpt lat="45.878940" lon="4.556310">
						<ele>356</ele>
						<time>2024-10-10T21:00:48Z</time>
					</trkpt>
					<trkpt lat="45.878930" lon="4.558020">
						<ele>360</ele>
						<time>2024-10-10T21:01:10Z</time>
					</trkpt>
					<trkpt lat="45.878980" lon="4.558440">
						<ele>361</ele>
						<time>2024-10-10T21:01:15Z</time>
					</trkpt>
					<trkpt lat="45.879120" lon="4.559120">
						<ele>363</ele>
						<time>2024-10-10T21:01:24Z</time>
					</trkpt>
					<trkpt lat="45.879560" lon="4.559710">
						<ele>365</ele>
						<time>2024-10-10T21:01:34Z</time>
					</trkpt>
					<trkpt lat="45.879850" lon="4.559980">
						<ele>366</ele>
						<time>2024-10-10T21:01:41Z</time>
					</trkpt>
					<trkpt lat="45.880350" lon="4.560100">
						<ele>365</ele>
						<time>2024-10-10T21:01:50Z</time>
					</trkpt>
					<trkpt lat="45.880780" lon="4.560340">
						<ele>364</ele>
						<time>2024-10-10T21:01:58Z</time>
					</trkpt>
					<trkpt lat="45.880960" lon="4.560480">
						<ele>364</ele>
						<time>2024-10-10T21:02:01Z</time>
					</trkpt>
					<trkpt lat="45.881120" lon="4.560690">
						<ele>365</ele>
						<time>2024-10-10T21:02:05Z</time>
					</trkpt>
					<trkpt lat="45.881360" lon="4.561140">
						<ele>368</ele>
						<time>2024-10-10T21:02:12Z</time>
					</trkpt>
					<trkpt lat="45.881400" lon="4.561260">
						<ele>369</ele>
						<time>2024-10-10T21:02:14Z</time>
					</trkpt>
					<trkpt lat="45.881430" lon="4.561530">
						<ele>372</ele>
						<time>2024-10-10T21:02:17Z</time>
					</trkpt>
					<trkpt lat="45.881410" lon="4.561660">
						<ele>373</ele>
						<time>2024-10-10T21:02:19Z</time>
					</trkpt>
					<trkpt lat="45.881380" lon="4.561750">
						<ele>373</ele>
						<time>2024-10-10T21:02:20Z</time>
					</trkpt>
					<trkpt lat="45.881270" lon="4.561920">
						<ele>374</ele>
						<time>2024-10-10T21:02:23Z</time>
					</trkpt>
					<trkpt lat="45.880220" lon="4.563040">
						<ele>379</ele>
						<time>2024-10-10T21:02:46Z</time>
					</trkpt>
					<trkpt lat="45.879980" lon="4.563220">
						<ele>380</ele>
						<time>2024-10-10T21:02:51Z</time>
					</trkpt>
					<trkpt lat="45.879740" lon="4.563320">
						<ele>381</ele>
						<time>2024-10-10T21:02:56Z</time>
					</trkpt>
					<trkpt lat="45.878220" lon="4.563720">
						<ele>389</ele>
						<time>2024-10-10T21:03:23Z</time>
					</trkpt>
					<trkpt lat="45.878040" lon="4.563810">
						<ele>389</ele>
						<time>2024-10-10T21:03:27Z</time>
					</trkpt>
					<trkpt lat="45.877290" lon="4.564260">
						<ele>393</ele>
						<time>2024-10-10T21:03:41Z</time>
					</trkpt>
					<trkpt lat="45.877070" lon="4.564400">
						<ele>394</ele>
						<time>2024-10-10T21:03:45Z</time>
					</trkpt>
					<trkpt lat="45.876980" lon="4.564490">
						<ele>394</ele>
						<time>2024-10-10T21:03:47Z</time>
					</trkpt>
					<trkpt lat="45.876930" lon="4.564580">
						<ele>395</ele>
						<time>2024-10-10T21:03:49Z</time>
					</trkpt>
					<trkpt lat="45.876890" lon="4.564680">
						<ele>396</ele>
						<time>2024-10-10T21:03:50Z</time>
					</trkpt>
					<trkpt lat="45.876860" lon="4.564870">
						<ele>397</ele>
						<time>2024-10-10T21:03:52Z</time>
					</trkpt>
					<trkpt lat="45.876850" lon="4.565270">
						<ele>399</ele>
						<time>2024-10-10T21:03:57Z</time>
					</trkpt>
					<trkpt lat="45.876620" lon="4.566000">
						<ele>400</ele>
						<time>2024-10-10T21:04:07Z</time>
					</trkpt>
					<trkpt lat="45.875970" lon="4.567640">
						<ele>398</ele>
						<time>2024-10-10T21:04:31Z</time>
					</trkpt>
					<trkpt lat="45.875070" lon="4.569750">
						<ele>408</ele>
						<time>2024-10-10T21:05:01Z</time>
					</trkpt>
					<trkpt lat="45.875000" lon="4.569980">
						<ele>407</ele>
						<time>2024-10-10T21:05:05Z</time>
					</trkpt>
					<trkpt lat="45.874980" lon="4.570170">
						<ele>407</ele>
						<time>2024-10-10T21:05:07Z</time>
					</trkpt>
					<trkpt lat="45.875040" lon="4.570560">
						<ele>407</ele>
						<time>2024-10-10T21:05:12Z</time>
					</trkpt>
					<trkpt lat="45.875140" lon="4.570770">
						<ele>408</ele>
						<time>2024-10-10T21:05:15Z</time>
					</trkpt>
					<trkpt lat="45.875460" lon="4.571250">
						<ele>410</ele>
						<time>2024-10-10T21:05:23Z</time>
					</trkpt>
					<trkpt lat="45.875560" lon="4.571460">
						<ele>410</ele>
						<time>2024-10-10T21:05:26Z</time>
					</trkpt>
					<trkpt lat="45.875620" lon="4.571650">
						<ele>409</ele>
						<time>2024-10-10T21:05:29Z</time>
					</trkpt>
					<trkpt lat="45.875780" lon="4.572680">
						<ele>404</ele>
						<time>2024-10-10T21:05:42Z</time>
					</trkpt>
					<trkpt lat="45.875910" lon="4.574790">
						<ele>395</ele>
						<time>2024-10-10T21:06:08Z</time>
					</trkpt>
					<trkpt lat="45.875530" lon="4.574820">
						<ele>395</ele>
						<time>2024-10-10T21:06:15Z</time>
					</trkpt>
					<trkpt lat="45.875280" lon="4.574870">
						<ele>394</ele>
						<time>2024-10-10T21:06:20Z</time>
					</trkpt>
					<trkpt lat="45.875060" lon="4.574950">
						<ele>392</ele>
						<time>2024-10-10T21:06:24Z</time>
					</trkpt>
					<trkpt lat="45.874500" lon="4.575220">
						<ele>389</ele>
						<time>2024-10-10T21:06:34Z</time>
					</trkpt>
					<trkpt lat="45.872430" lon="4.576980">
						<ele>377</ele>
						<time>2024-10-10T21:07:17Z</time>
					</trkpt>
					<trkpt lat="45.871630" lon="4.577160">
						<ele>376</ele>
						<time>2024-10-10T21:07:31Z</time>
					</trkpt>
					<trkpt lat="45.871290" lon="4.577270">
						<ele>375</ele>
						<time>2024-10-10T21:07:38Z</time>
					</trkpt>
					<trkpt lat="45.871210" lon="4.577230">
						<ele>375</ele>
						<time>2024-10-10T21:07:39Z</time>
					</trkpt>
					<trkpt lat="45.871120" lon="4.577110">
						<ele>374</ele>
						<time>2024-10-10T21:07:41Z</time>
					</trkpt>
					<trkpt lat="45.870450" lon="4.576670">
						<ele>370</ele>
						<time>2024-10-10T21:07:54Z</time>
					</trkpt>
					<trkpt lat="45.869620" lon="4.576100">
						<ele>367</ele>
						<time>2024-10-10T21:08:11Z</time>
					</trkpt>
					<trkpt lat="45.869490" lon="4.576010">
						<ele>367</ele>
						<time>2024-10-10T21:08:13Z</time>
					</trkpt>
					<trkpt lat="45.869300" lon="4.575960">
						<ele>366</ele>
						<time>2024-10-10T21:08:17Z</time>
					</trkpt>
					<trkpt lat="45.869080" lon="4.575920">
						<ele>366</ele>
						<time>2024-10-10T21:08:21Z</time>
					</trkpt>
					<trkpt lat="45.868450" lon="4.575860">
						<ele>366</ele>
						<time>2024-10-10T21:08:32Z</time>
					</trkpt>
					<trkpt lat="45.868300" lon="4.575900">
						<ele>366</ele>
						<time>2024-10-10T21:08:35Z</time>
					</trkpt>
					<trkpt lat="45.868170" lon="4.575960">
						<ele>366</ele>
						<time>2024-10-10T21:08:37Z</time>
					</trkpt>
					<trkpt lat="45.868030" lon="4.576090">
						<ele>366</ele>
						<time>2024-10-10T21:08:40Z</time>
					</trkpt>
					<trkpt lat="45.867810" lon="4.576350">
						<ele>367</ele>
						<time>2024-10-10T21:08:45Z</time>
					</trkpt>
					<trkpt lat="45.867570" lon="4.576640">
						<ele>367</ele>
						<time>2024-10-10T21:08:51Z</time>
					</trkpt>
					<trkpt lat="45.867050" lon="4.577340">
						<ele>368</ele>
						<time>2024-10-10T21:09:03Z</time>
					</trkpt>
					<trkpt lat="45.867070" lon="4.577450">
						<ele>368</ele>
						<time>2024-10-10T21:09:05Z</time>
					</trkpt>
					<trkpt lat="45.867250" lon="4.579000">
						<ele>368</ele>
						<time>2024-10-10T21:09:24Z</time>
					</trkpt>
					<trkpt lat="45.867220" lon="4.580290">
						<ele>368</ele>
						<time>2024-10-10T21:09:40Z</time>
					</trkpt>
					<trkpt lat="45.867240" lon="4.580660">
						<ele>369</ele>
						<time>2024-10-10T21:09:45Z</time>
					</trkpt>
					<trkpt lat="45.867290" lon="4.581050">
						<ele>370</ele>
						<time>2024-10-10T21:09:50Z</time>
					</trkpt>
					<trkpt lat="45.867380" lon="4.581500">
						<ele>371</ele>
						<time>2024-10-10T21:09:55Z</time>
					</trkpt>
					<trkpt lat="45.867510" lon="4.581900">
						<ele>372</ele>
						<time>2024-10-10T21:10:01Z</time>
					</trkpt>
					<trkpt lat="45.868140" lon="4.583340">
						<ele>371</ele>
						<time>2024-10-10T21:10:22Z</time>
					</trkpt>
					<trkpt lat="45.868630" lon="4.584380">
						<ele>369</ele>
						<time>2024-10-10T21:10:38Z</time>
					</trkpt>
					<trkpt lat="45.868890" lon="4.584810">
						<ele>369</ele>
						<time>2024-10-10T21:10:45Z</time>
					</trkpt>
					<trkpt lat="45.868990" lon="4.585090">
						<ele>369</ele>
						<time>2024-10-10T21:10:49Z</time>
					</trkpt>
					<trkpt lat="45.869050" lon="4.585350">
						<ele>370</ele>
						<time>2024-10-10T21:10:52Z</time>
					</trkpt>
					<trkpt lat="45.869050" lon="4.585560">
						<ele>370</ele>
						<time>2024-10-10T21:10:55Z</time>
					</trkpt>
					<trkpt lat="45.869020" lon="4.585750">
						<ele>371</ele>
						<time>2024-10-10T21:10:57Z</time>
					</trkpt>
					<trkpt lat="45.868820" lon="4.586250">
						<ele>373</ele>
						<time>2024-10-10T21:11:04Z</time>
					</trkpt>
					<trkpt lat="45.868660" lon="4.586900">
						<ele>377</ele>
						<time>2024-10-10T21:11:13Z</time>
					</trkpt>
					<trkpt lat="45.868280" lon="4.588960">
						<ele>372</ele>
						<time>2024-10-10T21:11:39Z</time>
					</trkpt>
					<trkpt lat="45.868000" lon="4.590320">
						<ele>364</ele>
						<time>2024-10-10T21:11:57Z</time>
					</trkpt>
					<trkpt lat="45.867990" lon="4.590680">
						<ele>363</ele>
						<time>2024-10-10T21:12:01Z</time>
					</trkpt>
					<trkpt lat="45.868030" lon="4.592360">
						<ele>359</ele>
						<time>2024-10-10T21:12:22Z</time>
					</trkpt>
					<trkpt lat="45.868020" lon="4.592810">
						<ele>358</ele>
						<time>2024-10-10T21:12:27Z</time>
					</trkpt>
					<trkpt lat="45.868050" lon="4.593270">
						<ele>357</ele>
						<time>2024-10-10T21:12:33Z</time>
					</trkpt>
					<trkpt lat="45.868050" lon="4.593280">
						<ele>357</ele>
						<time>2024-10-10T21:12:33Z</time>
					</trkpt>
					<trkpt lat="45.867870" lon="4.593830">
						<ele>356</ele>
						<time>2024-10-10T21:12:41Z</time>
					</trkpt>
					<trkpt lat="45.867060" lon="4.596530">
						<ele>355</ele>
						<time>2024-10-10T21:13:17Z</time>
					</trkpt>
					<trkpt lat="45.867010" lon="4.596660">
						<ele>355</ele>
						<time>2024-10-10T21:13:19Z</time>
					</trkpt>
					<trkpt lat="45.866880" lon="4.596960">
						<ele>354</ele>
						<time>2024-10-10T21:13:23Z</time>
					</trkpt>
					</trkseg>
				</trk>
			</gpx>